     2              OBSERVATION DATA    GPS                 RINEX VERSION / TYPE
TRRINEXO V2.4.6 UX                                          PGM / RUN BY / DATE
                                                            COMMENT
Original Marker Name: 1109                                  COMMENT
Campaign Name: STRC 1995                                    COMMENT
4-Character Station Name: 1109                              COMMENT
6-Character Antenna Code: TRMSST                            COMMENT
Vertical Measurement Point: TGP                             COMMENT
Vertical Offset to Rinex Ref. Point: 0.0629                 COMMENT
Radial Measurement Point: NGP                               COMMENT
Radial Offset to Rinex Ref. Point: 0.2334                   COMMENT
Antenna Height from Field Measurement: 1.3890 m             COMMENT
Original XYZ: -2363736.8442 -4793852.4347 3468838.1289      COMMENT
New XYZ position is based on association with SCEC monument COMMENT
E1D0G8H0+0011. Position of that monument is believed to be  COMMENT
valid to within 1 m horizontally; vertical accuracy         COMMENT
should be no worse than 3-times this value.                 COMMENT
                                                            COMMENT
Revised Rinex header created by UCSD GPS archive for        COMMENT
GSAC on 12-Apr-1999 (1999:102) 04:49:37 GMT                 COMMENT
For assistance contact dagnew@ucsd.edu or hjohnson@ucsd.edu COMMENT
                                                            COMMENT
HPGN-CALIF. SAT. 11-09 1990                                 MARKER NAME
HPGN-CALIF STA 11-09                                        MARKER NUMBER
E. Kendrick NCSU                                            OBSERVER / AGENCY
422 TRIMBLE 4000 SST 4.81                                   REC # / TYPE / VERS
62875 TR 4000SST L1/L2 GEO                                  ANT # / TYPE
 -2363770.0000 -4793879.0000  3468920.0000                  APPROX POSITION XYZ
        1.3063        0.0000        0.0000                  ANTENNA: DELTA H/E/N
     1     2     0                                          WAVELENGTH FACT L1/2
     3    C1    L1    L2                                    # / TYPES OF OBSERV
    30                                                      INTERVAL
  1995     2    19     6    20   30.000000                  TIME OF FIRST OBS
  1995     2    19    23    59   60.000000                  TIME OF LAST OBS
     0                                                      # OF SATELLITES
                                                            END OF HEADER
 95  2 19  6 20 30.0000000  0  6 16 20  5  6 17 24
  21068710.617          -0.87517
  20581018.820          -0.65117
  21625820.141          -0.75416
  21161554.719          -0.32217
  23227090.477          -0.73615
  23090298.641          -0.81616
 95  2 19  6 21  0.0000000  0  6 16 20  5  6 17 24
  21058606.914      -53072.073 7        -0.48819
  20571342.414      -50858.489 7
  21628580.352       14508.622 6        -0.31618
  21138577.430     -120752.681 7
  23199735.469     -143752.732 5
  23091576.422        6707.819 6        -0.44016
 95  2 19  6 21 30.0000000  0  6 16 20  5  6 17 24
  21048622.406     -105561.692 7    -40901.476 9
  20561774.617     -101124.155 7        -0.49419
  21631413.445       29383.494 6     11590.481 8
  21115627.305     -241352.897 7        -0.11419
  23172422.023     -287287.847 5        -0.24415
  23092848.328       13409.128 6      5221.336 6
 95  2 19  6 21 59.9990000  0  6 16 20  5  6 17 24
  21038742.214     -157465.595 7    -81346.078 9
  20552321.362     -150827.256 7    -38730.187 9
  21634308.472       44603.666 6     23450.344 8
  21092706.534     -361805.670 7    -93859.410 9
  23145144.144     -430630.115 5   -111695.491 5
  23094124.620       20105.404 6     10439.209 6
 95  2 19  6 22 29.9990000  0  6 16 20  5  6 17 24
  21028979.097     -208784.102 7   -121334.519 9
  20542967.479     -199966.962 7    -77020.878 9
  21637267.284       60153.977 6     35567.456 8
  21069813.534     -482106.236 7   -187600.100 9
  23117898.472     -573795.946 5   -223253.247 5
  23095395.042       26797.570 6     15653.874 6
 95  2 19  6 22 59.9990000  0  6 16 20  5  6 17 24
  21019321.190     -259528.834 7   -160875.864 9
  20533727.901     -248527.847 7   -114860.547 9
  21640289.925       76034.214 6     47941.661 8
  21046952.769     -602244.033 7   -281213.963 9
  23090685.300     -716796.237 5   -334682.027 5
  23096667.815       33476.526 6     20858.237 6
 95  2 19  6 23 29.9990000  0  6 16 20  5  6 17 24
  21009770.409     -309715.394 7   -199982.272 9
  20524598.683     -296502.204 7   -152243.181 9
  21643375.644       92252.007 6     60578.898 8
  21024123.081     -722211.050 7   -374694.749 9
  23063508.386     -859640.205 5   -445988.985 5
  23097941.894       40173.187 6     26076.399 6
 95  2 19  6 23 59.9990000  0  6 16 20  5  6 17 24
  21000326.479     -359350.897 7   -238659.283 9
  20515580.495     -343876.390 7   -189158.144 9
  21646525.151      108815.351 6     73485.382 8
  21001330.159     -841988.197 7   -468027.583 9
  23036360.542    -1002315.895 5   -557164.827 5
  23099225.800       46910.890 6     31326.549 6
 95  2 19  6 24 29.9990000  0  6 16 20  5  6 17 24
  20990981.995     -408444.630 7   -276914.133 9
  20506689.745     -390623.713 7   -225584.647 9
  21649747.026      125732.326 6     86667.426 8
  20978575.886     -961565.485 7   -561204.692 9
  23009246.284    -1144795.224 5   -668187.658 5
  23100510.190       53674.461 6     36596.856 6
 95  2 19  6 24 59.9990000  0  6 16 20  5  6 17 24
  20981746.183     -456986.342 7   -314738.836 9
  20497910.175     -436744.517 7   -261522.950 9
  21653035.651      143011.170 6    100131.453 7
  20955857.894    -1080955.007 7   -654235.486 9
  22982169.417    -1287069.145 5   -779050.434 5
  23101800.073       60452.485 6     41878.425 6
 95  2 19  6 25 29.9990000  0  6 16 20  5  6 17 24
  20972615.425     -504977.112 7   -352134.236 9
  20489247.284     -482265.622 7   -296993.958 9
  21656386.847      160628.814 6    113859.475 7
  20933172.534    -1200162.562 7   -747124.489 9
  22955136.800    -1429128.657 5   -889746.127 5
  23103088.854       67220.910 6     47152.507 6
 95  2 19  6 25 59.9990000  0  6 16 20  5  6 17 24
  20963589.511     -552388.890 7   -389078.472 9
  20480698.292     -527193.101 7   -332002.406 9
  21659803.104      178578.403 6    127846.146 8
  20910523.815    -1319184.430 7   -839868.797 9
  22928147.026    -1570951.471 5  -1000257.385 6
  23104372.690       73956.615 6     52401.104 6
 95  2 19  6 26 29.9990000  0  6 16 20  5  6 17 24
  20954684.722     -599209.733 7   -425562.240 9
  20472255.261     -571556.779 7   -366571.515 9
  21663279.370      196843.271 6    142078.502 7
  20887903.964    -1438047.731 7   -932489.551 9
  22901202.050    -1712545.290 5  -1110590.213 6
  23105643.753       80648.411 6     57615.483 6
 95  2 19  6 26 59.9990000  0  6 16 20  5  6 17 24
  20945885.479     -645433.648 7   -461580.865 9
  20463920.800     -615376.459 7   -400716.737 9
  21666811.909      215416.670 6    156551.263 7
  20865315.058    -1556750.794 7  -1024985.435 9
  22874305.644    -1853918.042 5  -1220750.765 6
  23106910.831       87301.751 6     62799.889 6
 95  2 19  6 27 29.9990000  0  6 16 20  5  6 17 24
  20937201.003     -691072.198 7   -497143.367 9
  20455681.050     -658655.429 7   -434440.628 9
  21670406.964      234301.185 6    171266.450 7
  20842762.144    -1675280.122 7  -1117345.951 9
  22847442.987    -1995067.023 5  -1330736.973 6
  23108174.667       93938.563 6     67971.422 6
 95  2 19  6 27 59.9990000  0  6 16 20  5  6 17 24
  20928627.425     -736125.748 7   -532250.023 9
  20447552.042     -701381.130 7   -467733.395 9
  21674060.604      253506.126 6    186231.325 7
  20820236.526    -1793642.904 7  -1209576.683 9
  22820623.464    -2135996.877 5  -1440552.418 6
  23109440.331      100585.727 6     73151.014 6
 95  2 19  6 28 29.9990000  0  6 16 20  5  6 17 24
  20920164.550     -780608.078 7   -566911.571 9
  20439529.979     -743540.259 7   -500584.685 9
  21677782.706      273051.230 6    201461.259 7
  20797748.776    -1911819.735 7  -1301662.527 9
  22793849.065    -2276705.710 5  -1550195.645 6
  23110710.378      107271.756 6     78360.898 6
 95  2 19  6 28 59.9990000  0  6 16 20  5  6 17 24
  20911805.183     -824531.000 7   -601137.216 9
  20431619.386     -785113.405 7   -532979.358 9
  21681566.245      292948.393 6    216965.530 7
  20775298.964    -2029792.845 7  -1393589.625 9
  22767113.276    -2417198.451 5  -1659670.487 6
  23111992.144      114001.448 6     83604.801 6
 95  2 19  6 29 29.9990000  0  6 16 20  5  6 17 24
  20903552.808     -867893.495 7   -634926.166 9
  20423818.464     -826094.353 7   -564912.584 9
  21685418.886      313196.517 6    232743.276 8
  20752886.769    -2147564.198 7  -1485359.510 9
  22740419.190    -2557485.136 5  -1768984.779 6
  23113283.894      120779.333 6     88886.257 6
 95  2 19  6 29 59.9990000  0  6 16 20  5  6 17 24
  20895410.698     -910689.763 7   -668273.904 9
  20416136.620     -866476.972 7   -596379.575 9
  21689337.151      333787.511 6    248788.187 7
  20730515.847    -2265134.206 7  -1576972.496 9
  22713756.979    -2697577.075 5  -1878147.309 6
  23114576.769      127587.052 6     94190.971 6
 95  2 19  6 30 29.9990000  0  6 16 20  5  6 17 24
  20887371.776     -952923.712 7   -701183.469 9
  20408564.979     -906265.988 7   -627384.025 9
  21693318.487      354710.737 6    265091.985 7
  20708180.956    -2382497.667 7  -1668424.543 9
  22687136.175    -2837472.811 6  -1987156.952 6
  23115876.019      134399.901 6     99499.677 6
 95  2 19  6 30 59.9990000  0  6 16 20  5  6 17 24
  20879449.300     -994574.000 7   -733638.229 9
  20401104.190     -945451.273 7   -657918.025 9
  21697364.480      375965.936 6    281654.462 7
  20685887.253    -2499650.121 7  -1759712.167 9
  22660558.847    -2977156.387 5  -2096001.289 5
  23117168.003      141210.005 5    104806.237 6
 95  2 19  6 31 29.9990000  0  6 16 20  5  6 17 24
  20871627.519    -1035651.357 7   -765646.555 9
  20393763.925     -984055.258 7   -687999.065 9
  21701465.425      397525.489 6    298454.100 7
  20663632.409    -2616600.660 7  -1850842.460 9
  22634016.042    -3116631.080 6  -2204682.850 6
  23118462.456      148000.932 5    110097.852 6
 95  2 19  6 31 59.9990000  0  6 16 20  5  6 17 24
  20863919.104    -1076173.611 7   -797222.332 9
  20386522.190    -1022094.008 7   -717639.666 9
  21705622.323      419372.755 6    315477.913 7
  20641416.034    -2733359.829 7  -1941823.623 9
  22607514.425    -3255896.495 6  -2313201.342 5
  23119745.269      154758.783 5    115363.693 6
 95  2 19  6 32 29.9990000  0  6 16 20  5  6 17 24
  20856313.136    -1116144.492 7   -828368.468 9
  20379390.956    -1059569.813 7   -746841.616 9
  21709839.269      441517.367 6    332733.445 7
  20619234.011    -2849922.087 7  -2032651.362 9
  22581054.534    -3394931.137 5  -2421540.007 6
  23121028.104      161489.691 5    120608.543 6
 95  2 19  6 32 59.9990000  0  6 16 20  5  6 17 24
  20848808.831    -1155572.597 7   -859091.660 9
  20372366.542    -1096494.602 7   -775614.191 9
  21714106.886      463952.496 6    350215.348 7
  20597089.597    -2966295.620 7  -2123332.037 9
  22554641.315    -3533748.918 6  -2529709.695 6
  23122303.690      168196.197 5    125834.376 6
 95  2 19  6 33 29.9980000  0  6 16 20  5  6 17 24
  20841414.240    -1194444.776 7   -889381.664 9
  20365445.709    -1132853.042 7   -803945.466 9
  21718436.967      486695.281 6    367936.982 7
  20574981.451    -3082463.730 7  -2213852.639 9
  22528268.795    -3672334.190 5  -2637698.196 6
  23123579.139      174903.292 5    131060.669 6
 95  2 19  6 33 59.9980000  0  6 16 20  5  6 17 24
  20834118.287    -1232778.662 7   -919252.216 9
  20358636.146    -1168644.651 7   -831835.050 9
  21722820.607      509742.238 6    385895.627 7
  20552910.490    -3198447.489 7  -2304229.592 9
  22501934.740    -3810701.035 5  -2745516.496 6
  23124855.365      181597.701 6    136277.085 6
 95  2 19  6 34 29.9980000  0  6 16 20  5  6 17 24
  20826925.443    -1270569.108 7   -948699.310 9
  20351935.928    -1203861.093 7   -859276.450 9
  21727262.732      533091.805 6    404090.083 7
  20530878.693    -3314233.046 7  -2394452.105 9
  22475650.904    -3948849.005 6  -2853164.245 6
  23126125.186      188279.183 6    141483.424 6
 95  2 19  6 34 59.9980000  0  6 16 20  5  6 17 24
  20819841.232    -1307810.512 7   -977718.583 9
  20345338.240    -1238508.530 7   -886274.478 9
  21731762.326      556728.165 6    422508.005 7
  20508882.795    -3429820.934 7  -2484520.595 9
  22449399.068    -4086789.407 6  -2960650.257 6
  23127395.951      194944.847 6    146677.437 6
 95  2 19  6 35 29.9980000  0  6 16 20  5  6 17 24
  20812856.951    -1344506.966 7  -1006313.217 9
  20338856.342    -1272585.459 7   -912827.937 9
  21736312.521      580646.466 6    441145.623 7
  20486924.951    -3545208.940 7  -2574433.322 9
  22423191.326    -4224515.432 6  -3067969.224 6
  23128657.545      201576.525 6    151844.961 6
 95  2 19  6 35 59.9980000  0  6 16 20  5  6 17 24
  20805974.053    -1380669.205 7  -1034491.576 9
  20332479.389    -1306109.387 7   -938950.491 9
  21740916.998      604833.966 6    459993.009 7
  20465004.904    -3660397.094 7  -2664190.323 9
  22397018.475    -4362036.101 5  -3175128.174 6
  23129909.303      208161.062 6    156975.754 6
 95  2 19  6 36 29.9980000  0  6 16 20  5  6 17 24
  20799198.357    -1416284.892 7  -1062244.049 9
  20326196.701    -1339103.889 7   -964660.519 9
  21745571.897      629295.840 6    479054.186 7
  20443123.475    -3775391.723 7  -2753796.528 9
  22370888.568    -4499361.367 6  -3282134.858 6
  23131153.928      214702.469 5    162072.942 6
 95  2 19  6 36 59.9980000  0  6 16 20  5  6 17 24
  20792528.021    -1451347.599 7  -1089565.633 9
  20320019.201    -1371565.610 7   -989955.372 9
  21750279.686      654042.864 6    498337.572 7
  20421273.951    -3890200.711 7  -2843258.073 9
  22344796.412    -4636487.353 6  -3388986.260 6
  23132393.225      221200.043 5    167135.974 6
 95  2 19  6 37 29.9980000  0  6 16 20  5  6 17 24
  20785956.295    -1485865.302 7  -1116462.538 9
  20313949.842    -1403478.099 7  -1014822.261 9
  21755042.287      679075.646 6    517843.621 7
  20399463.521    -4004822.620 7  -2932573.853 9
  22318742.014    -4773413.394 6  -3495681.860 6
  23133620.982      227668.509 5    172176.328 5
 95  2 19  6 37 59.9980000  0  6 16 20  5  6 17 24
  20779492.146    -1519831.625 7  -1142929.797 9
  20307979.396    -1434841.653 7  -1039261.408 9
  21759865.459      704405.633 6    537581.246 7
  20377691.115    -4119243.403 7  -3021732.906 9
  22292720.834    -4910141.892 6  -3602223.547 6
  23134852.959      234136.425 5    177216.256 5
 95  2 19  6 38 29.9980000  0  6 16 20  5  6 17 24
  20773135.217    -1553250.665 7  -1168970.602 9
  20302118.225    -1465635.919 7  -1063256.960 9
  21764738.951      730021.322 6    557541.500 7
  20355954.271    -4233461.337 7  -3110733.891 9
  22266745.021    -5046667.479 6  -3708607.108 6
  23136083.295      240612.873 5    182262.834 5
 95  2 19  6 38 59.9980000  0  6 16 20  5  6 17 24
  20766873.693    -1586148.665 7  -1194605.402 9
  20296371.006    -1495848.002 7  -1086798.855 9
  21769663.693      755896.227 6    577703.751 7
  20334262.154    -4347456.475 7  -3199561.271 9
  22240802.029    -5182977.160 6  -3814822.425 6
  23137320.217      247101.687 5    187319.046 5
 95  2 19  6 39 29.9980000  0  6 16 20  5  6 17 24
  20760707.857    -1618537.457 7  -1219843.415 9
  20290731.365    -1525495.051 7  -1109900.460 9
  21774633.686      782018.463 6    598058.733 7
  20312614.420    -4461218.670 7  -3288207.136 9
  22214907.732    -5319068.879 6  -3920867.914 6
  23138558.826      253607.659 5    192388.616 5
 95  2 19  6 39 59.9980000  0  6 16 20  5  6 17 24
  20754641.787    -1650420.163 7  -1244687.079 9
  20285189.451    -1554604.757 7  -1132583.366 9
  21779650.943      808376.712 6    618597.616 7
  20291010.568    -4574748.064 7  -3376671.603 9
  22189045.936    -5454956.180 6  -4026754.106 6
  23139793.943      260103.292 5    197450.134 5
 95  2 19  6 40 29.9980000  0  6 16 20  5  6 17 24
  20748671.092    -1681809.464 7  -1269146.264 9
  20279750.420    -1583181.469 7  -1154850.947 9
  21784704.787      834941.771 6    639297.645 6
  20269445.717    -4688067.483 7  -3464972.453 9
  22163226.701    -5590641.316 6  -4132482.768 6
  23141023.865      266561.752 5    202482.692 5
 95  2 19  6 40 59.9980000  0  6 16 20  5  6 17 24
  20742796.068    -1712692.224 7  -1293210.748 9
  20274410.162    -1611235.358 7  -1176711.128 9
  21789802.740      861731.708 6    660172.900 6
  20247923.865    -4801166.288 7  -3553101.387 9
  22137441.709    -5726121.367 6  -4238051.627 6
  23142240.865      272975.513 5    207480.420 5
 95  2 19  6 41 29.9980000  0  6 16 20  5  6 17 24
  20737015.115    -1743062.461 7  -1316875.870 9
  20269172.373    -1638773.071 7  -1198169.104 9
  21794945.076      888757.310 6    681231.805 7
  20226441.178    -4914058.821 7  -3641069.605 9
  22111699.459    -5861419.050 6  -4343478.388 6
  23143449.639      279320.283 5    212424.384 5
 95  2 19  6 41 59.9980000  0  7 16 20  5  6 17 24 26
  20731333.084    -1772910.560 7  -1340134.126 9
  20264036.107    -1665777.030 7  -1219211.158 9
  21800137.373      916031.365 6    702484.301 6
  20204999.834    -5026736.789 7  -3728870.615 9
  22085988.022    -5996527.219 6  -4448757.473 6
  23144647.529      285605.512 5    217321.979 5
  23944420.482     -148147.956 4
 95  2 19  6 42 29.9980000  0  7 16 20  5  6 17 24 26
  20725749.631    -1802250.841 7  -1362996.677 9
  20258999.357    -1692243.864 7  -1239834.675 9
  21805376.225      943563.334 6    723937.765 6
  20183597.709    -5139202.683 7  -3816506.381 9
  22060316.811    -6131438.940 6  -4553883.479 6
  23145834.693      291847.652 5    222185.970 5
  23916219.561     -296332.377 4
 95  2 19  6 42 59.9980000  0  7 16 20  5  6 17 24 26
  20720264.451    -1831074.435 7  -1385456.617 9
  20254063.428    -1718181.708 7  -1260045.995 9
  21810666.029      971369.279 6    745604.710 6
  20162241.975    -5251432.060 7  -3903957.850 9
  22034678.826    -6266158.717 6  -4658859.920 6
  23147013.482      298046.121 5    227015.938 5
  23888008.186     -444575.979 3        -0.17411
 95  2 19  6 43 29.9980000  0  7 16 20  5  6 17 24 26
  20714878.467    -1859381.338 7  -1407513.939 9
  20249225.428    -1743592.464 7  -1279846.595 9
  21816009.123      999438.638 6    767476.925 6
  20140931.131    -5363416.654 7  -3991218.572 9
  22009082.209    -6400683.079 6  -4763684.101 6
  23148191.592      304206.536 5    231816.250 5
  23859791.232     -592872.138 3   -115555.649 1
 95  2 19  6 43 59.9980000  0  7 16 20  5  6 17 24 26
  20709592.365    -1887169.462 7  -1429167.023 9
  20244487.904    -1768481.568 7  -1299240.713 9
  21821398.506     1027753.938 6    789540.782 6
  20119668.303    -5475151.973 7  -4078285.049 9
  21983519.686    -6535005.777 6  -4868351.131 6
  23149357.514      310344.521 5    236599.076 5
  23831561.264     -741219.439 3   -231150.985 1
 95  2 19  6 44 29.9970000  0  7 16 20  5  6 17 24 26
  20704405.228    -1914427.828 7  -1450407.301 9
  20239850.899    -1792847.744 7  -1318227.359 9
  21826828.884     1056300.841 6    811785.103 6
  20098453.954    -5586635.135 7  -4165155.050 9
  21958000.946    -6669113.470 6  -4972850.625 6
  23150515.524      316447.209 5    241354.418 5
  23803325.079     -889611.319 3   -346781.007 1
 95  2 19  6 44 59.9970000  0  7 16 20  5  6 17 24 26
  20699321.188    -1941147.674 7  -1471227.967 9
  20235313.157    -1816696.374 7  -1336810.718 9
  21832301.821     1085067.921 6    834200.989 6
  20077286.087    -5697881.710 7  -4251840.699 9
  21932519.204    -6803012.274 6  -5077187.338 6
  23151668.407      322509.439 5    246078.211 5
  23775076.431    -1038036.393 3   -462436.927 1
 95  2 19  6 45 29.9970000  0  7 16 20  5  6 17 24 26
  20694336.321    -1967342.556 7  -1491639.562 9
  20230875.360    -1840026.530 7  -1354990.066 9
  21837815.548     1114039.626 6    856776.331 6
  20056157.392    -5808909.403 7  -4338355.786 9
  21907080.704    -6936695.902 6  -5181356.387 6
  23152818.415      328551.933 5    250786.635 5
  23746830.454    -1186473.781 3   -578102.431 2
 95  2 19  6 45 59.9970000  0  7 16 20  5  6 17 24 26
  20689447.610    -1993024.233 7  -1511651.255 9
  20226537.610    -1862833.879 7  -1372762.031 9
  21843365.626     1143213.994 6    879509.586 6
  20035068.189    -5919729.387 7  -4424709.038 9
  21881682.157    -7070167.047 6  -5285359.874 6
  23153963.829      334580.735 5    255484.380 5
  23718578.931    -1334928.178 3   -693781.170 1
 95  2 19  6 46 29.9970000  0  7 16 20  5  6 17 24 26
  20684653.470    -2018204.118 7  -1531271.945 9
  20222295.915    -1885130.018 7  -1390135.662 9
  21848958.837     1172595.519 6    902404.267 6
  20014019.782    -6030348.222 7  -4510905.527 9
  21856323.595    -7203424.273 6  -5389196.659 6
  23155107.884      340580.500 5    260159.496 5
  23690325.064    -1483406.627 3   -809478.661 1
 95  2 19  6 46 59.9970000  0  7 16 20  5  6 17 24 26
  20679956.782    -2042892.094 7  -1550509.333 9
  20218149.321    -1906913.902 7  -1407110.120 9
  21854588.337     1202184.473 6    925460.582 6
  19993012.985    -6140742.083 7  -4596926.722 9
  21831002.876    -7336480.724 6  -5492876.996 6
  23156245.360      346557.097 5    264816.584 5
  23662070.040    -1631902.055 3   -925189.351 3
 95  2 19  6 47 29.9970000  0  7 16 20  5  6 17 24 26
  20675354.329    -2067085.612 7  -1569361.422 9
  20214105.306    -1928166.150 7  -1423670.331 9
  21860259.931     1231987.400 6    948683.620 6
  19972050.915    -6250881.407 7  -4682749.579 9
  21805728.103    -7469325.209 6  -5596392.168 6
  23157377.462      352508.888 5    269454.334 5
  23633808.040    -1780407.273 3  -1040907.682 2
 95  2 19  6 47 59.9970000  0  7 16 20  5  6 17 24 26
  20670845.970    -2090779.649 7  -1587824.304 9
  20210160.821    -1948881.264 7  -1439811.989 9
  21865975.314     1262013.566 6    972080.613 6
  19951143.360    -6360750.511 7  -4768361.858 9
  21780487.829    -7601960.106 6  -5699744.021 6
  23158499.712      358417.242 5    274058.234 5
  23605550.524    -1928915.659 3  -1156628.502 3
 95  2 19  6 48 29.9970000  0  7 16 20  5  6 17 24 26
  20666433.642    -2113966.179 7  -1605891.732 9
  20206320.040    -1969059.086 7  -1455534.974 9
  21871733.868     1292284.726 6    995668.517 6
  19930293.040    -6470329.459 7  -4853748.054 9
  21755285.399    -7734380.720 6  -5802928.906 6
  23159615.806      364283.212 5    278629.117 5
  23577297.095    -2077412.965 3  -1272340.631 2
 95  2 19  6 48 59.9970000  0  7 16 20  5  6 17 24 26
  20662116.032    -2136656.844 7  -1623572.772 9
  20202582.157    -1988699.979 7  -1470839.578 9
  21877542.149     1322802.728 6   1019448.774 6
  19909497.009    -6579621.604 7  -4938910.760 9
  21730124.353    -7866600.381 6  -5905957.206 6
  23160730.829      370110.588 5    283169.930 5
  23549034.681    -2225899.141 3  -1388044.086 4
 95  2 19  6 49 29.9970000  0  7 16 20  5  6 17 24 26
  20657889.704    -2158867.270 7  -1640879.592 9
  20198944.220    -2007827.938 7  -1485744.489 9
  21883395.579     1353562.100 6   1043417.099 6
  19888747.642    -6688657.743 7  -5023873.985 9
  21705001.868    -7998618.987 6  -6008828.845 6
  23161829.524      375895.763 5    287677.847 5
  23520778.970    -2374384.818 3  -1503747.215 2
 95  2 19  6 49 59.9970000  0  8 16 20  5  6 17 24 26 23
  20653754.360    -2180595.563 7  -1657810.727 9
  20195397.610    -2026462.177 7  -1500264.688 9
  21889292.642     1384566.051 6   1067576.006 6
  19868043.938    -6797447.761 7  -5108645.424 9
  21679915.899    -8130449.302 6  -6111553.749 6
  23162926.360      381650.070 5    292161.718 5
  23492522.407    -2522881.186 3  -1619458.662 3
  23828398.024          -0.64513
 95  2 19  6 50 29.9970000  0  8 16 20  5  6 17 24 26 23
  20649710.095    -2201849.902 7  -1674372.556 9
  20191940.728    -2044627.356 7  -1514419.378 9
  21895237.603     1415785.940 6   1091903.190 6
  19847385.563    -6906006.704 7  -5193236.811 9
  21654866.103    -8262084.992 6  -6214127.009 6
  23164008.892      387368.965 5    296617.992 5
  23464263.360    -2671397.590 3  -1735185.692 4
  23794930.923     -175857.271 3        -0.37312
 95  2 19  6 50 59.9970000  0  8 16 20  5  6 17 24 26 23
  20645757.470    -2222624.515 7  -1690560.563 9
  20188573.235    -2062322.130 7  -1528207.518 9
  21901212.173     1447185.382 6   1116370.269 6
  19826768.931    -7014346.417 7  -5277657.366 9
  21629857.376    -8393521.364 6  -6316544.950 6
  23165090.712      393053.569 5    301047.543 5
  23435996.689    -2819924.639 3  -1850921.014 3
  23761478.142     -351670.727 3   -136997.899 2
 95  2 19  6 51 29.9970000  0  8 16 20  5  6 17 24 26 23
  20641896.860    -2242914.407 7  -1706370.866 9
  20185297.751    -2079543.347 7  -1541626.654 9
  21907213.587     1478737.628 6   1140956.433 6
  19806193.899    -7122473.164 7  -5361911.972 9
  21604881.439    -8524757.710 6  -6418807.022 6
  23166163.868      398698.886 5    305446.463 5
  23407728.837    -2968451.817 3  -1966656.474 3
  23728016.165     -527445.717 3   -273965.418 3
 95  2 19  6 51 59.9970000  0  8 16 20  5  6 17 24 26 23
  20638127.767    -2262716.800 7  -1721801.297 9
  20182112.931    -2096275.856 7  -1554664.973 9
  21913245.853     1510435.004 6   1165655.665 6
  19785659.337    -7230380.613 7  -5445995.694 9
  21579949.337    -8655789.486 6  -6520909.689 6
  23167237.821      404296.811 5    309808.470 5
  23379471.087    -3116962.076 3  -2082378.716 3
  23694581.673     -703191.237 3   -410909.948 4
 95  2 19  6 52 29.9970000  0  8 16 20  5  6 17 24 26 23
  20634451.274    -2282033.391 7  -1736853.186 9
  20179026.181    -2112497.557 7  -1567305.273 9
  21919305.665     1542265.681 6   1190458.784 6
  19765170.009    -7338059.087 7  -5529901.002 9
  21555052.470    -8786611.288 6  -6622848.748 6
  23168289.290      409841.487 5    314128.988 5
  23351220.251    -3265432.810 4  -2198070.195 4
  23661146.735     -878897.189 3   -547823.627 4
 95  2 19  6 52 59.9970000  0  8 16 20  5  6 17 24 26 23
  20630864.259    -2300880.866 7  -1751539.525 9
  20176039.743    -2128193.786 7  -1579536.107 9
  21925387.321     1574229.146 6   1215365.367 6
  19744722.454    -7445502.348 7  -5613623.029 9
  21530194.204    -8917243.066 6  -6724639.721 6
  23169334.462      415321.724 5    318399.290 5
  23322973.134    -3413865.855 4  -2313732.292 2
  23627718.329    -1054556.361 3   -684700.944 3
 95  2 19  6 53 29.9970000  0  8 16 20  5  6 17 24 26 23
  20627364.798    -2319269.254 7  -1765868.143 9
  20173153.626    -2143362.638 7  -1591355.990 9
  21931498.790     1606350.997 5   1240395.362 6
  19724325.665    -7552699.986 7  -5697153.655 9
  21505374.946    -9047680.077 6  -6826278.939 6
  23170360.962      420737.546 5    322619.398 5
  23294731.415    -3562269.815 4  -2429371.739 4
  23594302.470    -1230154.298 3   -821530.494 2
 95  2 19  6 53 59.9970000  0  8 16 20  5  6 17 24 26 23
  20623952.439    -2337196.194 7  -1779837.188 9
  20170366.634    -2158019.266 7  -1602776.752 9
  21937641.173     1638639.906 5   1265555.525 6
  19703975.931    -7659638.411 7  -5780482.296 9
  21480592.634    -9177914.250 6  -6927760.095 6
  23171376.540      426081.366 5    326783.399 5
  23266491.587    -3710658.502 4  -2544999.266 3
  23560897.501    -1405695.446 3   -958315.769 4
 95  2 19  6 54 29.9970000  0  8 16 20  5  6 17 24 26 23
  20620632.040    -2354643.962 7  -1793432.848 9
  20167673.751    -2172162.237 7  -1613797.245 9
  21943822.454     1671115.796 5   1290861.409 6
  19683676.157    -7766302.071 7  -5863596.845 9
  21455850.548    -9307928.189 6  -7029069.631 6
  23172387.431      431375.367 5    330908.579 5
  23238261.009    -3859026.276 4  -2660610.502 3
  23527512.649    -1581138.908 3  -1095024.961 3
 95  2 19  6 54 59.9970000  0  8 16 20  5  6 17 24 26 23
  20617404.688    -2371610.801 7  -1806653.761 9
  20165074.532    -2185815.391 7  -1624436.072 9
  21950043.548     1703798.129 6   1316328.144 6
  19663431.220    -7872697.428 7  -5946502.316 9
  21431152.571    -9437709.359 6  -7130197.802 6
  23173385.470      436623.545 5    334998.066 5
  23210031.384    -4007376.833 4  -2776208.301 3
  23494149.017    -1756480.751 3  -1231654.985 3
 95  2 19  6 55 29.9970000  0  8 16 20  5  6 17 24 26 23
  20614273.720    -2388076.353 7  -1819484.061 9
  20162567.556    -2198990.171 7  -1634702.139 9
  21956303.001     1736696.411 5   1341963.160 6
  19643237.868    -7978814.460 7  -6029190.914 9
  21406500.720    -9567247.927 6  -7231136.925 6
  23174380.673      441839.855 5    339062.718 5
  23181805.829    -4155692.285 4  -2891778.776 4
  23460803.251    -1931713.777 3  -1368200.170 3
 95  2 19  6 55 59.9960000  0  8 16 20  5  6 17 24 26 23
  20611235.121    -2404044.342 7  -1831926.651 9
  20160147.652    -2211691.279 7  -1644599.112 9
  21962604.355     1769796.325 5   1367755.284 6
  19623101.207    -8084637.211 7  -6111650.196 9
  21381895.238    -9696551.699 6  -7331893.100 6
  23175361.465      447018.109 5    343097.701 5
  23153599.441    -4303942.467 5  -3007298.384 4
  23427480.301    -2106831.683 3  -1504655.628 4
 95  2 19  6 56 29.9960000  0  8 16 20  5  6 17 24 26 23
  20608283.996    -2419537.471 7  -1843999.213 9
  20157821.871    -2223916.138 7  -1654124.978 9
  21968939.434     1803095.573 6   1393702.722 6
  19603017.730    -8190178.066 7  -6193889.818 9
  21357331.809    -9825650.800 6  -7432489.786 6
  23176344.871      452170.132 5    347112.263 4
  23125396.113    -4452120.101 5  -3122761.452 4
  23394175.301    -2281840.261 5  -1641025.921 3
 95  2 19  6 56 59.9960000  0  8 16 20  5  6 17 24 26 23
  20605425.676    -2434567.361 7  -1855710.820 9
  20155586.793    -2235664.398 7  -1663279.467 9
  21975310.840     1836572.730 6   1419788.817 6
  19582988.441    -8295423.341 7  -6275899.127 9
  21332800.340    -9954559.292 6  -7532937.944 6
  23177323.699      457291.867 5    351103.222 5
  23097210.504    -4600220.157 4  -3238164.063 2
  23360886.746    -2456753.741 5  -1777322.144 2
 95  2 19  6 57 29.9960000  0  8 16 20  5  6 17 24 26 23
  20602651.738    -2449137.938 7  -1867064.516 9
  20153448.676    -2246920.546 7  -1672050.495 9
  21981710.699     1870212.273 5   1446001.431 5
  19563021.973    -8400348.245 7  -6357658.797 9
  21308306.488   -10083275.628 6  -7633236.380 6
  23178288.465      462396.424 5    355080.769 4
  23069046.488    -4748235.520 4  -3353500.701 4
  23327626.934    -2631572.352 5  -1913544.411 4
 95  2 19  6 57 59.9960000  0  8 16 20  5  6 17 24 26 23
  20599962.543    -2463258.617 7  -1878067.644 9
  20151400.098    -2257686.613 7  -1680439.643 9
  21988144.418     1904019.098 5   1472344.400 5
  19543116.004    -8504957.781 7  -6439172.724 9
  21283852.215   -10211785.541 6  -7733373.953 6
  23179259.316      467488.787 5    359048.841 2
  23040896.738    -4896175.527 4  -3468778.649 3
  23294375.168    -2806298.260 5  -2049694.530 4
 95  2 19  6 58 29.9960000  0  8 16 20  5  6 17 24 26 23
  20597367.324    -2476914.849 7  -1888708.865 9
  20149442.980    -2267965.554 7  -1688449.218 9
  21994611.207     1937996.846 5   1498820.558 6
  19523269.738    -8609253.778 7  -6520442.331 9
  21259440.184   -10340072.363 6  -7833337.699 6
  23180226.098      472580.832 5    363016.666 4
  23012753.520    -5044047.541 4  -3584003.570 2
  23261139.816    -2980928.861 4  -2185770.385 4
 95  2 19  6 58 59.9960000  0  8 16 20  5  6 17 24 26 23
  20594859.410    -2490098.067 7  -1898981.501 9
  20147574.223    -2277774.595 7  -1696092.631 9
  22001105.160     1972139.422 5   1525425.148 5
  19503482.449    -8713241.461 7  -6601471.693 9
  21235069.855   -10468129.895 6  -7933122.771 6
  23181190.316      477658.700 5    366973.454 4
  22984633.246    -5191861.734 4  -3699183.461 2
  23227929.113    -3155474.337 5  -2321779.911 2
 95  2 19  6 59 29.9960000  0  8 16 20  5  6 17 24 26 23
  20592440.395    -2502807.401 7  -1908884.876 8
  20145795.098    -2287121.686 7  -1703376.077 9
  22007636.652     2006457.522 5   1552166.514 5
  19483749.207    -8816929.880 7  -6682267.866 9
  21210748.941   -10595952.496 6  -8032724.787 6
  23182157.098      482716.520 5    370914.592 4
  22956516.582    -5339610.796 4  -3814312.582 3
  23194731.566    -3329927.885 4  -2457717.812 1
 95  2 19  6 59 59.9960000  0  8 16 20  5  6 17 24 26 23
  20590111.660    -2515035.912 7  -1918413.590 8
  20144108.559    -2296003.475 7  -1710296.960 9
  22014199.137     2040944.676 5   1579039.606 5
  19464070.801    -8920338.730 7  -6762846.192 9
  21186468.824   -10723546.911 6  -8132148.998 6
  23183119.715      487745.317 5    374833.125 4
  22928412.926    -5487285.591 4  -3929383.833 3
  23161550.387    -3504274.343 4  -2593572.195 4
 95  2 19  7  0 29.9960000  0  8 16 20  5  6 17 24 26 23
  20587876.082    -2526781.676 7  -1927566.118 8
  20142508.043    -2304412.715 7  -1716849.621 9
  22020790.496     2075578.933 5   1606027.340 5
  19444447.598    -9023462.895 7  -6843202.681 9
  21162226.316   -10850926.678 6  -8231405.944 6
  23184066.098      492741.956 5    378726.597 5
  22900324.895    -5634891.012 4  -4044401.033 2
  23128401.535    -3678508.848 5  -2729339.376 2
 95  2 19  7  0 59.9960000  0  8 16 20  5  6 17 24 26 23
  20585730.684    -2538057.108 7  -1936352.175 8
  20140997.230    -2312350.356 7  -1723034.803 9
  22027407.441     2110349.125 5   1633120.995 5
  19424879.043    -9126301.545 7  -6923336.691 9
  21138027.082   -10978095.151 6  -8330498.252 7
  23185007.746      497702.768 5    382592.155 5
  22872249.934    -5782428.321 3  -4159365.165 3
  23095261.199    -3852624.904 4  -2865014.296 2
 95  2 19  7  1 29.9960000  0  8 16 20  5  6 17 24 26 23
  20583677.645    -2548862.338 7  -1944771.833 8
  20139576.207    -2319799.919 7  -1728839.660 9
  22034045.746     2145241.377 5   1660309.749 5
  19405363.285    -9228848.205 7  -7003243.182 9
  21113868.059   -11105052.195 6  -8429425.803 7
  23185946.520      502630.265 5    386431.753 4
  22844189.020    -5929890.324 4  -4274270.624 2
  23062153.832    -4026609.311 5  -3000586.567 3
 95  2 19  7  1 59.9960000  0  8 16 20  5  6 17 24 26 23
  20581709.441    -2559200.886 7  -1952827.846 8
  20138248.715    -2326773.471 7  -1734273.600 9
  22040710.488     2180249.192 5   1687588.551 5
  19385905.973    -9331098.211 7  -7082918.508 9
  21089749.605   -11231806.791 6  -8528195.618 7
  23186872.801      507516.488 5    390239.211 5
  22816141.801    -6077284.909 4  -4389123.534 2
  23029074.981    -4200463.547 5  -3136057.444 3
 95  2 19  7  2 29.9960000  0  8 16 20  5  6 17 24 26 23
  20579828.582    -2569076.723 7  -1960523.303 8
  20137010.855    -2333282.813 7  -1739345.826 9
  22047395.645     2215390.247 5   1714971.181 5
  19366508.801    -9433033.122 7  -7162348.312 9
  21065668.793   -11358350.022 6  -8626800.725 7
  23187799.613      512367.881 5    394019.513 5
  22788105.512    -6224596.903 4  -4503912.073 2
  22996019.934    -4374185.473 4  -3271425.221 4
 95  2 19  7  2 59.9960000  0  8 16 20  5  6 17 24 26 23
  20578037.590    -2578489.067 7  -1967857.598 8
  20135863.566    -2339324.772 7  -1744053.845 9
  22054110.027     2250676.513 5   1742466.969 5
  19347172.527    -9534651.970 7  -7241531.833 9
  21041627.215   -11484685.884 6  -8725244.259 7
  23188714.551      517180.485 5    397769.569 5
  22760097.504    -6371797.478 4  -4618613.828 3
  22962987.637    -4547771.793 4  -3406687.263 5
 95  2 19  7  3 29.9960000  0  8 16 20  5  6 17 24 26 23
  20576332.324    -2587443.950 7  -1974835.424 8
  20134803.793    -2344898.112 7  -1748396.705 9
  22060853.332     2286113.565 5   1770080.262 5
  19327894.645    -9635951.576 7  -7320466.586 9
  21017626.934   -11610809.247 6  -8823522.210 7
  23189623.871      521947.921 5    401484.436 5
  22732110.168    -6518879.035 5  -4733222.800 4
  22929978.457    -4721222.903 4  -3541843.999 4
 95  2 19  7  3 59.9960000  0  8 16 20  5  6 17 24 26 23
  20574715.957    -2595947.328 7  -1981461.437 8
  20133830.238    -2350010.541 7  -1752380.421 9
  22067628.902     2321705.484 5   1797814.213 5
  19308678.965    -9736935.073 7  -7399155.029 9
  20993667.465   -11736708.765 6  -8921625.735 7
  23190520.082      526671.714 5    405165.301 5
  22704140.606    -6665839.078 4  -4847737.100 4
  22896995.895    -4894532.224 4  -3676890.234 5
 95  2 19  7  4 29.9960000  0  8 16 20  5  6 17 24 26 23
  20573182.145    -2604009.877 7  -1987743.944 8
  20132946.621    -2354651.353 7  -1755996.651 9
  22074428.527     2357437.466 5   1825657.299 5
  19289522.684    -9837604.078 7  -7477598.408 9
  20969753.660   -11862376.643 6  -9019548.763 7
  23191412.457      531358.010 5    408816.919 5
  22676201.543    -6812669.627 4  -4962150.522 5
  22864046.941    -5067700.200 5  -3811826.321 5
 95  2 19  7  4 59.9960000  0  8 16 20  5  6 17 24 26 23
  20571731.035    -2611631.329 7  -1993682.733 9
  20132151.059    -2358824.298 7  -1759248.292 9
  22081250.121     2393301.492 5   1853603.289 5
  19270423.809    -9937959.558 7  -7555797.486 9
  20945884.309   -11987814.084 6  -9117292.232 7
  23192302.160      536007.719 5    412440.042 5
  22648285.395    -6959385.664 5  -5076474.704 5
  22831123.762    -5240723.851 5  -3946649.949 5
 95  2 19  7  5 29.9960000  0  8 16 20  5  6 17 24 26 23
  20570359.816    -2618828.527 7  -1999290.936 9
  20131445.848    -2362556.579 7  -1762156.569 8
  22088100.262     2429294.473 5   1881649.757 5
  19251386.457   -10038006.064 7  -7633755.801 9
  20922058.160   -12113019.348 6  -9214854.770 7
  23193172.238      540618.276 5    416032.668 5
  22620382.434    -7106001.120 4  -5190720.483 5
  22798220.434    -5413606.835 5  -4081364.003 5
 95  2 19  7  5 59.9960000  0  8 16 20  5  6 17 24 26 23
  20569072.035    -2625603.820 7  -2004570.384 8
  20130816.066    -2365854.624 7  -1764726.479 8
  22094974.066     2465410.429 5   1909792.076 5
  19232406.637   -10137750.057 7  -7711478.393 9
  20898271.809   -12238016.230 6  -9312254.942 7
  23194045.605      545193.180 5    419597.504 5
  22592503.629    -7252518.323 5  -5304889.737 5
  22765345.746    -5586362.464 5  -4215978.775 5
 95  2 19  7  6 29.9960000  0  8 16 20  5  6 17 24 26 23
  20567864.246    -2631959.934 7  -2009523.204 9
  20130269.402    -2368716.616 7  -1766956.609 8
  22101870.918     2501659.636 5   1938038.182 5
  19213486.348   -10237169.093 7  -7788947.765 9
  20874526.965   -12362811.219 6  -9409497.785 7
  23194910.613      549741.035 5    423141.251 5
  22564641.418    -7398920.112 5  -5418969.031 4
  22732500.770    -5758995.472 5  -4350498.037 5
 95  2 19  7  6 59.9950000  0  8 16 20  5  6 17 24 26 23
  20566731.249    -2637898.720 7  -2014150.832 8
  20129807.780    -2371144.296 7  -1768848.307 8
  22108793.694     2538034.541 5   1966382.270 5
  19194629.960   -10336263.615 7  -7866164.274 9
  20850811.187   -12487417.642 6  -9506593.690 7
  23195770.952      554246.912 5    426652.322 5
  22536806.218    -7545201.068 5  -5532954.198 4
  22699664.351    -5931501.189 5  -4484918.080 5
 95  2 19  7  7 29.9950000  0  8 16 20  5  6 17 24 26 23
  20565679.382    -2643436.232 7  -2018465.771 8
  20129434.718    -2373124.215 7  -1770391.099 8
  22115739.069     2574522.772 5   1994814.639 5
  19175832.647   -10435041.263 7  -7943133.877 9
  20827132.616   -12611850.490 6  -9603554.352 7
  23196616.148      558697.642 5    430120.398 5
  22508990.655    -7691369.447 5  -5646851.618 5
  22666867.069    -6103893.150 5  -4619249.488 5
 95  2 19  7  7 59.9950000  0  8 16 20  5  6 17 24 26 23
  20564702.444    -2648571.998 7  -2022467.668 9
  20129141.273    -2374643.292 7  -1771574.796 8
  22122696.194     2611106.392 5   2023321.368 5
  19157098.046   -10533494.706 7  -8019850.844 9
  20803490.968   -12736098.316 6  -9700370.838 7
  23197450.874      563091.736 4    433544.360 5
  22481198.452    -7837418.984 5  -5760656.438 5
  22634084.538    -6276156.023 5  -4753480.279 5
 95  2 19  7  8 29.9950000  0  8 16 20  5  6 17 24 26 23
  20563802.569    -2653299.079 7  -2026151.111 8
  20128939.296    -2375701.602 7  -1772399.459 8
  22129677.288     2647794.019 5   2051909.113 5
  19138426.991   -10631610.444 7  -8096304.660 9
  20779886.616   -12860139.293 6  -9797026.156 7
  23198271.522      567423.556 4    436919.779 5
  22453428.663    -7983347.082 5  -5874366.643 5
  22601327.898    -6448269.321 5  -4887594.533 4
 95  2 19  7  8 59.9950000  0  8 16 20  5  6 17 24 26 23
  20562981.905    -2657602.767 7  -2029504.631 8
  20128825.538    -2376300.025 7  -1772865.760 8
  22136683.640     2684590.430 5   2080581.643 5
  19119818.202   -10729394.833 7  -8172500.289 9
  20756325.663   -12983954.262 6  -9893505.341 7
  23199090.491      571695.852 4    440248.786 5
  22425679.827    -8129158.466 5  -5987985.871 5
  22568606.171    -6620224.590 5  -5021585.671 5
 95  2 19  7  9 29.9950000  0  8 16 20  5  6 17 24 26 23
  20562243.343    -2661490.350 7  -2032533.914 8
  20128793.202    -2376462.799 7
  22143706.944     2721506.466 5   2109347.384 5
  19101275.421   -10826848.474 7  -8248438.190 9
  20732810.671   -13107525.863 6  -9989794.904 7
  23199889.390      575927.700 4    443546.301 5
  22397956.898    -8274861.116 5  -6101520.384 5
  22535912.999    -6792034.935 5  -5155463.870 5
 95  2 19  7  9 59.9950000  0  8 16 20  5  6 17 24 26 23
  20561582.194    -2664958.876 7  -2035236.664 8
  20128846.155    -2376216.168 7
  22150754.507     2758539.623 5   2138204.388 5
  19082793.062   -10923967.901 7  -8324115.659 9
  20709342.257   -13230863.523 6 -10085902.173 7
  23200690.897      580128.929 4    446819.970 5
  22370249.194    -8420452.096 5  -6214967.916 5
  22503246.241    -6963711.183 5  -5289237.570 5
 95  2 19  7 10 29.9950000  0  8 16 20  5  6 17 24 26 23
  20561005.390    -2667999.729 7  -2037606.159 9
  20128965.858    -2375553.502 7  -1772284.055 8
  22157826.718     2795699.053 5   2167159.777 5
  19064375.796   -11020746.783 7  -8399527.773 9
  20685913.843   -13353971.139 6 -10181830.182 7
  23201491.687      584314.174 4    450081.187 5
  22342570.241    -8565924.093 5  -6328322.705 5
  22470607.030    -7135243.988 5  -5422899.517 5
 95  2 19  7 10 59.9950000  0  8 16 20  5  6 17 24 26 23
  20560502.038    -2670631.180 7  -2039656.641 9
  20129175.038    -2374490.857 7  -1771456.028 8
  22164912.812     2832958.170 5   2196192.846 5
  19046021.921   -11117200.802 7  -8474686.744 9
  20662529.968   -13476859.397 6 -10277587.261 7
  23202284.460      588492.034 5    453336.633 4
  22314908.405    -8711268.885 5  -6441578.389 4
  22437991.515    -7306631.494 5  -5556448.235 5
 95  2 19  7 11 29.9950000  0  8 16 20  5  6 17 24 26 23
  20560078.804    -2672872.921 7  -2041403.453 8
  20129446.390    -2373034.876 7  -1770321.500 8
  22172016.304     2870285.177 5   2225278.829 5
  19027730.124   -11213331.157 7  -8549593.515 9
  20639177.054   -13599563.120 6 -10373200.557 7
  23203075.530      592650.916 4    456577.302 5
  22287275.155    -8856476.562 5  -6554727.214 5
  22405406.069    -7477862.614 5  -5689875.076 5
 95  2 19  7 11 59.9950000  0  8 16 20  5  6 17 24 26 23
  20559726.757    -2674712.962 7  -2042837.242 8
  20129803.351    -2371171.894 6  -1768869.822 8
  22179132.327     2907668.721 5   2254408.854 4
  19009499.608   -11309126.696 7  -8624239.390 9
  20615861.226   -13722089.048 6 -10468675.303 7
  23203858.382      596774.765 4    459790.650 5
  22259676.257    -9001517.220 4  -6667745.863 5
  22372852.390    -7648904.569 5  -5823154.574 5
 95  2 19  7 12 29.9950000  0  7 16 20  5  6 17 26 23
  20559454.397    -2676144.497 7  -2043952.735 8
  20130236.890    -2368902.231 6  -1767101.260 8
  22186260.976     2945112.938 5   2283586.187 5
  18991330.718   -11404604.675 7  -8698637.812 9
  20592583.538   -13844423.768 6 -10564001.059 7
  22232111.304    -9146376.782 5  -6780623.433 4
  22340347.023    -7819748.831 5  -5956279.995 5
 95  2 19  7 12 59.9950000  0  7 16 20  5  6 17 26 23
  20559263.640    -2677168.400 7  -2044750.581 8
  20130740.304    -2366238.066 6  -1765025.289 8
  22193396.968     2982619.069 5   2312811.740 5
  18973224.366   -11499756.307 7  -8772781.948 9
  20569343.538   -13966563.724 6 -10659175.050 7
  22204583.358    -9291042.059 5  -6893349.606 4
  22307874.491    -7990402.172 5  -6089256.652 5
 95  2 19  7 13 29.9950000  0  7 16 20  5  6 17 26 23
  20559141.054    -2677781.731 7  -2045228.501 8
  20131326.226    -2363173.082 6  -1762636.990 8
  22200542.163     3020200.857 5   2342096.234 5
  18955180.624   -11594582.066 7  -8846672.143 9
  20546133.218   -14088515.777 6 -10754202.616 7
  22177092.272    -9435519.340 5  -7005929.278 5
  22275436.210    -8160877.090 5  -6222094.298 5
 95  2 19  7 13 59.9950000  0  7 16 20  5  6 17 26 23
  20559108.327    -2677972.873 7
  20131986.601    -2359705.653 6  -1759935.098 8
  22207715.655     3057883.353 5   2371459.196 5
  18937196.179   -11689078.095 7  -8920305.416 9
  20522969.632   -14210247.970 6 -10849058.858 7
  22149634.179    -9579817.215 5  -7118369.175 5
  22243021.718    -8331180.968 5  -6354798.669 5
 95  2 19  7 14 29.9950000  0  7 16 20  5  6 17 26 23
  20559152.022    -2677745.943 7
  20132721.288    -2355824.033 6  -1756910.457 8
  22214905.507     3095671.037 5   2400904.137 4
  18919280.069   -11783227.780 7  -8993668.800 9
  20499848.647   -14331758.695 6 -10943742.524 7
  22122201.077    -9723948.888 5  -7230679.572 5
  22210646.663    -8501317.923 5  -6487372.950 5
 95  2 19  7 14 59.9950000  0  7 16 20  5  6 17 26 23
  20559269.257    -2677122.164 7  -2044714.559 8
  20133542.796    -2351521.968 6  -1753558.209 8
  22222115.812     3133547.998 5   2430418.647 5
  18901437.437   -11877005.412 7  -9066742.271 9
  20476763.085   -14453063.996 6 -11038266.117 7
  22094805.522    -9867920.949 5  -7342865.592 5
  22178306.077    -8671288.459 5  -6619817.550 5
 95  2 19  7 15 29.9950000  0  7 16 20  5  6 17 26 23
  20559460.663    -2676107.045 7  -2043923.561 8
  20134438.687    -2346798.165 6  -1749877.325 8
  22229336.038     3171496.276 5   2459988.720 5
  18883662.304   -11970412.168 7  -9139526.768 8
  20453719.390   -14574163.844 6 -11132629.621 7
  22067438.140   -10011744.106 5  -7454935.556 5
  22145989.468    -8841095.247 5  -6752134.575 5
 95  2 19  7 15 59.9950000  0  7 16 20  5  6 17 26 23
  20559726.390    -2674706.985 7  -2042832.609 8
  20135421.585    -2341653.346 6  -1745868.388 8
  22236565.772     3209493.142 5   2489596.665 4
  18865960.655   -12063431.106 7  -9212009.050 8
  20430713.312   -14695052.142 6 -11226828.275 7
  22040098.054   -10155418.569 5  -7566889.670 4
  22113712.632    -9010735.545 5  -6884321.821 5
 95  2 19  7 16 29.9950000  0  7 16 20  5  6 17 26 23
  20560068.280    -2672930.278 7  -2041448.159 8
  20136479.507    -2336087.783 6  -1741531.589 8
  22243801.679     3247525.762 5   2519232.444 5
  18848332.921   -12156061.664 7  -9284188.714 9
  20407749.397   -14815738.526 6 -11320869.591 7
  22012786.671   -10298933.942 5  -7678719.792 5
  22081462.179    -9180210.722 5  -7016380.424 5
 95  2 19  7 16 59.9950000  0  7 16 20  5  6 17 26 23
  20560474.562    -2670788.274 7  -2039779.059 8
  20137614.030    -2330121.744 6  -1736882.733 8
  22251046.530     3285595.855 5   2548897.443 4
  18830776.249   -12248333.120 7  -9356088.557 8
  20384822.538   -14936214.110 6 -11414746.639 7
  21985506.937   -10442289.388 5  -7790425.314 5
  22049241.702    -9349527.630 5  -7148315.673 5
 95  2 19  7 17 29.9950000  0  7 16 20  5  6 17 26 23
  20560953.702    -2668276.601 7  -2037821.923 8
  20138821.843    -2323764.330 6  -1731928.904 8
  22258304.898     3323719.577 5   2578604.219 4
  18813282.663   -12340257.804 7  -9427718.179 8
  20361940.874   -15056456.903 6 -11508442.311 7
  21958260.429   -10585482.457 5  -7902004.303 4
  22017052.023    -9518683.328 5  -7280125.302 5
 95  2 19  7 17 59.9950000  0  7 16 20  5  6 17 26 23
  20561499.718    -2665400.239 7  -2035580.600 8
  20140105.999    -2317030.012 6  -1726681.390 8
  22265569.187     3361914.842 5   2608366.755 4
  18795852.952   -12431846.291 7  -9499085.833 8
  20339103.499   -15176477.139 6 -11601964.555 7
  21931044.210   -10728496.896 5  -8013444.106 5
  21984892.515    -9687665.330 5  -7411799.576 5
 95  2 19  7 18 29.9940000  0  7 16 20  5  6 17 26 23
  20562117.080    -2662158.337 7  -2033054.451 8
  20141451.994    -2309943.342 6  -1721159.319 8
  22272860.799     3400194.621 5   2638195.113 5
  18778486.986   -12523115.613 7  -9570204.788 8
  20316305.635   -15296269.476 6 -11695309.208 7
  21903869.635   -10871316.465 5  -8124732.054 5
  21952779.760    -9856455.565 5  -7543324.442 5
 95  2 19  7 18 59.9940000  0  7 16 20  5  6 17 26 23
  20562801.775    -2658548.377 7  -2030241.489 7
  20142866.830    -2302514.477 6  -1715370.590 8
  22280162.971     3438559.595 5   2668089.859 4
  18761178.002   -12614064.829 7  -9641074.311 8
  20293555.041   -15415833.845 6 -11788476.232 7
  21876727.158   -11013934.020 5  -8235862.601 5
  21920693.416   -10025035.844 5  -7674685.692 5
 95  2 19  7 19 29.9940000  0  7 16 20  5  6 17 26 23
  20563562.252    -2654554.041 7  -2027129.021 7
  20144348.627    -2294736.512 6  -1709309.846 8
  22287475.143     3477003.000 5   2698045.728 5
  18743938.072   -12704662.768 7  -9711670.109 8
  20270845.557   -15535170.742 6 -11881466.004 7
  21849634.369   -11156313.701 5  -8346807.782 5
  21888661.791   -10193374.937 5  -7805858.999 5
 95  2 19  7 19 59.9940000  0  7 16 20  5  6 17 26 23
  20564400.275    -2650164.287 7  -2023708.437 7
  20145894.143    -2286600.943 6  -1702970.447 8
  22294800.166     3515509.298 5   2728050.606 5
  18726768.455   -12794895.361 7  -9781981.219 8
  20248175.729   -15654289.003 6 -11974285.413 7
  21822589.315   -11298435.062 5  -8457551.679 5
  21856677.244   -10361452.255 5  -7936828.297 5
 95  2 19  7 20 29.9940000  0  7 16 20  5  6 17 26 23
  20565307.854    -2645380.481 7  -2019980.795 7
  20147516.768    -2278092.783 6  -1696340.711 7
  22302131.885     3554055.450 5   2758086.540 5
  18709670.236   -12884747.414 7  -9851995.812 8
  20225551.604   -15773186.644 6 -12066932.923 7
  21795592.518   -11440307.930 5  -8568101.946 5
  21824740.033   -10529278.280 5  -8067601.810 5
 95  2 19  7 20 59.9940000  0  7 16 20  5  6 17 26 23
  20566295.135    -2640209.836 7  -2015951.729 7
  20149208.541    -2269191.424 6  -1689404.588 7
  22309475.697     3592624.095 5   2788140.010 3
  18692646.736   -12974207.611 7  -9921705.062 8
  20202963.564   -15891883.787 6 -12159424.193 7
  21768637.807   -11581945.032 5  -8678468.494 5
  21792848.447   -10696871.442 5  -8198193.854 5
 95  2 19  7 21 29.9940000  0  7 16 20  5  6 17 26 23
  20567346.838    -2634662.596 7  -2011629.201 7
  20150980.635    -2259883.743 6  -1682151.857 7
  22316819.994     3631213.114 4   2818209.322 5
  18675697.322   -13063274.184 7  -9991107.588 8
  20180411.174   -16010398.504 6 -12251773.330 7
  21741727.494   -11723363.971 5  -8788665.047 5
  21760996.025   -10864258.533 5  -8328625.342 5
 95  2 19  7 21 59.9940000  0  7 16 20  5  6 17 26 23
  20568472.877    -2628763.834 7  -2007032.772 7
  20152823.260    -2250183.246 6  -1674593.027 7
  22324168.150     3669814.975 5   2848288.671 4
  18658821.424   -13151957.468 7 -10060211.445 8
  20157895.190   -16128734.301 6 -12343983.040 7
  21714851.002   -11864600.704 5  -8898719.626 5
  21729173.830   -11031470.264 5  -8458920.171 5
 95  2 19  7 22 29.9940000  0  7 16 20  5  6 17 26 23
  20569655.994    -2622529.019 6  -2002174.470 7
  20154745.315    -2240103.308 6  -1666738.537 7
  22331512.635     3708432.535 5   2878380.248 4
  18642017.377   -13240263.376 7 -10129021.252 8
  20135407.025   -16246892.201 6 -12436054.131 8
  21688005.244   -12005668.007 5  -9008642.172 5
  21697387.127   -11198520.571 5  -8589089.223 5
 95  2 19  7 22 59.9940000  0  7 16 20  5  6 17 26 23
  20570905.283    -2615974.329 6  -1997066.926 7
  20156727.830    -2229672.023 6  -1658610.273 7
  22338865.916     3747072.286 5   2908489.092 4
  18625283.908   -13328196.997 7 -10197540.956 8
  20112957.838   -16364867.640 6 -12527983.032 7
  21661197.291   -12146556.199 5  -9118425.163 5
  21665634.088   -11365406.122 5  -8719129.876 5
 95  2 19  7 23 29.9940000  0  7 16 20  5  6 17 26 23
  20572211.213    -2609096.940 6  -1991707.927 7
  20158778.096    -2218906.222 6  -1650221.335 7
  22346221.002     3785742.210 5   2938621.460 4
  18608625.979   -13415739.176 7 -10265755.659 8
  20090545.588   -16482638.263 6 -12619752.356 7
  21634426.807   -12287243.365 5  -9228051.507 5
  21633906.994   -11532116.678 5  -8849034.171 6
 95  2 19  7 23 59.9940000  0  7 16 20  5  6 17 26 23
  20573589.643    -2601876.920 7  -1986081.935 7
  20160886.986    -2207806.955 6  -1641572.564 7
  22353585.354     3824452.533 4   2968785.311 5
  18592042.268   -13502874.517 7 -10333653.321 8
  20068179.229   -16600184.092 6 -12711346.506 7
  21607696.111   -12427698.333 5  -9337496.928 5
  21602222.119   -11698627.996 5  -8978783.211 6
 95  2 19  7 24 29.9940000  0  7 16 20  5  6 17 26 23
  20575027.072    -2594300.421 7  -1980178.181 7
  20163066.518    -2196365.538 6  -1632657.175 7
  22360966.369     3863206.286 4   2998982.995 1
  18575541.713   -13589593.125 7 -10401226.265 8
  20045855.432   -16717508.262 6 -12802767.931 7
  21581017.408   -12567897.848 5  -9446743.275 5
  21570576.252   -11864921.767 5  -9108362.727 5
 95  2 19  7 24 59.9940000  0  7 16 20  5  6 17 26 23
  20576541.635    -2586361.648 7  -1973992.122 7
  20165308.768    -2184581.481 6  -1623474.797 7
  22368349.908     3902003.341 5   3029214.418 3
  18559118.549   -13675900.133 7 -10468478.479 8
  20023572.111   -16834605.926 6 -12894012.855 7
  21554385.408   -12707841.931 5  -9555790.590 5
  21538972.869   -12030994.135 5  -9237769.740 5
 95  2 19  7 25 29.9940000  0  7 16 20  5  6 17 26 23
  20578119.440    -2578051.799 7  -1967516.918 7
  20167618.744    -2172449.276 6  -1614021.131 7
  22375737.143     3940824.196 5   3059464.412 2
  18542770.197   -13761804.845 7 -10535417.218 8
  20001331.244   -16951486.303 7 -12985088.476 8
  21527804.643   -12847539.280 5  -9664645.640 5
  21507413.182   -12196843.650 5  -9367003.091 5
 95  2 19  7 25 59.9940000  0  7 16 20  5  6 17 26 23
  20579769.229    -2569387.491 7  -1960765.509 7
  20169990.260    -2159973.656 6  -1604299.870 7
  22383134.994     3979652.770 5   3089720.426 1
  18526495.150   -13847338.042 7 -10602066.467 8
  19979124.229   -17068161.855 6 -13076004.487 8
  21501262.182   -12987008.136 5  -9773322.645 5
  21475895.158   -12362464.092 5  -9496057.927 6
 95  2 19  7 26 29.9940000  0  7 16 20  5  6 17 26 23
  20581481.533    -2560390.039 6  -1953754.513 7
  20172432.080    -2147158.402 6  -1594313.965 7
  22390512.697     4018482.279 5   3119977.177 3
  18510285.893   -13932514.577 7 -10668437.796 8
  19956964.635   -17184630.990 7 -13166759.649 8
  21474768.150   -13126253.046 5  -9881825.162 5
  21444422.408   -12527856.076 5  -9624934.753 6
 95  2 19  7 26 59.9940000  0  7 16 20  5  6 17 26 23
  20583257.861    -2551062.378 6  -1946486.206 7
  20174934.986    -2133988.595 6  -1584051.782 7
  22397902.018     4057317.528 5   3150238.392 3
  18494145.900   -14017330.131 7 -10734527.839 8
  19934842.565   -17300884.652 6 -13257346.908 8
  21448315.971   -13265251.583 5  -9990135.689 5
  21412997.041   -12692999.011 5  -9753617.517 6
 95  2 19  7 27 29.9940000  0  7 16 20  5  6 17 26 23
  20585088.408    -2541427.465 6  -1938978.485 7
  20177513.041    -2120460.850 6  -1573510.688 7
  22405290.424     4096151.339 4   3180498.474 3
  18478076.815   -14101777.738 7 -10800331.167 8
  19912757.033   -17416937.211 7 -13347777.453 8
  21421912.174   -13403997.341 5 -10098249.249 5
  21381622.979   -12857891.440 5  -9882105.082 6
 95  2 19  7 27 59.9940000  0  7 16 20  5  6 17 26 23
  20586981.807    -2531493.355 6  -1931237.619 8
  20180151.150    -2106573.404 6  -1562689.297 7
  22412689.939     4135002.649 4   3210772.197 3
  18462077.424   -14185852.402 7 -10865843.898 8
  19890713.346   -17532783.073 7 -13438046.942 8
  21395559.822   -13542481.911 5 -10206159.275 5
  21350292.260   -13022521.589 5 -10010388.268 6
 95  2 19  7 28 29.9940000  0  7 16 20  5  6 17 26 23
  20588928.057    -2521256.074 6  -1923260.525 8
  20182866.205    -2092326.328 6  -1551587.690 7
  22420092.018     4173880.966 5   3241066.970 4
  18446149.994   -14269547.501 7 -10931060.864 8
  19868705.697   -17648427.298 6 -13528159.309 8
  21369261.572   -13680696.547 5 -10313858.961 5
  21319011.650   -13186899.324 5 -10138474.768 6
 95  2 19  7 28 59.9940000  0  7 16 20  5  6 17 26 23
  20590938.783    -2510703.347 6  -1915037.627 8
  20185642.588    -2077734.245 6  -1540217.237 7
  22427491.236     4212782.926 5   3271380.166 3
  18430299.119   -14352846.577 7 -10995969.236 8
  19846737.221   -17763870.007 6 -13618114.653 8
  21343007.775   -13818644.084 5 -10421350.520 5
  21287782.338   -13351022.740 6 -10266363.104 6
 95  2 19  7 29 29.9930000  0  7 16 20  5  6 17 26 23
  20593007.552    -2499827.297 6  -1906562.791 7
  20188480.653    -2062825.209 6  -1528599.811 7
  22434892.333     4251699.765 5   3301704.962 4
  18414525.169   -14435740.194 7 -11060561.673 8
  19824809.692   -17879105.150 7 -13707908.260 8
  21316808.856   -13956329.553 5 -10528637.876 5
  21256592.341   -13514908.575 6 -10394066.315 6
 95  2 19  7 29 59.9930000  0  7 16 20  5  6 17 26 23
  20595140.771    -2488606.978 6  -1897819.678 7
  20191376.536    -2047615.855 6  -1516748.374 7
  22442304.560     4290631.010 4   3332041.011 3
  18398827.544   -14518227.412 7 -11124837.433 8
  19802921.224   -17994133.663 6 -13797540.846 8
  21290654.599   -14093749.288 5 -10635718.162 5
  21225448.661   -13678574.545 6 -10521598.195 6
 95  2 19  7 30 29.9930000  0  7 16 20  5  6 17 26 23
  20597345.114    -2477034.267 6  -1888801.991 7
  20194322.810    -2032111.812 6  -1504667.309 7
  22449706.278     4329562.638 3   3362377.364 2
  18383215.646   -14600282.663 7 -11188776.585 8
  19781070.208   -18108947.665 6 -13887006.276 8
  21264560.981   -14230887.998 5 -10742579.460 5
  21194346.849   -13842018.447 6 -10648957.038 6
 95  2 19  7 30 59.9930000  0  7 16 20  5  6 17 26 23
  20599611.896    -2465110.699 6  -1879510.903 7
  20197328.606    -2016327.536 6  -1492367.878 7
  22457111.810     4368464.130 3   3392690.207 3
  18367683.802   -14681897.125 7 -11252372.280 8
  19759265.474   -18223543.482 7 -13976301.691 8
  21238516.528   -14367742.924 5 -10849219.636 5
  21163287.458   -14005238.662 5 -10776141.573 6
 95  2 19  7 31 29.9930000  0  7 16 20  5  6 17 26 23
  20601949.427    -2452847.148 6  -1869954.890 7
  20200385.646    -2000259.729 6  -1479847.512 7
  22464504.763     4407329.863 3   3422975.215 3
  18352234.958   -14763076.119 7 -11315628.647 8
  19737495.903   -18337935.193 6 -14065438.063 8
  21212529.505   -14504323.195 5 -10955645.809 5
  21132266.935   -14168239.794 6 -10903155.395 6
 95  2 19  7 31 59.9930000  0  7 16 20  5  6 17 26 23
  20604340.192    -2440263.739 6  -1860149.642 7
  20203500.536    -1983898.480 6  -1467098.490 7
  22471905.700     4446158.794 3   3453231.549 3
  18336870.083   -14843820.266 7 -11378546.161 8
  19715767.224   -18452126.305 6 -14154418.116 8
  21186588.724   -14640632.032 5 -11061860.465 6
  21101297.083   -14330998.349 6 -11029980.198 6
 95  2 19  7 32 29.9930000  0  7 16 20  5  6 17 26 23
  20606795.481    -2427372.641 6  -1850104.634 7
  20206669.224    -1967230.902 6  -1454110.763 7
  22479276.200     4484942.955 3   3483452.963 3
  18321585.794   -14924135.996 7 -11441129.850 8
  19694075.294   -18566120.836 6 -14243245.004 8
  21160702.052   -14776675.153 5 -11167868.058 5
  21070374.638   -14493504.057 6 -11156607.995 6
 95  2 19  7 32 59.9930000  0  7 16 20  5  6 17 26 23
  20609301.677    -2414182.566 6  -1839826.661 7
  20209900.208    -1950253.608 6  -1440881.709 7
  22486646.513     4523687.485 3   3513643.491 4
  18306380.661   -15004041.811 7 -11503394.132 8
  19672417.083   -18679936.264 7 -14331932.324 8
  21134864.185   -14912452.478 5 -11273668.543 6
  21039497.255   -14655755.651 6 -11283037.770 6
 95  2 19  7 33 29.9930000  0  7 16 20  5  6 17 26 23
  20611871.208    -2400702.683 6  -1829322.855 7
  20213192.810    -1932957.174 6  -1427403.976 7
  22494020.396     4562414.494 4   3543820.428 5
  18291251.286   -15083544.933 7 -11565344.623 8
  19650791.169   -18793571.925 7 -14420479.569 8
  21109079.856   -15047953.014 5 -11379253.346 5
  21008672.513   -14817750.273 6 -11409267.303 6
 95  2 19  7 33 59.9930000  0  7 16 20  5  6 17 26 23
  20614490.106    -2386931.490 6  -1818592.061 7
  20216544.817    -1915338.621 6  -1413675.229 6
  22501380.169     4601123.845 3   3573983.590 2
  18276197.481   -15162657.760 7 -11626990.989 8
  19629202.677   -18907015.380 6 -14508877.034 8
  21083354.044   -15183151.164 6 -11484602.532 5
  20977890.692   -14979492.868 6 -11535300.447 6
 95  2 19  7 34 29.9930000  0  7 16 20  5  6 17 26 23
  20617165.630    -2372865.948 6  -1807631.902 7
  20219956.989    -1897403.666 6  -1399699.950 7
  22508752.341     4639815.567 3   3604132.996 2
  18261216.575   -15241389.743 7 -11688340.588 8
  19607653.521   -19020258.960 6 -14597118.765 8
  21057681.872   -15318042.539 5 -11589712.669 5
  20947157.919   -15140993.832 6 -11661145.320 6
 95  2 19  7 34 59.9930000  0  7 16 20  5  6 17 26 23
  20619897.966    -2358513.547 6  -1796448.214 7
  20223429.786    -1879160.863 6  -1385484.776 6
  22516110.927     4678492.445 3   3634270.869 1
  18246306.872   -15319731.414 7 -11749386.054 8
  19586146.388   -19133286.472 6 -14685192.120 8
  21032072.106   -15452624.641 5 -11694581.821 5
  20916474.786   -15302244.173 6 -11786794.917 6
 95  2 19  7 35 29.9930000  0  7 16 20  5  6 17 26 23
  20622681.685    -2343884.422 6  -1785048.902 7
  20226955.208    -1860627.076 6  -1371042.861 6
  22523466.841     4717134.720 3   3664381.801 2
  18231474.317   -15397678.549 7 -11810124.094 8
  19564681.200   -19246085.730 7 -14773087.618 8
  21006518.060   -15586914.303 5 -11799223.099 5
  20885837.935   -15463250.290 6 -11912254.199 6
 95  2 19  7 35 59.9930000  0  8 16 20  5  6 17 22 26 23
  20625517.013    -2328978.833 6  -1773434.156 7
  20230538.880    -1841809.145 6  -1356379.541 6
  22530809.630     4755734.844 4   3694459.881 2
  18216720.521   -15475213.001 7 -11870540.551 8
  19543259.567   -19358653.843 7 -14860803.007 8
  22634943.458          -0.61713
  20981015.060   -15720924.525 5 -11903646.609 5
  20855248.239   -15623996.396 6 -12037510.864 6
 95  2 19  7 36 29.9930000  0  8 16 20  5  6 17 22 26 23
  20628408.958    -2313795.875 6  -1761603.276 7
  20234167.981    -1822723.136 6  -1341507.341 6
  22538144.575     4794290.214 4   3724503.095 1
  18202051.114   -15552304.453 7 -11930611.821 8
  19521881.560   -19470988.360 7 -14948336.370 8
  22608173.153     -140717.111 3        -0.13913
  20955567.919   -15854663.175 5 -12007858.512 5
  20824710.927   -15784465.461 6 -12162551.663 6
 95  2 19  7 36 59.9930000  0  8 16 20  5  6 17 22 26 23
  20631351.294    -2298319.164 6  -1749543.506 7
  20237853.013    -1803371.264 6  -1326427.973 6
  22545470.146     4832805.081 4   3754514.757 1
  18187466.021   -15628941.855 7 -11990329.284 8
  19500547.185   -19583102.000 7 -15035697.621 8
  22581468.505     -281040.934 4   -109343.396 3
  20930170.599   -15988120.280 6 -12111851.030 6
  20794231.146   -15944651.294 6 -12287371.761 6
 95  2 19  7 37 29.9930000  0  8 16 20  5  6 17 22 26 23
  20634358.325    -2282532.618 6  -1737242.304 7
  20241585.286    -1783757.365 6  -1311144.419 6
  22552800.146     4871293.150 5   3784505.527 1
  18172968.825   -15705127.342 7 -12049694.609 8
  19479255.599   -19695003.456 7 -15122893.531 8
  22554842.310     -420961.879 3   -218372.730 3
  20904832.888   -16121278.054 6 -12215610.312 6
  20763800.755   -16104552.563 6 -12411970.122 6
 95  2 19  7 37 59.9930000  0  8 16 20  5  6 17 22 26 23
  20637417.466    -2266451.603 6  -1724711.648 7
  20245363.567    -1763895.002 6  -1295667.257 6
  22560118.099     4909750.798 5   3814472.621 1
  18158553.153   -15780880.615 7 -12108723.133 8
  19457996.794   -19806715.308 7 -15209941.689 8
  22528292.849     -560503.871 4   -327106.781 4
  20879550.911   -16254116.530 6 -12319120.796 6
  20733425.271   -16264173.196 6 -12536349.806 6
 95  2 19  7 38 29.9930000  0  8 16 20  5  6 17 22 26 23
  20640532.536    -2250072.881 6  -1711949.012 7
  20249186.278    -1743780.125 6  -1279993.339 6
  22567422.888     4948168.910 4   3844408.884 1
  18144217.731   -15856223.124 7 -12167431.589 8
  19436771.630   -19918247.740 7 -15296850.049 8
  22501807.880     -699670.017 3   -435547.946 4
  20854338.716   -16386623.452 5 -12422372.908 6
  20703103.677   -16423519.194 6 -12660515.494 6
 95  2 19  7 38 59.9930000  0  8 16 20  5  6 17 22 26 23
  20643704.638    -2233409.825 6  -1698964.816 7
  20253070.271    -1723402.326 6  -1264114.534 6
  22574729.661     4986550.011 3   3874316.301 1
  18129954.302   -15931170.836 7 -12225832.410 8
  19415581.036   -20029609.070 7 -15383625.075 8
  22475399.036     -838462.078 3   -543697.620 4
  20829186.153   -16518789.799 6 -12525359.644 6
  20672832.599   -16582591.818 6 -12784468.166 6
 95  2 19  7 39 29.9930000  0  7 16 20  6 17 22 26 23
  20646925.489    -2216477.656 6  -1685770.915 7
  20257000.450    -1702752.544 6  -1248023.806 6
  18115769.685   -16005708.813 7 -12283913.956 8
  19394427.669   -20140780.799 7 -15470252.363 8
  22449055.122     -976875.318 3   -651552.099 2
  20804103.981   -16650611.902 5 -12628078.128 6
  20642615.442   -16741390.945 6 -12908207.713 7
 95  2 19  7 39 59.9930000  0  7 16 20  6 17 22 26 23
  20650195.888    -2199302.130 6  -1672387.391 7
  20260979.106    -1681829.800 6  -1231720.377 6
  18101663.919   -16079834.842 7 -12341674.501 8
  19373305.356   -20251775.129 7 -15556741.430 8
  22422785.364    -1114921.760 3   -759120.758 3
  20779077.872   -16782118.987 5 -12730551.155 6
  20612445.935   -16899934.720 6 -13031748.291 6
 95  2 19  7 40 29.9930000  0  7 16 20  6 17 22 26 23
  20653509.528    -2181878.274 6  -1658810.362 7
  20265015.497    -1660630.384 6  -1215201.368 6
  18087641.997   -16153519.593 7 -12399091.196 8
  19352220.083   -20362584.372 7 -15643086.265 8
  22396587.974    -1252586.252 4   -866391.809 4
  20754112.271   -16913315.891 6 -12832782.482 6
  20582324.146   -17058219.702 6 -13155087.214 6
 95  2 19  7 40 59.9920000  0  7 16 20  6 17 22 26 23
  20656871.258    -2164221.776 6  -1645052.057 6
  20269099.477    -1639157.767 6  -1198469.462 6
  18073708.797   -16226739.020 7 -12456145.301 8
  19331170.234   -20473184.852 7 -15729268.438 8
  22370467.508    -1389852.506 4   -973352.543 4
  20729206.875   -17044186.904 6 -12934759.863 6
  20552252.758   -17216242.439 6 -13278221.788 6
 95  2 19  7 41 29.9920000  0  7 16 20  6 17 22 26 23
  20660275.266    -2146331.517 6  -1631111.589 7
  20273239.656    -1617421.985 6  -1181532.502 6
  18059865.367   -16299493.596 7 -12512837.190 8
  19310164.078   -20583580.283 7 -15815290.822 8
  22344420.008    -1526734.189 4  -1080013.611 4
  20704364.539   -17174738.262 6 -13036488.169 6
  20522230.070   -17374015.193 6 -13401161.583 7
 95  2 19  7 41 59.9920000  0  7 16 20  6 17 22 26 23
  20663725.969    -2128201.916 6  -1616984.637 7
  20277419.328    -1595437.239 6  -1164401.542 6
  18046109.539   -16371786.335 7 -12569169.201 8
  19289196.344   -20693760.254 7 -15901145.329 8
  22318447.375    -1663223.459 4  -1186368.893 4
  20679588.570   -17304941.217 5 -13137944.984 6
  20492258.063   -17531511.606 6 -13523886.037 7
 95  2 19  7 42 29.9920000  0  7 16 20  6 17 22 26 23
  20667219.750    -2109831.481 6  -1602670.008 6
  20281648.055    -1573227.256 6  -1147095.069 6
  18032434.094   -16443638.401 7 -12625157.827 8
  19268275.141   -20803717.374 7 -15986826.175 8
  22292547.734    -1799328.234 5  -1292424.586 3
  20654877.695   -17434781.515 5 -13239119.211 6
  20462344.336   -17688715.185 6 -13646382.312 7
 95  2 19  7 42 59.9920000  0  7 16 20  6 17 22 26 23
  20670764.266    -2091211.164 6  -1588160.679 6
  20285915.578    -1550795.020 6  -1129615.419 6
  18018843.148   -16515065.121 7 -12680815.022 8
  19247392.008   -20913447.836 7 -16072330.411 8
  22266723.570    -1935057.473 5  -1398187.643 2
  20630238.281   -17564261.875 6 -13340012.971 6
  20432482.742   -17845624.467 6 -13768649.258 6
 95  2 19  7 43 29.9920000  0  7 16 20  6 17 22 26 23
  20674358.703    -2072323.470 6  -1573442.993 6
  20290224.078    -1528153.258 6  -1111972.504 6
  18005330.672   -16586070.730 7 -12736144.074 8
  19226551.930   -21022969.902 7 -16157672.263 8
  22240963.844    -2070409.966 5  -1503657.118 3
  20605670.000   -17693383.129 5 -13440626.904 6
  20402687.258   -18002222.790 6 -13890673.916 6
 95  2 19  7 43 59.9920000  0  7 16 20  6 17 22 26 23
  20678004.336    -2053160.901 6  -1558511.120 6
  20294574.469    -1505292.620 6  -1094159.030 6
  17991899.836   -16656653.535 7 -12791143.670 8
  19205748.031   -21132291.710 7 -16242858.065 8
  22215281.477    -2205374.658 5  -1608824.406 3
  20581165.398   -17822154.949 6 -13540968.556 6
  20372946.484   -18158500.738 6 -14012448.930 6
 95  2 19  7 44 29.9920000  0  7 16 20  6 17 22 26 23
  20681705.266    -2033709.192 6  -1543353.951 6
  20298972.102    -1482184.211 6  -1076152.492 6
  17978552.844   -16726796.184 7 -12845800.284 8
  19184981.844   -21241417.374 7 -16327891.031 8
  22189672.414    -2339939.721 5  -1713680.322 3
  20556725.055   -17950581.562 6 -13641041.218 6
  20343267.797   -18314463.770 6 -14133978.549 7
 95  2 19  7 44 59.9920000  0  7 16 20  6 17 22 26 23
  20685458.414    -2013975.824 6  -1527977.305 6
  20303418.180    -1458833.003 6  -1057956.745 6
  17965289.125   -16796491.736 7 -12900108.516 8
  19164251.523   -21350362.757 7 -16412783.522 8
  22164145.266    -2474089.516 5  -1818212.636 3
  20532351.570   -18078671.831 6 -13740851.786 6
  20313645.641   -18470130.586 6 -14255277.349 7
 95  2 19  7 45 29.9920000  0  7 16 20  6 17 22 26 23
  20689266.570    -1993980.683 6  -1512396.673 6
  20307906.773    -1435231.519 6  -1039565.987 6
  17952112.563   -16865738.288 7 -12954066.868 8
  19143554.156   -21459118.464 7 -16497528.201 8
  22138697.984    -2607788.493 5  -1922393.667 2
  20508045.023   -18206414.618 6 -13840391.588 6
  20284080.758   -18625494.292 6 -14376339.958 7
 95  2 19  7 45 59.9920000  0  7 16 20  6 17 22 26 23
  20693118.750    -1973745.095 6  -1496628.687 6
  20312446.016    -1411374.092 6  -1020975.795 6
  17939022.531   -16934532.179 7 -13007672.504 8
  19122896.047   -21567677.047 7 -16582119.298 8
  22113346.648    -2741031.882 5  -2026219.685 2
  20483799.750   -18333812.840 6 -13939662.911 6
  20254571.078   -18780568.293 6 -14497176.829 7
 95  2 19  7 46 29.9920000  0  7 16 20  6 17 22 26 23
  20697009.719    -1953290.719 6  -1480690.207 6
  20317030.422    -1387288.291 6  -1002207.638 6
  17926014.703   -17002881.186 7 -13060931.486 8
  19102278.852   -21676032.497 7 -16666552.107 8
  22088075.438    -2873816.683 4  -2129688.373 3
  20459621.180   -18460859.729 6 -14038660.464 6
  20225113.078   -18935369.361 6 -14617801.018 7
 95  2 19  7 46 59.9920000  0  7 16 20  6 17 22 26 23
  20700940.680    -1932636.422 6  -1464595.957 6
  20321652.047    -1362996.722 6   -983279.138 6
  17913096.734   -17070773.982 7 -13113834.972 8
  19081696.524   -21784184.955 7 -16750826.737 8
  22062900.625    -3006136.756 5  -2232794.942 3
  20435513.313   -18587549.172 6 -14137379.496 6
  20195711.148   -19089888.974 6 -14738205.895 7
 95  2 19  7 47 29.9920000  0  7 16 20  6 17 22 26 23
  20704904.883    -1911790.388 6  -1448352.295 6
  20326315.406    -1338501.897 6   -964192.266 6
  17900261.867   -17138208.530 7 -13166381.384 8
  19061154.828   -21892142.384 7 -16834949.391 8
  22037802.695    -3138030.053 5  -2335568.927 3
  20411475.461   -18713873.964 6 -14235814.381 6
  20166361.234   -19244125.938 6 -14858390.522 7
 95  2 19  7 47 59.9920000  0  7 16 20  6 17 22 26 23
  20708911.391    -1890747.624 6  -1431955.338 6
  20331010.891    -1313824.031 6   -944962.756 6
  17887519.055   -17205182.536 7 -13218568.931 8
  19040640.938   -21999922.614 7 -16918933.975 8
  22012779.648    -3269535.411 5  -2438040.648 4
  20387505.203   -18839833.083 6 -14333964.322 6
  20137064.352   -19398081.122 6 -14978355.592 7
 95  2 19  7 48 29.9920000  0  7 16 20  6 17 22 26 23
  20712956.133    -1869496.295 6  -1415395.868 6
  20335738.164    -1288972.471 6   -925597.898 6
  17874858.430   -17271703.891 7 -13270403.751 8
  19020167.227   -22107527.947 7 -17002782.276 8
  21987823.672    -3400659.634 4  -2540215.365 2
  20363612.391   -18965408.430 6 -14431815.217 6
  20107820.352   -19551749.012 6 -15098096.798 7
 95  2 19  7 48 59.9920000  0  7 16 20  6 17 22 26 23
  20717040.570    -1848024.540 6  -1398664.639 6
  20340506.570    -1263926.253 6   -906081.371 6
  17862286.953   -17337767.426 7 -13321881.836 8
  18999724.906   -22214953.529 7 -17086490.495 9
  21962941.852    -3531408.124 4  -2642097.307 2
  20339789.297   -19090587.039 6 -14529356.958 6
  20078635.523   -19705113.863 6 -15217601.854 7
 95  2 19  7 49 29.9920000  0  7 16 20  6 17 22 26 23
  20721166.781    -1826333.793 6  -1381762.759 6
  20345311.039    -1238679.330 6   -886408.438 6
  17849798.164   -17403400.147 7 -13373024.216 8
  18979318.266   -22322187.547 7 -17170049.459 9
  21938141.367    -3661780.935 4  -2743686.508 2
  20316046.875   -19215366.014 6 -14626587.303 6
  20049511.031   -19858165.159 6 -15336862.585 7
 95  2 19  7 49 59.9920000  0  7 16 20  6 17 22 26 23
  20725337.008    -1804434.468 6  -1364698.353 6
  20350149.508    -1213240.584 6   -866586.046 6
  17837390.094   -17468605.909 7 -13423833.918 8
  18958949.875   -22429220.121 7 -17253451.453 9
  21913405.774    -3791743.285 4  -2844955.876 2
  20292375.820   -19339751.012 6 -14723510.657 6
  20020447.766   -20010895.412 6 -15455873.155 7
 95  2 19  7 50 29.9920000  0  7 16 20  6 17 22 26 23
  20729542.820    -1782317.779 6  -1347464.574 6
  20355027.391    -1187593.731 6   -846601.481 6
  17825066.195   -17533376.993 7 -13474304.896 8
  18938619.758   -22536048.016 7 -17336693.953 8
  21888757.211    -3921266.493 4  -2945883.035 2
  20268778.758   -19463740.907 6 -14820126.138 6
  19991446.656   -20163298.344 6 -15574628.663 7
 95  2 19  7 50 59.9920000  0  7 16 20  6 17 22 26 23
  20733791.367    -1759994.982 6  -1330070.177 6
  20359950.164    -1161748.144 6   -826462.068 6
  17812822.922   -17597701.476 7 -13524427.876 8
  18918330.008   -22642678.800 7 -17419782.865 8
  21864198.602    -4050352.704 5  -3046469.689 2
  20245256.883   -19587358.022 6 -14916451.146 6
  19962508.500   -20315372.370 6 -15693127.876 7
 95  2 19  7 51 29.9920000  0  7 16 20  6 17 22 26 23
  20738079.742    -1737464.769 6  -1312514.178 6
  20364904.336    -1135707.760 6   -806170.874 6
  17800672.508   -17661564.446 7 -13574191.235 8
  18898075.375   -22749115.346 7 -17502720.417 9
  21839717.805    -4178995.550 4  -3146710.900 4
  20221805.672   -19710604.835 6 -15012487.611 6
  19933631.141   -20467113.216 6 -15811367.475 7
 95  2 19  7 51 59.9910000  0  7 16 20  6 17 22 26 23
  20742411.894    -1714709.661 6  -1294782.919 6
  20369894.316    -1109478.650 6   -785732.616 6
  17788611.433   -17724948.942 7 -13623581.757 8
  18877855.370   -22855364.985 7 -17585512.334 9
  21815320.722    -4307188.046 4  -3246601.154 3
  20198424.378   -19833475.703 6 -15108231.131 6
  19904818.566   -20618528.609 6 -15929353.480 7
 95  2 19  7 52 29.9910000  0  7 16 20  6 17 22 26 23
  20746783.909    -1691719.233 6  -1276868.306 6
  20374922.823    -1083052.061 6   -765140.472 5
  17776640.308   -17787853.555 7 -13672598.350 8
  18857671.675   -22961437.085 7 -17668165.911 9
  21791005.019    -4434948.835 4  -3346155.021 3
  20175113.331   -19955971.277 6 -15203682.219 6
  19876063.995   -20769633.668 6 -16047097.658 7
 95  2 19  7 52 59.9910000  0  7 16 20  6 17 22 26 23
  20751200.753    -1668519.721 6  -1258790.767 6
  20379988.284    -1056447.783 6   -744409.871 5
  17764756.972   -17850293.826 7 -13721253.106 8
  18837522.800   -23067321.882 7 -17750673.536 9
  21766774.315    -4562285.047 4  -3445378.035 5
  20151875.862   -20078088.492 6 -15298838.469 6
  19847370.714   -20920433.038 6 -16164603.630 7
 95  2 19  7 53 29.9910000  0  7 16 20  6 17 22 26 23
  20755651.776    -1645112.664 6  -1240551.505 6
  20385086.581    -1029661.874 6   -723537.739 5
  17752961.417   -17912282.296 7 -13769555.816 8
  18817412.636   -23173017.750 7 -17833033.958 9
  21742625.034    -4689184.890 4  -3544261.023 4
  20128709.487   -20199812.894 6 -15393688.645 6
  19818730.706   -21070928.944 6 -16281873.144 7
 95  2 19  7 53 59.9910000  0  7 16 20  6 17 22 26 23
  20760146.886    -1621502.664 6  -1222154.099 6
  20390213.558    -1002698.302 6   -702527.169 6
  17741252.026   -17973819.372 7 -13817506.789 8
  18797332.745   -23278520.805 7 -17915244.105 9
  21718564.730    -4815638.839 5  -3642796.571 4
  20105626.855   -20321131.328 6 -15488222.476 6
  19790149.878   -21221123.810 6 -16398908.085 7
 95  2 19  7 54 29.9910000  0  7 16 20  6 17 22 26 23
  20764675.183    -1597715.107 6  -1203618.353 6
  20395376.706     -975558.082 6   -681378.960 6
  17729626.323   -18034901.878 7 -13865103.550 8
  18777295.026   -23383825.682 7 -17997299.841 9
  21694583.284    -4941654.982 4  -3740990.968 4
  20082619.112   -20442043.935 6 -15582440.070 6
  19761623.323   -21371022.700 6 -16515712.398 7
 95  2 19  7 54 59.9910000  0  7 16 20  6 17 22 26 23
  20769234.089    -1573745.238 6  -1184940.522 6
  20400577.534     -948248.167 6   -660098.523 5
  17718090.917   -18095524.494 7 -13912341.953 8
  18757295.511   -23488926.166 7 -18079196.301 9
  21670690.503    -5067236.507 5  -3838846.689 5
  20059687.003   -20562545.758 6 -15676337.572 6
  19733156.487   -21520612.682 6 -16632276.001 7
 95  2 19  7 55 29.9910000  0  7 16 20  6 17 22 26 23
  20773830.542    -1549587.181 6  -1166116.069 6
  20405804.909     -920770.550 6   -638687.408 6
  17706646.378   -18155670.242 7 -13959208.775 8
  18737332.487   -23593827.161 7 -18160937.333 9
  21646876.261    -5192378.603 5  -3936360.006 5
  20036835.589   -20682632.044 6 -15769911.285 6
  19704752.941   -21669889.953 6 -16748595.932 7
 95  2 19  7 55 59.9910000  0  7 16 20  6 17 22 26 23
  20778464.011    -1525238.146 6  -1147142.804 6
  20411063.495     -893134.442 6   -617152.780 5
  17695293.128   -18215332.714 7 -14005699.019 8
  18717410.566   -23698518.072 7 -18242514.652 9
  21623144.011    -5317083.264 5  -4033532.472 4
  20014062.542   -20802297.988 6 -15863157.453 6
  19676405.120   -21818847.411 6 -16864666.660 7
 95  2 19  7 56 29.9910000  0  7 16 20  6 17 22 26 23
  20783134.784    -1500697.074 6  -1128019.903 6
  20416350.940     -865355.681 6   -595507.002 5
  17684030.206   -18274520.617 7 -14051819.472 8
  18697526.894   -23803015.569 7 -18323941.267 9
  21599494.065    -5441352.568 5  -4130365.703 4
  19991368.308   -20921556.518 6 -15956086.161 6
  19648122.511   -21967475.438 6 -16980480.685 7
 95  2 19  7 56 59.9910000  0  7 16 20  6 17 22 26 23
  20787842.276    -1475958.432 6  -1108743.025 6
  20421661.339     -837447.535 5   -573760.409 5
  17672856.792   -18333233.292 7 -14097569.622 8
  18677674.269   -23907333.605 7 -18405228.034 9
  21575932.276    -5565172.347 5  -4226848.640 5
  19968751.862   -21040406.918 6 -16048696.847 6
  19619905.440   -22115758.124 6 -17096025.625 7
 95  2 19  7 57 29.9910000  0  7 16 20  6 17 22 26 23
  20792585.003    -1451035.933 6  -1089322.905 6
  20426999.480     -809398.596 5   -551904.112 6
  17661774.800   -18391471.376 7 -14142949.949 8
  18657858.690   -24011464.547 7 -18486369.016 9
  21552459.034    -5688524.387 5  -4322967.120 5
  19946217.105   -21158839.078 6 -16140981.630 6
  19591755.136   -22263695.382 6 -17211301.389 7
 95  2 19  7 57 59.9910000  0  7 16 20  6 17 22 26 23
  20797361.706    -1425927.598 6  -1069757.977 6
  20432365.792     -781196.226 6   -529928.249 5
  17650782.573   -18449235.551 7 -14187961.006 8
  18638079.128   -24115409.623 7 -18567365.169 9
  21529072.089    -5811412.676 5  -4418724.248 3
  19923759.237   -21276843.949 6 -16232933.466 6
  19563671.878   -22411277.506 6 -17326300.426 7
 95  2 19  7 58 29.9910000  0  7 16 20  6 17 22 26 23
  20802173.222    -1400647.532 6  -1050059.215 6
  20437762.401     -752832.997 6   -507827.056 5
  17639879.237   -18506522.194 7 -14232599.957 8
  18618329.886   -24219181.650 7 -18648226.476 9
  21505774.620    -5933835.162 5  -4514118.397 5
  19901389.683   -21394416.107 6 -16324548.114 6
  19535659.644   -22558505.953 6 -17441023.867 7
 95  2 19  7 58 59.9910000  0  7 16 20  6 17 22 26 23
  20807014.089    -1375209.274 6  -1030237.209 6
  20443192.644     -724307.933 6   -485599.762 5
  17629069.417   -18563338.997 7 -14276872.795 8
  18598621.511   -24322753.927 7 -18728932.137 9
  21482567.683    -6055802.410 5  -4609157.836 5
  19879098.769   -21511542.016 6 -16415815.052 6
  19507701.261   -22705393.634 6 -17555481.778 7
 95  2 19  7 59 29.9910000  0  7 16 20  6 17 22 26 23
  20811883.448    -1349623.272 6  -1010300.066 6
  20448649.136     -695623.484 5   -463248.257 5
  17618344.964   -18619694.659 7 -14320786.304 8
  18578952.175   -24426121.528 7 -18809478.312 9
  21459446.401    -6177321.684 5  -4703848.200 5
  19856891.980   -21628208.838 6 -16506724.244 6
  19479813.183   -22851952.896 6 -17669683.786 7
 95  2 19  7 59 59.9910000  0  7 16 20  6 17 22 26 23
  20816781.073    -1323888.010 6   -990246.621 6
  20454132.886     -666806.233 5   -440793.293 5
  17607708.214   -18675590.668 7 -14364341.641 8
  18559317.401   -24529302.156 7 -18889878.788 9
  21436405.425    -6298399.937 5  -4798194.931 4
  19834782.714   -21744426.352 6 -16597283.326 6
  19451985.542   -22998186.384 6 -17783631.941 7
 95  2 19  8  0 29.9910000  0  7 16 20  6 17 22 26 23
  20821704.808    -1298001.592 5   -970075.381 5
  20459639.847     -637866.205 5   -418242.649 5
  17597159.644   -18731016.530 7 -14407530.633 8
  18539720.105   -24632280.165 7 -18970121.383 9
  21413449.948    -6419018.876 5  -4892183.746 5
  19812749.933   -21860195.694 6 -16687493.187 6
  19424223.120   -23144086.083 6 -17897320.004 7
 95  2 19  8  0 59.9910000  0  7 16 20  6 17 22 26 23
  20826661.651    -1271967.821 6   -949789.327 6
  20465168.370     -608816.254 5   -395606.351 5
  17586702.722   -18785973.706 7 -14450354.415 8
  18520165.730   -24735049.547 7 -19050201.415 9
  21390582.276    -6539190.441 5  -4985823.941 4
  19790804.253   -21975528.194 6 -16777362.650 6
  19396521.565   -23289655.885 6 -18010751.001 8
 95  2 19  8  1 29.9910000  0  7 16 20  6 17 22 26 23
  20831642.417    -1245778.332 6   -929381.929 6
  20470720.901     -579645.805 5   -372876.171 5
  17576338.315   -18840436.693 7 -14492793.116 8
  18500646.683   -24837625.048 7 -19130130.355 9
  21367800.972    -6658900.738 5  -5079104.724 5
  19768938.073   -22090428.967 6 -16866895.710 6
  19368885.480   -23434874.269 6 -18123908.174 8
 95  2 19  8  1 59.9910000  0  7 16 20  6 17 22 26 23
  20836658.972    -1219422.056 5   -908844.572 6
  20476290.370     -550360.580 5   -350056.550 5
  17566069.487   -18894401.687 7 -14534843.763 8
  18481162.409   -24940005.897 7 -19209907.635 9
  21345106.948    -6778147.780 5  -5172024.528 5
  19747150.761   -22204917.203 6 -16956107.298 6
  19341320.534   -23579741.119 6 -18236791.414 8
 95  2 19  8  2 29.9910000  0  7 16 20  6 17 22 26 23
  20841707.690    -1192893.314 5   -888172.826 6
  20481888.019     -520959.302 5   -327146.491 5
  17555895.698   -18947868.679 7 -14576506.361 8
  18461719.761   -25042179.682 7 -19289523.562 9
  21322506.011    -6896927.433 5  -5264580.124 4
  19725448.784   -22318978.498 6 -17044986.212 6
  19313818.190   -23724257.555 6 -18349401.614 8
 95  2 19  8  2 59.9910000  0  7 16 20  6 17 22 26 23
  20846788.269    -1166198.973 5   -867372.044 5
  20487502.448     -491445.057 5   -304148.402 5
  17545813.753   -19000849.717 7 -14617790.292 8
  18442314.698   -25144156.245 7 -19368985.801 9
  21299988.878    -7015246.097 5  -5356776.533 4
  19703823.917   -22432604.644 6 -17133526.046 6
  19286384.362   -23868431.405 6 -18461744.866 8
 95  2 19  8  3 29.9900000  0  7 16 20  6 17 22 26 23
  20851898.889    -1139338.240 5   -846441.596 6
  20493138.326     -461831.156 5   -281072.678 5
  17535820.014   -19053366.372 7 -14658712.371 9
  18422941.584   -25245956.686 7 -19448310.819 9
  21277565.490    -7133093.067 5  -5448605.373 4
  19682287.240   -22545796.977 6 -17221727.846 6
  19259010.826   -24012266.755 6 -18573824.351 8
 95  2 19  8  3 59.9900000  0  7 16 20  6 17 22 26 23
  20857041.061    -1112314.608 5   -825384.240 6
  20498792.131     -432114.719 5   -257917.027 5
  17525910.873   -19105444.180 7 -14699292.494 9
  18403602.998   -25347586.909 7 -19527503.188 9
  21255228.631    -7250476.326 5  -5540072.877 5
  19660829.889   -22658554.568 6 -17309590.890 6
  19231699.647   -24155784.756 6 -18685656.541 8
 95  2 19  8  4 29.9900000  0  7 16 20  6 17 22 26 23
  20862207.701    -1085158.713 5   -804223.812 6
  20504468.779     -402292.407 5   -234678.894 5
  17516082.428   -19157092.124 7 -14739537.657 9
  18384293.607   -25449057.408 7 -19606571.095 9
  21232980.475    -7367403.472 5  -5631184.983 4
  19639459.107   -22770859.517 6 -17397101.232 6
  19204451.217   -24298973.314 6 -18797232.035 8
 95  2 19  8  4 59.9900000  0  7 16 20  6 17 22 26 23
  20867401.857    -1057872.834 5   -782962.082 5
  20510168.115     -372343.818 5   -211342.372 5
  17506338.084   -19208297.943 7 -14779438.303 9
  18365016.006   -25550367.058 7 -19685513.667 9
  21210819.982    -7483865.403 5  -5721934.583 4
  19618172.912   -22882720.702 6 -17484265.773 6
  19177269.498   -24441827.166 6 -18908546.722 8
 95  2 19  8  5 29.9900000  0  7 16 20  6 17 22 26 23
  20872621.709    -1030444.346 5   -761589.232 5
  20515892.756     -342262.389 5   -187902.342 5
  17496681.725   -19259036.347 7 -14818974.731 9
  18345770.943   -25651499.089 7 -19764317.842 9
  21188744.490    -7599844.646 5  -5812308.079 4
  19596968.029   -22994129.339 6 -17571077.673 6
  19150148.357   -24584345.789 6 -19019600.185 8
 95  2 19  8  5 59.9900000  0  7 16 20  6 17 22 26 23
  20877863.537    -1002890.471 5   -740118.680 6
  20521644.475     -312050.957 5   -164361.000 5
  17487119.123   -19309291.429 7 -14858134.557 9
  18326563.381   -25752428.977 7 -19842964.498 9
  21166764.600    -7715347.098 5  -5902310.015 4
  19575858.772   -23105074.592 6 -17657528.503 7
  19123093.303   -24726527.382 6 -19130391.024 8
 95  2 19  8  6 29.9900000  0  7 16 20  6 17 22 26 23
  20883132.522     -975207.966 5   -718547.896 6
  20527411.670     -281732.755 5   -140736.451 5
  17477651.733   -19359039.256 7 -14896899.101 9
  18307397.545   -25853155.741 7 -19921452.880 9
  21144880.951    -7830364.802 5  -5991934.233 5
  19554833.022   -23215557.642 6 -17743619.168 6
  19096101.107   -24868368.974 6 -19240916.935 8
 95  2 19  8  6 59.9900000  0  7 16 20  6 17 22 26 23
  20888426.897     -947382.651 5   -696865.829 5
  20533198.287     -251321.383 5   -117039.292 5
  17468283.381   -19408274.214 7 -14935264.007 9
  18288269.029   -25953675.693 7 -19999780.102 9
  21123086.576    -7944895.343 5  -6081178.847 5
  19533896.787   -23325580.984 6 -17829351.628 6
  19069173.897   -25009876.251 6 -19351182.342 8
 95  2 19  8  7 29.9900000  0  7 16 20  6 17 22 26 23
  20893748.272     -919421.885 5   -675078.222 5
  20539000.467     -220830.964 5    -93280.559 5
  17459009.053   -19457010.288 7 -14973240.179 9
  18269176.506   -26054002.368 7 -20077956.726 9
  21101385.014    -8058958.553 5  -6170059.299 5
  19513051.522   -23435130.120 6 -17914714.578 6
  19042313.920   -25151033.154 6 -19461174.720 8
 95  2 19  8  7 59.9900000  0  7 16 20  6 17 22 26 23
  20899095.811     -891328.919 5   -653187.601 6
  20544817.264     -190260.864 5    -69459.740 5
  17449828.904   -19505251.354 7 -15010830.635 9
  18250122.303   -26154145.551 7 -20155990.369 9
  21079764.420    -8172567.097 5  -6258585.474 4
  19492293.014   -23544202.253 6 -17999705.832 6
  19015523.522   -25291805.986 6 -19570867.836 8
 95  2 19  8  8 29.9900000  0  7 16 20  6 17 22 26 23
  20904464.889     -863105.572 5   -631195.385 6
  20550647.459     -159617.460 5    -45581.806 5
  17440742.608   -19552999.122 7 -15048036.693 9
  18231092.686   -26254129.949 7 -20233900.278 9
  21058230.264    -8285725.587 5  -6346760.948 5
  19471628.889   -23652806.260 6 -18084332.314 6
  18988808.576   -25432189.160 6 -19680257.313 8
 95  2 19  8  8 59.9900000  0  7 16 20  6 17 22 26 23
  20909856.303     -834775.200 5   -609119.782 6
  20556492.537     -128905.477 5    -21650.447 5
  17431745.920   -19600280.430 7 -15084879.281 9
  18212096.998   -26353961.208 7 -20311690.862 9
  21036777.076    -8398444.786 5  -6434594.132 5
  19451047.178   -23760952.980 6 -18168602.477 7
  18962169.232   -25572184.800 6 -19789344.817 8
 95  2 19  8  9 29.9900000  0  7 16 20  6 17 22 26 23
  20915264.959     -806351.717 5   -586971.607 5
  20562347.131      -98130.460 5      2330.061 5
  17422838.115   -19647091.983 7 -15121355.826 9
  18193130.100   -26453635.032 7 -20389358.784 9
  21015410.936    -8510716.137 5  -6522078.314 5
  19430555.014   -23868644.262 6 -18252517.738 7
  18935602.350   -25711801.109 6 -19898136.739 8
 95  2 19  8  9 59.9900000  0  7 16 20  6 17 22 26 23
  20920690.014     -777842.558 5   -564756.686 5
  20568213.748      -67302.347 5     26351.944 5
  17414019.647   -19693430.116 7 -15157463.476 9
  18174195.170   -26553144.026 7 -20466898.244 9
  20994140.334    -8622518.403 5  -6609196.975 5
  19410148.842   -23975876.970 6 -18336075.678 7
  18909103.225   -25851052.917 6 -20006644.627 8
 95  2 19  8 10 29.9900000  0  7 16 20  6 17 22 26 23
  20926133.865     -749245.981 5   -542473.636 5
  20574090.732      -36428.953 5     50409.120 5
  17405292.412   -19739291.044 7 -15193199.273 9
  18155291.678   -26652484.777 7 -20544306.614 9
  20972953.647    -8733823.763 5  -6695928.437 3
  19389832.381   -24082639.745 6 -18419267.436 6
  18882668.404   -25989961.844 6 -20114885.344 9
 95  2 19  8 10 59.9900000  0  7 16 20  6 17 22 26 23
  20931588.279     -720562.562 5   -520122.941 5
  20579972.397       -5525.026 5     74490.095 4
  17396653.576   -19784686.714 7 -15228572.534 9
  18136416.865   -26751655.422 7 -20621582.432 9
  20951871.826    -8844640.408 5  -6782279.113 4
  19369607.147   -24188930.841 6 -18502091.645 7
  18856299.842   -26128539.977 6 -20222868.294 9
 95  2 19  8 11 29.9900000  0  7 16 20  6 17 22 26 23
  20937066.147     -691777.586 5   -497693.084 5
  20585856.397       25410.256 5     98595.499 5
  17388106.967   -19829604.762 7 -15263573.620 9
  18117580.467   -26850653.694 7 -20698723.935 9
  20930873.037    -8954972.394 5  -6868252.110 5
  19349473.045   -24294730.250 6 -18584532.729 7
  18829989.928   -26266786.218 6 -20330592.634 8
 95  2 19  8 11 59.9900000  0  7 16 20  6 17 22 26 23
  20942566.068     -662874.591 5   -475171.270 5
  20591754.436       56373.343 5    122722.548 5
  17379651.318   -19874045.073 7 -15298202.450 9
  18098773.654   -26949476.440 7 -20775728.670 9
  20909969.436    -9064818.657 5  -6953846.607 5
  19329434.725   -24400039.738 6 -18666592.061 7
  18803752.115   -26404673.924 6 -20438037.596 8
 95  2 19  8 12 29.9900000  0  7 16 20  6 17 22 26 23
  20948086.490     -633861.073 5   -452563.330 5
  20597644.834       87355.060 5    146864.153 4
  17371284.865   -19918009.935 7 -15332460.794 9
  18080001.256   -27048129.294 7 -20852601.017 9
  20889158.693    -9174200.788 5  -7039079.471 5
  19309484.553   -24504878.786 6 -18748284.805 7
  18777581.897   -26542201.223 6 -20545201.723 8
 95  2 19  8 12 59.9900000  0  7 16 20  6 17 22 26 23
  20953631.139     -604738.745 5   -429870.617 5
  20603548.678      118381.724 5    171040.791 5
  17363007.248   -19961506.606 7 -15366354.317 9
  18061262.678   -27146594.704 7 -20929327.307 9
  20868426.795    -9283127.879 5  -7123957.727 5
  19289626.217   -24609235.372 6 -18829601.606 7
  18751483.881   -26679350.161 6 -20652071.010 8
 95  2 19  8 13 29.9900000  0  7 16 20  6 17 22 26 23
  20959189.014     -575526.975 5   -407108.196 5
  20609464.147      149458.486 5    195256.461 4
  17354819.014   -20004537.406 7 -15399884.817 9
  18042561.897   -27244871.775 7 -21005906.841 9
  20847792.654    -9391598.446 5  -7208480.283 5
  19269857.264   -24713110.494 6 -18910543.236 7
  18725455.779   -26816127.430 6 -20758650.692 9
 95  2 19  8 13 59.9900000  0  7 16 20  6 17 22 26 23
  20964762.928     -546237.791 5   -384285.456 5
  20615388.404      180599.815 5    219522.444 5
  17346719.756   -20047095.423 7 -15433046.921 9
  18023896.240   -27342957.587 7 -21082337.337 9
  20827236.639    -9499600.774 5  -7292637.958 5
  19250183.365   -24816503.887 6 -18991109.501 7
  18699498.897   -26952533.922 6 -20864941.467 9
 95  2 19  8 14 29.9890000  0  7 16 20  6 17 22 26 23
  20970350.900     -516873.516 5   -361404.224 5
  20621331.767      211825.187 5    243853.931 3
  17338711.384   -20089176.320 7 -15465837.245 9
  18005268.798   -27440842.669 7 -21158611.423 9
  20806777.306    -9607122.363 5  -7376421.034 5
  19230607.837   -24919387.538 6 -19071278.558 7
  18673606.548   -27088588.525 6 -20970958.040 9
 95  2 19  8 14 59.9890000  0  7 16 20  6 17 22 26 23
  20975955.181     -487420.151 5   -338453.590 5
  20627289.235      243139.176 5    268254.484 4
  17330795.282   -20130776.948 7 -15498253.329 9
  17986680.446   -27538532.725 7 -21234733.538 9
  20786403.751    -9714160.543 5  -7459827.402 5
  19211128.024   -25021760.104 6 -19151049.380 7
  18647781.243   -27224308.574 6 -21076713.915 9
 95  2 19  8 15 29.9890000  0  7 16 20  6 17 22 26 23
  20981578.985     -457855.752 5   -315416.418 6
  20633266.728      274535.097 5    292718.884 4
  17322977.939   -20171855.817 7 -15530262.854 9
  17968128.001   -27636016.856 7 -21310695.189 9
  20766138.876    -9820690.560 5  -7542837.809 4
  19191742.400   -25123627.011 6 -19230426.170 7
  18622020.712   -27359683.686 6 -21182200.998 9
 95  2 19  8 15 59.9890000  0  7 16 20  6 17 22 26 23
  20987231.353     -428169.860 5   -292284.579 5
  20639255.939      306004.036 5    317240.169 3
  17315259.470   -20212417.742 7 -15561869.563 9
  17949615.571   -27733306.932 7 -21386505.638 9
  20745965.759    -9926699.556 5  -7625442.234 5
  19172446.689   -25225000.665 6 -19309418.613 7
  18596321.493   -27494718.620 6 -21287423.008 9
 95  2 19  8 16 29.9890000  0  7 16 20  6 17 22 26 23
  20992902.626     -398349.286 5   -269047.765 5
  20645257.376      337542.087 5    341815.312 4
  17307640.649   -20252458.844 7 -15593070.433 9
  17931138.493   -27830400.945 7 -21462163.300 9
  20725892.134   -10032171.903 5  -7707628.508 5
  19153254.118   -25325882.964 6 -19388028.187 7
  18570694.564   -27629401.793 6 -21392370.925 9
 95  2 19  8 16 59.9890000  0  7 16 20  6 17 22 26 23
  20998599.556     -368423.505 5   -245728.988 5
  20651263.321      369119.242 5    366420.899 5
  17300118.782   -20291987.507 7 -15623872.000 9
  17912696.118   -27927312.259 7 -21537678.611 9
  20705923.696   -10137110.572 5  -7789398.898 4
  19134143.259   -25426293.955 6 -19466270.499 7
  18545133.884   -27763722.892 6 -21497036.712 9
 95  2 19  8 17 29.9890000  0  7 16 20  6 17 22 26 23
  21004310.165     -338407.000 5   -222339.529 5
  20657280.446      400732.652 5    391054.746 5
  17292690.642   -20331018.102 7 -15654285.461 9
  17894291.915   -28024030.460 7 -21613043.440 9
  20686054.431   -10241508.438 5  -7870747.911 4
  19115126.782   -25526226.770 6 -19544140.207 7
  18519643.204   -27897675.688 6 -21601415.496 9
 95  2 19  8 17 59.9890000  0  8 16 20 21  6 17 22 26 23
  21010036.321     -308324.939 5   -198898.953 5
  20663296.376      432362.792 5    415701.620 4
  21846634.032          -0.11313
  17285351.493   -20369593.744 7 -15684344.421 9
  17875922.376   -28120568.165 7 -21688267.620 9
  20666287.845   -10345388.952 5  -7951693.776 4
  19096207.165   -25625664.230 6 -19621623.927 7
  18494223.196   -28031254.347 6 -21705502.757 9
 95  2 19  8 18 29.9890000  0  8 16 20 21  6 17 22 26 23
  21015767.915     -278195.717 5   -175421.637 5
  20669316.274      463993.468 5    440348.907 5
  21814922.290     -166673.620 3
  17278097.001   -20407714.104 7 -15714048.608 9
  17857586.993   -28216920.298 7 -21763347.196 9
  20646616.235   -10448778.918 5  -8032257.394 4
  19077383.321   -25724594.152 6 -19698712.166 7
  18468879.407   -28164441.000 6 -21809284.553 9
 95  2 19  8 18 59.9890000  0  8 16 20 21  6 17 22 26 23
  21021512.407     -248019.397 5   -151907.622 5
  20675332.095      495617.170 5    464990.774 4
  21783227.392     -333214.149 3        -0.13011
  17270928.946   -20445378.785 7 -15743397.719 9
  17839290.196   -28313068.917 7 -21838268.193 9
  20627030.345   -10551693.123 5  -8112450.294 5
  19058653.657   -25822992.127 6 -19775385.896 7
  18443612.681   -28297225.182 6 -21912752.737 9
 95  2 19  8 19 29.9890000  0  8 16 20 21  6 17 22 26 23
  21027268.587     -217767.840 5   -128334.983 5
  20681351.001      527244.168 5    489635.209 4
  21751555.478     -499640.331 3   -129682.853 2
  17263849.720   -20482578.603 7 -15772384.606 9
  17821033.704   -28409016.357 7 -21913032.432 9
  20607534.595   -10654141.638 5  -8192280.308 4
  19040033.360   -25920845.429 6 -19851635.204 7
  18418422.618   -28429597.450 7 -22015899.945 9
 95  2 19  8 19 59.9890000  0  8 16 20 21  6 17 22 26 23
  21033038.571     -187432.613 5   -104697.175 5
  20687373.907      558877.905 5    514284.904 5
  21719905.978     -665966.468 3   -259287.624 3
  17256863.337   -20519293.562 7 -15800993.681 9
  17802811.056   -28504770.937 7 -21987646.385 9
  20588126.103   -10756120.006 5  -8271743.988 4
  19021518.665   -26018143.159 6 -19927451.603 7
  18393313.626   -28561550.992 6 -22118720.886 9
 95  2 19  8 20 29.9890000  0  8 16 20 21  6 17 22 26 23
  21038829.415     -157007.272 5    -80989.146 5
  20693392.704      590528.384 5    538947.641 4
  21688277.485     -832192.786 4   -388814.631 3
  17249975.610   -20555491.547 7 -15829199.912 9
  17784628.681   -28600329.435 7 -22062107.552 9
  20568813.993   -10857606.101 5  -8350824.078 5
  19003109.040   -26114889.996 6 -20002838.732 7
  18368277.040   -28693100.774 6 -22221227.201 9
 95  2 19  8 20 59.9890000  0  8 16 20 21  6 17 22 26 23
  21044638.454     -126493.480 5    -57212.198 5
  20699425.353      622189.804 5    563618.899 4
  21656663.196     -998324.331 3   -518267.734 3
  17243183.267   -20591182.641 7 -15857011.166 9
  17766473.806   -28695712.511 7 -22136432.019 9
  20549597.853   -10958596.471 5  -8429517.881 5
  18984802.790   -26211103.788 6 -20077810.504 7
  18343317.220   -28824274.274 6 -22323440.307 9
 95  2 19  8 21 29.9890000  0  8 16 20 21  6 17 22 26 23
  21050465.157      -95897.288 5    -33371.031 5
  20705446.134      653862.407 5    588298.871 5
  21625069.962    -1164364.395 4   -647649.637 1
  17236487.579   -20626371.819 7 -15884431.317 9
  17748354.814   -28790938.859 7 -22210634.360 9
  20530474.454   -11059079.406 5  -8507816.277 5
  18966587.165   -26306806.570 6 -20152384.081 7
  18318426.025   -28955087.597 7 -22425372.759 9
 95  2 19  8 21 59.9890000  0  8 16 20 21  6 17 22 26 23
  21056295.642      -65231.597 5     -9475.688 3
  20711475.314      685539.090 5    612982.025 5
  21593494.024    -1330290.536 3   -776942.731 2
  17229886.985   -20661057.180 7 -15911458.882 9
  17730265.040   -28885998.012 7
  20511459.173   -11159037.445 5  -8585705.670 5
  18948472.306   -26402001.841 6
  18293601.212   -29085547.944 7 -22527030.168 9
 95  2 19  8 22 29.9890000  0  8 16 20 21  6 17 22 26 23
  21062145.735      -34495.858 5     14474.240 4
  20717498.290      717211.644 4    637661.929 5
  21561946.798    -1496078.601 3   -906128.241 1
  17223382.439   -20695237.589 7 -15938092.989 9
  17712207.673   -28980888.236 7 -22358646.855 9
  20492534.501   -11258475.100 5  -8663189.593 4
  18930453.970   -26496692.983 6 -20300347.487 7
  18268842.548   -29215649.253 7 -22628407.800 9
 95  2 19  8 22 59.9890000  0  8 16 20 21  6 17 22 26 23
  21068004.673       -3701.243 5     38470.040 4
  20723527.946      748878.325 4    662337.278 4
  21530422.712    -1661723.003 3  -1035201.783 1
  17216972.735   -20728923.624 7 -15964341.855 9
  17694185.993   -29075604.988 7 -22432452.120 9
  20473706.243   -11357401.271 5  -8740274.916 5
  18912531.571   -26590876.657 6 -20373737.337 7
  18244154.564   -29345382.112 7 -22729498.332 9
 95  2 19  8 23 29.9890000  0  8 16 20 21  6 17 22 26 23
  21073875.134       27139.898 5     62502.090 4
  20729549.673      780539.286 3    687008.197 4
  21498930.259    -1827218.883 3  -1164159.629 2
  17210657.814   -20762107.234 7 -15990199.226 9
  17676194.415   -29170142.081 7 -22506117.383 9
  20454986.853   -11455816.689 5  -8816962.253 5
  18894704.126   -26684552.823 6 -20446731.742 7
  18219540.845   -29474731.774 7 -22830290.269 9
 95  2 19  8 23 59.9890000  0  8 16 20 21  6 17 22 26 23
  21079749.915       58022.701 5     86566.601 3
  20735572.743      812195.885 4    711675.695 4
  21467464.524    -1992554.022 3  -1292992.192 2
  17204442.540   -20794779.242 7 -16015657.951 9
  17658241.837   -29264493.824 7 -22579638.217 9
  20436350.071   -11553731.101 5  -8893259.203 5
  18876977.071   -26777706.227 6 -20519318.794 7
  18195000.673   -29603679.383 7 -22930768.911 9
 95  2 19  8 24 29.9890000  0  8 16 20 21  6 17 22 26 23
  21085628.540       88939.399 4    110657.536 4
  20741602.650      843854.079 5    736344.456 3
  21436030.907    -2157739.247 4  -1421707.992 3
  17198321.774   -20826938.635 7 -16040717.231 9
  17640319.860   -29358664.012 7 -22653017.580 9
  20417806.587   -11651162.098 5  -8969179.489 5
  18859353.446   -26870332.053 6 -20591494.745 7
  18170540.931   -29732222.189 7 -23030932.133 9
 95  2 19  8 24 59.9890000  0  8 16 20 21  6 17 22 26 23
  21091521.368      119889.341 4    134774.337 3
  20747629.009      875514.635 4    761015.060 2
  21404622.548    -2322805.847 3  -1550331.306 2
  17192297.759   -20858595.782 7 -16065385.153 9
  17622433.689   -29452655.807 7 -22726257.941 9
  20399352.462   -11748113.284 5  -9044725.875 5
  18841825.657   -26962439.753 6 -20663266.962 7
  18146158.103   -29860367.411 7 -23130785.543 9
 95  2 19  8 25 29.9890000  0  8 16 20 21  6 17 22 26 23
  21097420.251      150879.979 4    158922.889 4
  20753646.618      907162.150 4    785675.489 2
  21373230.790    -2487758.123 4  -1678865.609 3
  17186365.868   -20889765.070 7 -16089672.922 9
  17604578.157   -29546486.096 7 -22799372.452 9
  20380999.657   -11844593.488 5  -9119905.256 5
  18824395.618   -27054043.181 6 -20734646.244 7
  18121846.032   -29988115.840 7 -23230329.768 9
 95  2 19  8 25 59.9880000  0  8 16 20 21  6 17 22 26 23
  21103325.809      181914.520 5    183105.633 5
  20759666.848      938779.244 4    810312.211 2
  21341867.137    -2652596.742 5  -1807311.295 2
  17180523.934   -20920465.122 7 -16113595.060 9
  17586752.652   -29640153.658 7 -22872360.156 9
  20362726.809   -11940606.664 5  -9194720.730 5
  18807063.145   -27145123.201 6 -20805617.674 7
  18097607.465   -30115487.580 7 -23329580.463 9
 95  2 19  8 26 29.9880000  0  8 16 20 21  6 17 22 26 23
  21109235.715      212993.426 5    207322.972 5
  20765671.262      970354.433 3    834916.217 3
  21310518.785    -2817337.899 5  -1935681.050 3
  17174768.387   -20950707.090 7 -16137160.245 9
  17568959.793   -29733660.014 7 -22945222.257 9
  20344546.191   -12036155.973 5  -9269174.758 4
  18789827.902   -27235691.017 6 -20876189.982 7
  18073437.129   -30242508.938 7 -23428558.142 9
 95  2 19  8 26 59.9880000  0  8 16 20 21  6 17 22 26 23
  21115165.770      244125.899 5    231582.031 5
  20771670.027     1001879.571 3    859481.245 2
  21279190.660    -2981952.760 5  -2063952.394 4
  17169099.981   -20980496.819 7 -16160373.029 9
  17551200.895   -29826983.627 7 -23017941.950 9
  20326454.262   -12131221.507 5  -9343251.812 5
  18772692.957   -27325738.629 6 -20946356.940 7
  18049333.879   -30369169.768 7 -23527254.891 9
 95  2 19  8 27 29.9880000  0  8 16 20 21  6 17 22 26 23
  21121098.129      275305.991 5    255878.210 5
  20777663.145     1033351.156 4    884004.539 3
  21247894.527    -3146412.714 4  -2192103.030 3
  17163519.770   -21009818.315 7 -16183220.963 9
  17533479.910   -29920112.394 7 -23090509.822 9
  20308463.246   -12225789.802 5  -9416941.395 5
  18755660.606   -27415243.773 6 -21016101.199 7
  18025301.215   -30495464.185 7 -23625666.113 9
 95  2 19  8 27 59.9880000  0  8 16 20 21  6 17 22 26 23
  21127039.863      306527.125 5
  20783646.035     1064784.077 5
  21216628.973    -3310710.163 5  -2320127.014 4
  17158033.770   -21038647.583 7 -16205685.341 9
  17515799.926   -30013023.094 7 -23162907.764 9
  20290566.371   -12319846.567 5  -9490232.385 4
  18738736.137   -27504189.852 6 -21085409.824 7
  18001337.340   -30621384.256 7 -23723785.643 9
 95  2 19  8 28 29.9880000  0  8 16 20 21  6 17 22 26 23
  21132986.652      337782.839 5
  20789619.629     1096190.813 5
  21185396.731    -3474837.550 5  -2448018.560 2
  17152642.645   -21066980.665 7 -16227763.087 9
  17498160.965   -30105715.591 7 -23235135.682 9
  20272764.442   -12413371.142 5  -9563108.684 5
  18721910.270   -27592592.466 6 -21154294.962 7
  17977453.074   -30746905.666 7 -23821594.521 9
 95  2 19  8 28 59.9880000  0  8 16 20 21  6 17 22 26 23
  21138938.520      369072.264 5
  20795591.137     1127571.418 5
  21154195.316    -3638798.677 4  -2575780.512 2
  17147345.606   -21094820.584 7 -16249456.541 9
  17480561.942   -30198202.702 7 -23307203.557 9
  20255068.652   -12506362.244 5  -9635569.294 5
  18705192.817   -27680441.397 6 -21222748.663 7
  17953646.652   -30872014.293 7 -23919081.749 9
 95  2 19  8 29 29.9880000  0  8 16 20 21  6 17 22 26 23
  21144903.418      400392.296 5
  20801564.106     1158933.104 5
  21123027.832    -3802615.717 4  -2703430.189 2
  17142139.926   -21122172.146 7 -16270769.457 9
  17462996.770   -30290503.929 7
  20237471.731   -12598819.868 5
  18688583.785   -27767728.809 6 -21290764.821 7
  17929916.395   -30996712.215 7 -24016248.952 9
 95  2 19  8 29 59.9880000  0  8 16 20 21  6 17 22 26 23
  21150870.418      431745.126 4
  20807526.785     1190276.396 5
  21091871.918    -3966305.291 3  -2830980.542 2
  17137023.051   -21149062.841 7 -16291723.260 9
  17445466.442   -30382626.157 7 -23450910.133 9
  20219981.715   -12690753.015 5
  18672078.551   -27854465.909 6 -21358352.154 7
  17906264.293   -31121002.686 7 -24113098.656 9
 95  2 19  8 30 29.9880000  0  8 16 20 21  6 17 22 26 23
  21156839.184      463138.982 3
  20813484.668     1221582.843 5
  21060744.684    -4129869.800 3  -2958433.447 1
  17131990.692   -21175508.994 7 -16312330.666 9
  17427969.340   -30474576.825 7 -23522560.004 9
  20202585.637   -12782163.208 5        -0.13615
  18655678.410   -27940652.058 6 -21425510.183 7
  17882688.160   -31244892.492 7 -24209636.158 9
 95  2 19  8 30 59.9880000  0  8 16 20 21  6 17 22 26 23
  21162827.363      494586.639 3    426746.221 4
  20819434.543     1252854.764 5   1055046.318 2
  21029643.598    -4293305.182 4  -3085785.746 2
  17127047.121   -21201490.610 7 -16332576.093 9
  17410503.817   -30566351.300 7 -23594072.586 9
  20185286.027   -12873060.367 5    -70829.094 5
  18639384.910   -28026279.664 6 -21492232.984 7
  17859190.199   -31368377.071 7 -24305857.900 9
 95  2 19  8 31 29.9880000  0  8 16 20 21  6 17 22 26 23
  21168817.918      526077.483 3    451284.530 5
  20825380.442     1284088.234 5   1079384.070 2
  20998574.356    -4456614.227 4  -3213039.598 2
  17122192.090   -21226999.373 7 -16352453.067 9
  17393074.652   -30657953.718 7 -23665451.092 9
  20168086.395   -12963447.665 5   -141260.765 4
  18623190.449   -28111371.913 6 -21558538.617 7
  17835767.707   -31491466.888 7 -24401772.031 9
 95  2 19  8 31 59.9880000  0  8 16 20 21  6 17 22 26 23
  21174813.496      557593.093 4    475842.141 4
  20831310.629     1315261.794 4   1103675.167 3
  20967523.723    -4619781.017 4  -3340182.589 1
  17117432.137   -21252014.921 7 -16371945.719 9
  17375673.981   -30749376.497 7 -23736689.611 9
  20150987.504   -13053328.596 5   -211297.855 5
  18607096.762   -28195941.618 6 -21624437.074 7
  17812423.137   -31614152.606 7 -24497371.285 9
 95  2 19  8 32 29.9880000  0  8 16 20 21  6 17 22 26 23
  21180814.707      589121.474 4    500409.707 3
  20837229.270     1346370.311 5   1127915.563 4
  20936501.324    -4782794.290 4  -3467205.983 2
  17112770.621   -21276513.088 7 -16391035.208 9
  17358313.160   -30840624.914 7 -23807792.276 9
  20133975.301   -13142711.052 5   -280946.524 5
  18591104.691   -28279985.780 6 -21689926.029 7
  17789153.426   -31736432.276 7 -24592654.134 9
 95  2 19  8 32 59.9880000  0  8 16 20 21  6 17 22 26 23
  21186813.176      620648.078 4    524975.897 5
  20843134.559     1377418.047 5   1152108.589 3
  20905512.152    -4945648.276 4  -3594105.223 2
  17108208.074   -21300485.416 7 -16409714.956 9
  17340980.535   -30931704.366 7 -23878763.277 9
  20117060.895   -13231590.336 5   -350203.104 5
  18575211.840   -28363499.384 6 -21755001.559 7
  17765961.996   -31858300.388 7 -24687616.285 9
 95  2 19  8 33 29.9880000  0  8 16 20 21  6 17 22 26 23
  21192811.418      652169.410 5    549538.000 4
  20849029.988     1408400.306 4   1176250.626 4
  20874559.402    -5108333.381 4  -3720872.886 1
  17103745.356   -21323942.721 7 -16427993.387 9
  17323682.527   -31022606.552 7 -23949596.140 9
  20100246.277   -13319957.939 5   -419060.977 5
  18559425.309   -28446457.398 6 -21819644.153 7
  17742848.512   -31979760.678 7 -24782260.653 9
 95  2 19  8 33 59.9880000  0  8 16 20 21  6 17 22 26 23
  21198811.574      683695.465 5    574103.760 4
  20854919.910     1439319.987 4   1200343.928 4
  20843636.520    -5270832.860 4  -3847495.870 2
  17099375.840   -21346900.266 7 -16445882.400 9
  17306419.442   -31113315.183 7 -24020278.191 9
  20083526.020   -13407814.102 5   -487520.351 5
  18543750.660   -28528839.802 6 -21883838.231 7
  17719810.715   -32100814.704 7 -24876588.464 9
 95  2 19  8 34 29.9880000  0  8 16 20 21  6 17 22 26 23
  21204810.723      715236.151 4    598680.939 5
  20860786.192     1470185.268 4   1224394.801 4
  20812744.692    -5433157.637 4  -3973982.757 3
  17095097.879   -21369380.217 7 -16463399.256 9
  17289196.684   -31203837.281 7 -24090814.878 9
  20066905.715   -13495159.531 5   -555581.709 5
  18528180.926   -28610644.302 6 -21947581.984 7
  17696852.176   -32221474.488 7 -24970609.066 9
 95  2 19  8 34 59.9880000  0  8 16 20 21  6 17 22 26 23
  21210818.754      746788.863 4    623267.466 5
  20866645.770     1500984.644 3   1248394.353 2
  20781888.027    -5595311.186 3  -4100336.204 4
  17090907.387   -21391400.218 7 -16480557.714 9
  17272008.004   -31294167.137 7 -24161201.780 9
  20050384.973   -13581983.144 5   -623236.474 5
  18512722.410   -28691877.047 6 -22010880.222 7
  17673963.426   -32341741.771 7 -25064323.823 9
 95  2 19  8 35 29.9880000  0  8 16 20 21  6 17 22 26 23
  21216828.012      778362.010 4    647869.917 5
  20872506.762     1531724.459 4   1272347.467 4
  20751064.113    -5757283.432 4  -4226548.328 2
  17086807.074   -21412946.025 7 -16497346.666 9
  17254855.449   -31384287.589 7 -24231425.506 9
  20033961.418   -13668295.236 5   -690492.638 5
  18497374.817   -28772534.633 6 -22073730.284 7
  17651154.746   -32461618.050 7 -25157733.903 9
 95  2 19  8 35 59.9880000  0  7 20 21  6 17 22 26 23
  20878334.699     1562391.322 3   1296243.736 3
  20720271.637    -5919076.788 4  -4352621.110 3
  17082799.527   -21434010.271 7 -16513760.377 9
  17237744.051   -31474203.139 7 -24301489.564 9
  20017632.113   -13754104.208 5   -757356.795 5
  18482134.238   -28852641.199 6 -22136150.968 7
  17628416.590   -32581101.966 7 -25250838.246 9
 95  2 19  8 36 29.9880000  0  7 20 21  6 17 22 26 23
  20884155.426     1592971.108 3   1320072.182 1
  20689522.543    -6080697.150 5  -4478559.120 4
  17078884.199   -21454583.315 7 -16529791.334 9
  17220672.856   -31563927.264 7 -24371404.468 9
  20001398.731   -13839411.926 5   -823830.328 5
  18466990.621   -28932204.594 6 -22198148.419 7
  17605754.277   -32700199.817 7 -25343641.764 9
 95  2 19  8 36 59.9870000  0  7 20 21  6 17 22 26 23
  20889953.765     1623454.203 3   1343825.191 2
  20658798.288    -6242131.823 5  -4604352.408 3
  17075064.062   -21474653.350 7 -16545430.335 9
  17203636.374   -31653455.447 7 -24441166.686 9
  19985261.937   -13924221.844 5   -889915.983 5
  18451953.366   -29011224.334 6 -22259722.235 7
  17583163.773   -32818919.704 7 -25436150.753 9
 95  2 19  8 37 29.9870000  0  7 20 21  6 17 22 26 23
  20895740.882     1653854.744 3   1367513.957 1
  20628113.562    -6403397.561 5  -4730014.014 4
  17071341.038   -21494221.169 7 -16560678.000 9
  17186634.913   -31742799.995 7 -24510785.809 9
  19969213.265   -14008552.101 5   -955627.885 5
  18437019.405   -29089700.908 6 -22320872.802 7
  17560641.312   -32937273.728 7 -25528374.663 9
 95  2 19  8 37 59.9870000  0  7 20 21  6 17 22 26 23
  20901513.226     1684184.552 3   1391147.513 2
  20597463.265    -6564483.040 5  -4855535.198 4
  17067712.273   -21513291.033 7 -16575537.643 9
  17169667.921   -31831958.709 7 -24580260.133 9
  19953262.741   -14092367.516 5  -1020938.601 5
  18422193.116   -29167619.275 6 -22381588.408 7
  17538192.023   -33055231.651 7 -25620289.921 9
 95  2 19  8 38 29.9870000  0  7 20 21  6 17 22 26 23
  20907267.991     1714441.380 3   1414724.252 2
  20566837.648    -6725411.971 5  -4980934.387 5
  17064177.030   -21531874.379 7 -16590018.185 9
  17152734.679   -31920947.656 7 -24649602.165 9
  19937414.546   -14175669.401 5  -1085849.157 5
  18407472.632   -29244970.777 6 -22441862.297 7
  17515821.030   -33172796.359 7 -25711898.778 9
 95  2 19  8 38 59.9870000  0  7 20 21  6 17 22 26 23
  20913014.608     1744619.692 4   1438239.780 2
  20536238.913    -6886192.056 5  -5106217.574 5
  17060732.288   -21549972.913 7 -16604120.952 9
  17135832.030   -32009767.931 7 -24718812.766 9
  19921658.679   -14258453.895 5  -1150356.552 5
  18392864.812   -29321745.134 6 -22501686.461 7
  17493528.257   -33289950.209 7 -25803187.487 9
 95  2 19  8 39 29.9870000  0  7 20 21  6 17 22 26 23
  20918738.913     1774716.993 3   1461692.218 2
  20505671.148    -7046823.888 5  -5231385.247 5
  17057380.194   -21567581.514 7 -16617841.954 9
  17118961.069   -32098418.673 7 -24787891.261 9
  19906007.491   -14340704.029 5  -1214447.573 5
  18378368.624   -29397923.338 6 -22561046.090 7
  17471317.741   -33406669.057 7 -25894137.230 9
 95  2 19  8 39 59.9870000  0  7 20 21  6 17 22 26 23
  20924445.171     1804700.391 4   1485055.853 2
  20475128.780    -7207323.677 5  -5356450.029 5
  17054122.569   -21584706.512 7 -16631186.115 9
  17102122.905   -32186904.978 7 -24856841.631 9
  19890451.319   -14422421.389 5  -1278123.445 5
  18363982.124   -29473520.019 6 -22619952.587 7
  17449187.116   -33522969.700 7 -25984761.107 9
 95  2 19  8 40 29.9870000  0  7 20 21  6 17 22 26 23
  20930133.968     1834576.973 5   1508336.256 2
  20444614.655    -7367676.378 5  -5481400.182 4
  17050958.483   -21601332.520 7 -16644141.460 9
  17085320.624   -32275199.713 7 -24925642.717 9
  19875007.437   -14503613.464 5  -1341389.999 5
  18349708.194   -29548533.027 6 -22678404.267 7
  17427130.898   -33638863.113 7 -26075067.652 9
 95  2 19  8 40 59.9870000  0  7 20 21  6 17 22 26 23
  20935792.960     1864344.922 4   1531532.005 2
  20414130.101    -7527866.798 5  -5606223.882 4
  17047887.335   -21617474.056 7 -16656719.291 9
  17068558.562   -32363290.954 7 -24994285.243 9
  19859651.187   -14584290.009 5  -1404254.850 5
  18335541.780   -29622984.437 6 -22736418.343 7
  17405150.804   -33754367.074 7 -26165070.735 9
 95  2 19  8 41 29.9870000  0  7 20 21  6 17 22 26 23
  20941441.874     1894016.330 4   1554652.503 1
  20383680.694    -7687896.610 5  -5730922.423 5
  17044904.210   -21633145.207 7 -16668930.588 9
  17051838.265   -32451162.852 7 -25062756.854 9
  19844397.921   -14664461.960 5  -1466726.504 5
  18321477.601   -29696887.482 6 -22794005.122 7
  17383241.569   -33869500.804 7 -26254785.324 9
 95  2 19  8 41 59.9870000  0  7 20 21  6 17 22 26 23
  20947073.546     1923602.557 4   1577706.646 1
  20353259.335    -7847766.229 5  -5855496.154 3
  17042008.234   -21648370.950 7 -16680794.821 9
  17035157.944   -32538811.161 7 -25131054.242 9
  19829233.671   -14744144.975 5  -1528817.170 5
  18307516.007   -29770251.327 6 -22851171.748 7
  17361403.655   -33984272.982 7 -26344218.185 9
 95  2 19  8 42 29.9870000  0  7 20 21  6 17 22 26 23
  20952689.444     1953113.882 4   1600702.416 2
  20322873.905    -8007449.927 5  -5979924.985 2
  17039194.780   -21663155.585 7 -16692315.320 9
  17018521.523   -32626238.390 7 -25199179.355 9
  19814162.124   -14823342.035 5  -1590529.160 5
  18293660.804   -29843072.441 6 -22907915.466 7
  17339631.890   -34098666.176 7 -26433355.726 9
 95  2 19  8 42 59.9870000  0  7 20 21  6 17 22 26 23
  20958287.569     1982535.491 4   1623628.354 2
  20292519.843    -8166954.226 5  -6104214.071 2
  17036465.343   -21677501.663 7 -16703494.099 9
  17001922.882   -32713459.202 7 -25267143.619 9
  19799185.109   -14902045.077 5  -1651856.212 5
  18279904.405   -29915345.070 6 -22964231.782 7
  17317942.312   -34212664.341 7 -26522185.457 9
 95  2 19  8 43 29.9870000  0  7 20 21  6 17 22 26 23
  20963866.218     2011863.940 3   1646481.754 2
  20262200.077    -8326281.245 5  -6228364.982 3
  17033818.991   -21691404.160 7 -16714327.221 9
  16985361.624   -32800493.662 7 -25334962.677 9
  19784306.905   -14980243.279 5  -1712789.885 5
  18266257.671   -29987051.960 6 -23020107.270 7
  17296327.546   -34326248.007 7 -26610692.200 9
 95  2 19  8 43 59.9870000  0  7 20 21  6 17 22 26 23
  20969425.194     2041081.397 4   1669248.602 1
  20231918.163    -8485414.521 5  -6352364.910 3
  17031260.476   -21704854.176 7 -16724807.772 9
  16968827.077   -32887367.365 7 -25402656.467 9
  19769514.991   -15057937.723 5  -1773331.004 5
  18252723.616   -30058196.399 6 -23075544.487 7
  17274791.812   -34439408.085 7 -26698868.869 9
 95  2 19  8 44 29.9870000  0  7 20 21  6 17 22 26 23
  20974961.476     2070166.137 4   1691912.061 1
  20201671.569    -8644342.406 5  -6476204.797 4
  17028789.788   -21717829.149 7 -16734918.152 9
  16952328.194   -32974082.158 7 -25470226.438 9
  19754831.616   -15135114.769 5  -1833468.978 5
  18239291.960   -30128772.017 6 -23130538.473 7
  17253340.866   -34552139.359 7 -26786711.416 9
 95  2 19  8 44 59.9870000  0  7 20 21  6 17 22 26 23
  20980473.327     2099114.623 5   1714469.373 1
  20171466.944    -8803069.856 5  -6599888.518 3
  17026413.788   -21730316.682 7 -16744648.705 9
  16935858.202   -33060637.702 7 -25537672.316 9
  19740250.382   -15211765.812 5  -1893197.058 5
  18225973.976   -30198765.091 6 -23185078.518 7
  17231970.429   -34664443.945 7 -26874221.469 9
 95  2 19  8 45 29.9870000  0  6 21  6 17 22 26 23
  20141304.663    -8961593.417 5  -6723413.364 5
  17024129.749   -21742322.165 7 -16754003.641 9
  16919416.460   -33147036.444 7 -25604996.011 9
  19725758.655   -15287899.332 5  -1952521.878 5
  18212764.624   -30268180.876 6 -23239168.728 7
  17210675.976   -34776333.184 7 -26961407.882 9
 95  2 19  8 45 59.9870000  0  6 21  6 17 22 26 23
  20111180.179    -9119919.425 5  -6846784.250 5
  17021936.679   -21753844.163 7 -16762981.840 9
  16903008.390   -33233263.709 7 -25672186.087 9
  19711366.616   -15363530.425 5  -2011455.213 5
  18199660.577   -30337033.870 6 -23292820.407 7
  17189462.702   -34887827.816 7 -27048286.801 9
 95  2 19  8 46 29.9870000  0  6 21  6 17 22 26 23
  20081082.921    -9278054.509 5  -6970006.358 4
  17019838.343   -21764874.646 7 -16771577.033 9
  16886633.882   -33319301.534 7 -25739228.555 9
  19697079.679   -15438648.467 5  -2069988.750 5
  18186669.874   -30405311.440 6 -23346023.697 7
  17168322.116   -34998920.561 7 -27134852.566 9
 95  2 19  8 46 59.9870000  0  6 21  6 17 22 26 23
  20051024.226    -9436004.664 5  -7093084.383 3
  17017831.194   -21775420.160 7 -16779794.326 8
  16870298.085   -33405147.971 7 -25806121.881 9
  19682874.960   -15513263.976 5  -2128130.695 5
  18173783.413   -30473019.611 6 -23398783.301 7
  17147258.085   -35109615.928 7 -27221108.686 9
 95  2 19  8 47 29.9870000  0  6 21  6 17 22 26 23
  20021001.585    -9593775.599 5  -7216022.732 4
  17015913.437   -21785502.173 7 -16787650.452 9
  16854000.132   -33490801.455 7 -25872864.862 9
  19668768.913   -15587389.578 5  -2185890.921 5
  18161002.101   -30540174.795 6 -23451112.001 7
  17126266.062   -35219924.732 7 -27307063.589 9
 95  2 19  8 47 59.9870000  0  6 21  6 17 22 26 23
  19991011.624    -9751376.050 5  -7338828.261 5
  17014080.804   -21795133.921 7 -16795155.722 9
  16837734.257   -33576267.448 7 -25939461.743 9
  19654757.327   -15661028.474 5  -2243271.874 5
  18148334.265   -30606773.826 6 -23503007.347 7
  17105349.319   -35329846.128 7 -27392716.613 9
 95  2 19  8 48 29.9860000  0  6 21  6 17 22 26 23
  19961058.643    -9908785.692 5  -7461485.088 4
  17012332.588   -21804315.892 7 -16802310.514 9
  16821510.783   -33661537.846 7 -26005906.201 9
  19640834.330   -15734159.734 5  -2300257.273 5
  18135767.416   -30672797.623 6 -23554454.455 7
  17084508.150   -35439362.907 7 -27478054.350 9
 95  2 19  8 48 59.9860000  0  6 21  6 17 22 26 23
  19931138.119   -10066010.528 5  -7583997.896 4
  17010667.291   -21813066.441 7 -16809129.137 9
  16805321.650   -33746617.967 7 -26072202.400 9
  19627022.361   -15806781.619 5  -2356845.774 5
  18123312.393   -30738249.652 6 -23605456.033 7
  17063738.619   -35548493.437 7 -27563091.118 9
 95  2 19  8 49 29.9860000  0  6 21  6 17 22 26 23
  19901260.049   -10223040.613 5  -7706358.984 5
  17009083.947   -21821387.946 7 -16815613.442 9
  16789166.541   -33831503.929 7 -26138347.298 9
  19613296.533   -15878886.910 5  -2413031.702 5
  18110968.650   -30803122.434 6 -23656006.242 8
  17043050.783   -35657228.121 7 -27647819.430 9
 95  2 19  8 49 59.9860000  0  6 21  6 17 22 26 23
  19871413.065   -10379877.521 5  -7828569.498 5
  17007583.424   -21829267.018 7 -16821752.987 9
  16773052.330   -33916199.228 7 -26204343.621 9
  19599674.111   -15950474.788 5  -2468814.474 5
  18098731.729   -30867411.031 6 -23706101.240 8
  17022434.721   -35765561.963 7 -27732235.406 9
 95  2 19  8 50 29.9860000  0  6 21  6 17 22 26 23
  19841605.440   -10536515.876 5  -7950625.341 5
  17006171.869   -21836692.272 7 -16827538.914 9
  16756968.979   -34000703.738 7 -26270191.302 9
  19586155.494   -16021547.160 5  -2524195.536 5
  18086612.619   -30931119.911 6 -23755744.522 7
  17001889.869   -35873507.352 6 -27816348.691 9
 95  2 19  8 50 59.9860000  0  6 21  6 17 22 26 23
  19811836.893   -10692957.646 5  -8072527.976 5
  17004846.291   -21843656.464 7 -16832965.566 9
  16740924.135   -34085024.912 7 -26335896.108 9
  19572722.424   -16092121.056 5  -2579188.195 5
  18074596.588   -30994250.099 6 -23804936.870 7
  16981425.877   -35981062.361 7 -27900157.774 9
 95  2 19  8 51 29.9860000  0  6 21  6 17 22 26 23
  19782103.869   -10849198.665 5  -8194274.173 5
  17003614.518   -21850131.290 7 -16838010.898 9
  16724913.650   -34169164.162 7 -26401459.160 9
  19559385.190   -16162212.584 5  -2633804.965 5
  18062694.658   -31056800.952 6 -23853677.790 8
  16961034.596   -36088211.233 7 -27983650.392 9
 95  2 19  8 51 59.9860000  0  6 21  6 17 22 26 23
  19752404.400   -11005254.247 5  -8315875.889 4
  17002476.877   -21856113.621 7 -16842672.460 9
  16708933.494   -34253131.924 7 -26466888.587 9
  19546135.111   -16231831.423 5  -2688053.406 5
  18050901.893   -31118784.464 6 -23901976.620 7
  16940717.854   -36194972.807 6 -28066841.213 9
 95  2 19  8 52 29.9860000  0  6 21  6 17 22 26 23
  19722743.893   -11161126.139 5  -8437334.491 5
  17001429.971   -21861612.067 7 -16846956.982 9
  16692986.307   -34336932.098 7 -26532187.422 9
  19532978.471   -16300986.814 5  -2741940.734 5
  18039207.275   -31180212.149 6 -23949842.342 7
  16920477.580   -36301353.622 6 -28149735.347 9
 95  2 19  8 52 59.9860000  0  6 21  6 17 22 26 23
  19693116.455   -11316829.509 5  -8558661.763 5
  17000472.127   -21866643.347 7 -16850877.466 9
  16677074.791   -34420563.447 7 -26597354.710 9
  19519903.143   -16369686.713 5  -2795473.131 5
  18027623.690   -31241096.186 6 -23997284.441 7
  16900304.494   -36407344.900 6 -28232325.945 9
 95  2 19  8 53 29.9860000  0  6 21  6 17 22 26 23
  19663521.369   -11472363.561 5  -8679857.093 5
  16999603.690   -21871204.266 7 -16854431.440 9
  16661194.307   -34504003.534 7 -26662372.962 9
  19506920.791   -16437910.602 5  -2848634.610 5
  18016139.916   -31301435.280 6 -24044301.912 7
  16880212.963   -36512937.675 6 -28314606.020 9
 95  2 19  8 53 59.9860000  0  6 21  6 17 22 26 23
  19633957.455   -11627711.060 5  -8800907.050 5
  16998822.877   -21875311.508 7 -16857631.903 9
  16645355.236   -34587239.794 7 -26727232.380 9
  19494030.174   -16505641.596 5  -2901412.022 5
  18004764.572   -31361216.311 6 -24090884.531 7
  16860196.713   -36618130.442 7 -28396574.403 9
 95  2 19  8 54 29.9860000  0  6 21  6 17 22 26 23
  19604428.846   -11782870.442 5  -8921810.431 5
  16998123.971   -21878986.957 7 -16860495.900 9
  16629554.580   -34670262.844 7 -26791925.671 9
  19481232.822   -16572887.822 5  -2953811.683 5
  17993502.096   -31420423.189 6 -24137019.761 7
  16840255.299   -36722907.894 6 -28478219.161 9
 95  2 19  8 54 59.9860000  0  6 21  6 17 22 26 23
  19574942.330   -11937839.093 5  -9042565.180 5
  16997506.557   -21882234.978 7 -16863026.839 9
  16613799.447   -34753067.238 7 -26856448.579 9
  19468532.174   -16639653.781 5  -3005837.109 5
  17982342.799   -31479045.838 6 -24182699.734 7
  16820395.065   -36827269.160 6 -28559539.621 9
 95  2 19  8 55 29.9860000  0  6 21  6 17 22 26 23
  19545493.791   -12092594.025 5  -9163153.404 5
  16996969.729   -21885040.407 7 -16865212.902 9
  16598082.752   -34835657.014 7 -26920804.247 9
  19455912.619   -16705935.521 5  -3057485.223 5
  17971303.588   -31537063.239 6 -24227908.092 7
  16800617.080   -36931223.315 7 -28640542.846 9
 95  2 19  8 55 59.9860000  0  6 21  6 17 22 26 23
  19516085.916   -12247136.178 5  -9283575.821 5
  16996521.025   -21887415.672 7 -16867063.774 8
  16582403.854   -34918048.298 7 -26985005.245 9
  19443391.104   -16771739.109 5  -3108760.770 5
  17960379.783   -31594476.001 6 -24272645.312 7
  16780912.486   -37034769.232 6 -28721227.970 9
 95  2 19  8 56 29.9860000  0  6 21  6 17 22 26 23
  19486716.611   -12401463.871 5  -9403831.098 5
  16996154.565   -21889341.978 7 -16868564.807 8
  16566770.190   -35000224.634 7 -27049038.748 9
  19430964.854   -16837044.100 5  -3159647.774 5
  17949564.518   -31651295.139 6 -24316919.960 7
  16761285.416   -37137896.198 6 -28801586.637 9
 95  2 19  8 56 59.9860000  0  6 21  6 17 22 26 23
  19457393.315   -12555565.592 5  -9523910.333 5
  16995871.846   -21890811.709 7 -16869710.065 8
  16551167.190   -35082199.397 7 -27112915.191 9
  19418641.182   -16901833.825 5  -3210133.272 5
  17938861.283   -31707554.014 6 -24360758.037 7
  16741739.432   -37240623.282 6 -28881633.705 9
 95  2 19  8 57 29.9860000  0  6 21  6 17 22 26 23
  19428108.666   -12709453.563 5  -9643822.995 5
  16995678.947   -21891847.701 7 -16870517.340 8
  16535603.244   -35163986.984 7 -27176645.782 9
  19406415.190   -16966100.185 5  -3260210.974 5
  17928258.518   -31763277.532 6 -24404178.956 7
  16722263.346   -37342954.572 6 -28961372.365 9
 95  2 19  8 57 59.9860000  0  6 21  6 17 22 26 23
  19398861.033   -12863141.357 5  -9763579.698 5
  16995558.322   -21892471.040 7 -16871003.078 8
  16520077.916   -35245578.765 7 -27240223.789 9
  19394281.080   -17029840.658 5  -3309878.870 5
  17917751.838   -31818484.214 7 -24447197.146 7
  16702867.525   -37444884.342 6 -29040798.155 9
 95  2 19  8 58 29.9860000  0  6 21  6 17 22 26 23
  19369656.619   -13016616.353 5  -9883170.549 5
  16995514.783   -21892678.299 7
  16504591.713   -35326972.142 7 -27303647.202 9
  19382250.916   -17093064.158 5  -3359143.952 5
  17907345.127   -31873158.642 6 -24489800.599 7
  16683544.783   -37546425.088 7 -29119920.809 9
 95  2 19  8 58 59.9860000  0  6 21  6 17 22 26 23
  19340494.346   -13169881.799 5 -10002598.104 5
  16995555.229   -21892482.032 7
  16489137.018   -35408178.034 7 -27366924.521 9
  19370310.135   -17155790.742 5  -3408021.812 5
  17897051.877   -31927266.142 6 -24531962.278 7
  16664296.127   -37647576.600 7 -29198740.156 9
 95  2 19  8 59 29.9850000  0  6 21  6 17 22 26 23
  19311365.114   -13322955.164 5 -10121875.997 5
  16995668.505   -21891886.458 7 -16870547.598 8
  16473718.513   -35489192.976 7 -27430053.045 9
  19358463.935   -17218037.774 5  -3456525.999 5
  17886869.161   -31980776.638 6 -24573658.765 7
  16645123.364   -37748327.470 7 -29277247.322 9
 95  2 19  8 59 59.9850000  0  6 21  6 17 22 26 23
  19282269.935   -13475842.586 5 -10241009.016 5
  16995864.489   -21890867.459 7 -16869753.581 8
  16458335.919   -35570026.998 7 -27493040.597 9
  19346717.036   -17279825.635 5  -3504672.393 5
  17876800.528   -32033681.335 6 -24614883.206 7
  16626026.263   -37848699.440 7 -29355459.245 9
 95  2 19  9  0 29.9850000  0  6 21  6 17 22 26 23
  19253218.177   -13628520.333 5 -10359978.666 5
  16996144.067   -21889393.911 7 -16868605.376 8
  16442994.388   -35650671.895 7 -27555880.776 9
  19335034.466   -17341152.285 5  -3552459.408 5
  17866849.380   -32085966.300 6 -24655624.734 7
  16606997.739   -37948679.477 7 -29433365.748 9
 95  2 19  9  0 59.9850000  0  6 21  6 17 22 26 23
  19224200.489   -13780999.301 5 -10478793.409 5
  16996511.497   -21887460.950 7 -16867099.189 8
  16427678.724   -35731130.789 7 -27618576.017 9
  19323457.919   -17402009.473 5  -3599880.587 5
  17857015.560   -32137656.283 6 -24695902.641 7
  16588053.317   -38048257.460 7 -29510958.973 9
 95  2 19  9  1 29.9850000  0  6 21  6 17 22 26 23
  19195225.677   -13933259.438 5 -10597437.635 5
  16996969.091   -21885048.110 6 -16865219.061 8
  16412404.239   -35811398.515 7 -27681122.302 9
  19311968.138   -17462391.428 5  -3646931.477 5
  17847287.224   -32188776.432 6 -24735736.518 7
  16569177.864   -38147429.780 7 -29588236.097 9
 95  2 19  9  1 59.9850000  0  6 21  6 17 22 26 23
  19166298.497   -14085281.030 5 -10715895.975 5
  16997518.357   -21882169.747 7 -16862976.200 8
  16397167.755   -35891476.786 7 -27743520.953 9
  19300567.294   -17522301.644 5  -3693614.768 5
  17837663.794   -32239344.144 6 -24775139.924 7
  16550381.161   -38246204.955 7 -29665203.756 9
 95  2 19  9  2 29.9850000  0  6 21  6 17 22 26 23
  19137413.255   -14237076.401 5 -10834178.048 5
  16998146.786   -21878855.150 6 -16860393.408 8
  16381966.833   -35971362.807 7 -27805769.801 9
  19289252.482   -17581742.603 5  -3739932.414 5
  17828144.091   -32289366.640 6 -24814118.483 7
  16531659.755   -38344581.707 7 -29741860.955 9
 95  2 19  9  2 59.9850000  0  6 21  6 17 22 26 23
  19108569.146   -14388648.722 5 -10952286.326 5
  16998858.622   -21875123.966 6 -16857486.002 8
  16366798.474   -36051061.564 7 -27867872.733 9
  19278034.458   -17640710.735 5  -3785881.599 5
  17818729.911   -32338845.498 6 -24852673.441 7
  16513012.841   -38442574.536 7 -29818218.999 9
 95  2 19  9  3 29.9850000  0  6 21  6 17 22 26 23
  19079767.880   -14539996.988 5 -11070220.015 5
  16999643.411   -21870993.544 6 -16854267.503 8
  16351667.857   -36130567.745 7 -27929825.600 9
  19266903.646   -17699216.387 5  -3831470.439 5
  17809417.646   -32387786.180 6 -24890809.035 7
  16494435.591   -38540206.347 7 -29894295.723 9
 95  2 19  9  3 59.9850000  0  6 21  6 17 22 26 23
  19051008.403   -14691124.384 5 -11187981.586 5
  17000508.435   -21866460.995 6 -16850735.661 8
  16336581.380   -36209858.395 7 -27991610.524 9
  19255860.317   -17757250.639 5  -3876691.942 5
  17800209.216   -32436165.561 6 -24928507.252 7
  16475928.708   -38637468.760 7 -29970084.607 9
 95  2 19  9  4 29.9850000  0  6 21  6 17 22 26 23
  19022291.200   -14842040.553 5 -11305578.578 5
  17001449.575   -21861509.165 6 -16846877.105 8
  16321534.396   -36288941.690 7 -28053233.873 9
  19244905.583   -17814813.022 5  -3921545.754 5
  17791105.630   -32483995.038 6 -24965776.967 7
  16457489.450   -38734358.602 7 -30045583.179 9
 95  2 19  9  4 59.9850000  0  6 21  6 17 22 26 23
  18993611.888   -14992733.502 5 -11423001.635 5
  17002473.841   -21856124.014 6 -16842680.897 8
  16306521.911   -36367819.352 7 -28114696.990 9
  19234041.982   -17871907.782 5  -3966035.178 5
  17782114.107   -32531265.358 6 -25002610.982 7
  16439125.763   -38830866.580 7 -30120784.193 9
 95  2 19  9  5 29.9850000  0  6 21  6 17 22 26 23
  18964977.099   -15143209.725 5 -11540255.815 5
  17003581.560   -21850301.744 6 -16838144.085 8
  16291548.528   -36446493.945 7 -28176001.867 9
  19223261.872   -17928540.104 5  -4010164.277 5
  17773224.708   -32577966.421 6 -25039001.420 7
  16420837.802   -38926975.217 7 -30195674.029 9
 95  2 19  9  5 59.9850000  0  6 21  6 17 22 26 23
  18936387.169   -15293477.642 5 -11657347.663 5
  17004774.716   -21844033.779 6 -16833259.969 8
  16276612.646   -36524985.229 7 -28237163.913 9
  19212574.732   -17984713.248 5  -4053935.576 5
  17764449.794   -32624085.472 6 -25074938.338 7
  16402627.708   -39022664.830 7 -30270237.358 9
 95  2 19  9  6 29.9850000  0  6 21  6 17 22 26 23
  18907827.169   -15443537.293 5 -11774277.240 5
  17006050.341   -21837331.378 6 -16828037.336 8
  16261711.591   -36603297.665 7 -28298186.599 9
  19201978.396   -18040421.467 5  -4097344.593 5
  17755784.185   -32669623.750 6 -25110422.705 7
  16384495.653   -39117938.188 7 -30344476.327 9
 95  2 19  9  6 59.9850000  0  6 21  6 17 22 26 23
  18879314.732   -15593390.331 5 -11891045.828 5
  17007404.216   -21830218.742 6 -16822495.034 8
  16246846.638   -36681417.691 7 -28359059.350 9
  19191463.763   -18095667.475 5  -4140393.437 5
  17747229.200   -32714571.706 6 -25145447.081 7
  16366448.575   -39212791.020 7 -30418387.617 9
 95  2 19  9  7 29.9850000  0  6 21  6 17 22 26 23
  18850836.685   -15743034.733 5 -12007651.826 5
  17008835.888   -21822698.780 6 -16816635.335 8
  16232016.997   -36759342.037 7 -28419779.620 9
  19181039.521   -18150440.177 5  -4183073.473 5
  17738785.966   -32758943.767 6 -25180022.710 7
  16348479.942   -39307221.741 7 -30491969.990 9
 95  2 19  9  7 59.9850000  0  6 21  6 17 22 26 23
  18822401.607   -15892464.918 5 -12124090.905 5
  17010340.497   -21814782.642 6 -16810466.926 8
  16217230.661   -36837057.091 7 -28480336.806 9
  19170706.825   -18204739.508 5  -4225384.645 5
  17730451.052   -32802749.264 6 -25214156.860 7
  16330585.060   -39401243.679 7 -30565233.834 9
 95  2 19  9  8 29.9850000  0  6 21  6 17 22 26 23
  18794010.708   -16041666.996 5 -12240352.240 5
  17011919.333   -21806491.848 6 -16804006.591 8
  16202483.107   -36914550.926 7 -28540721.613 9
  19160459.497   -18258567.160 5  -4267328.278 5
  17722223.239   -32845989.243 6 -25247850.344 7
  16312770.802   -39494869.869 7 -30638189.302 9
 95  2 19  9  8 59.9850000  0  6 21  6 17 22 26 23
  18765664.075   -16190638.021 5 -12356433.541 5
  17013570.489   -21797819.366 6 -16797248.822 8
  16187774.638   -36991835.527 7 -28600943.384 9
  19150310.505   -18311921.340 5  -4308902.980 5
  17714102.802   -32888669.262 6 -25281107.497 7
  16295027.911   -39588097.769 7 -30710834.408 9
 95  2 19  9  9 29.9850000  0  6 21  6 17 22 26 23
  18737357.849   -16339371.253 5 -12472329.538 5
  17015294.482   -21788755.407 6 -16790186.017 8
  16173109.560   -37068913.607 7 -28661004.224 9
  19140243.364   -18364795.476 5  -4350103.603 5
  17706087.466   -32930791.343 6 -25313929.898 7
  16277358.466   -39680945.699 7 -30783183.434 9
 95  2 19  9  9 59.9850000  0  6 21  6 17 22 26 23
  18709098.544   -16487868.022 5 -12588041.293 5
  17017092.966   -21779303.394 6 -16782820.818 8
  16158483.357   -37145779.169 7 -28720899.471 9
  19130270.880   -18417199.786 5  -4390938.142 5
  17698177.349   -32972350.087 6 -25346313.335 7
  16259759.927   -39773433.452 7 -30855251.807 9
 95  2 19  9 10 29.9850000  0  6 21  6 17 22 26 23
  18680885.903   -16636135.824 5 -12703574.619 5
  17018967.138   -21769444.959 6 -16775138.938 8
  16143892.567   -37222445.175 7 -28780639.214 9
  19120387.536   -18469137.404 5  -4431409.028 5
  17690374.458   -33013358.215 6 -25378267.716 7
  16242229.575   -39865558.097 7 -30927037.240 9
 95  2 19  9 10 59.9840000  0  6 21  6 17 22 26 23
  18652711.141   -16784187.716 5 -12818939.695 5
  17020924.195   -21759166.619 6 -16767129.851 7
  16129342.188   -37298912.864 7 -28840224.430 9
  19110594.641   -18520610.584 5  -4471518.005 5
  17682671.156   -33053832.161 6 -25409805.846 7
  16224765.172   -39957324.070 7 -30998543.190 9
 95  2 19  9 11 29.9840000  0  7 28 21  6 17 22 26 23
  20170637.914     -176973.678 3
  18624579.563   -16932027.741 5 -12934139.690 6
  17022960.539   -21748468.636 6 -16758793.780 7
  16114831.203   -37375169.458 7 -28899645.154 9
  19100883.406   -18571647.417 5  -4511286.965 5
  17675072.734   -33093770.143 6 -25440926.352 7
  16207370.438   -40048737.957 7 -31069774.788 9
 95  2 19  9 11 59.9840000  0  7 28 21  6 17 22 26 23
  20136971.602     -353869.174 3        -0.42513
  18596489.930   -17079645.080 5 -13049166.176 5
  17025081.024   -21737333.359 6 -16750116.954 7
  16100361.453   -37451201.074 7 -28958890.568 9
  19091257.008   -18622244.859 5  -4550713.554 5
  17667576.836   -33133154.514 6 -25471615.477 7
  16190047.922   -40139777.511 7 -31140714.693 9
 95  2 19  9 12 29.9840000  0  7 28 21  6 17 22 26 23
  20103329.328     -530688.416 3   -137781.665 2
  18568436.399   -17227054.159 5 -13164030.365 6
  17027279.555   -21725771.977 6 -16741108.099 8
  16085933.906   -37527019.522 7 -29017969.879 9
  19081709.656   -18672409.208 5  -4589802.666 5
  17660187.367   -33171986.036 6 -25501873.801 7
  16172797.758   -40230426.020 7 -31211349.889 9
 95  2 19  9 12 59.9840000  0  7 28 21  6 17 22 26 23
  20069689.930     -707424.377 3   -275497.995 2
  18540432.555   -17374232.689 5 -13278714.915 5
  17029554.867   -21713811.480 6 -16731788.250 7
  16071548.141   -37602621.201 7 -29076880.288 9
  19072248.805   -18722139.123 5  -4628553.258 5
  17652908.766   -33210239.546 6 -25531681.728 7
  16155620.867   -40320684.108 7 -31281680.854 9
 95  2 19  9 13 29.9840000  0  7 28 21  6 17 22 26 23
  20036073.539     -884074.397 3   -413147.377 2
  18512470.641   -17521171.481 5 -13393212.660 5
  17031906.320   -21701459.097 6 -16722163.028 7
  16057202.867   -37678011.267 7 -29135625.792 9
  19062867.117   -18771431.961 5  -4666963.263 5
  17645739.586   -33247909.849 6 -25561035.209 7
  16138522.000   -40410549.244 7 -31351705.637 9
 95  2 19  9 13 59.9840000  0  7 28 21  6 17 22 26 23
  20002477.039    -1060641.249 3   -550731.949 2
  18484547.313   -17667889.646 5 -13507538.490 5
  17034325.649   -21688738.834 6 -16712251.152 7
  16042888.813   -37753216.868 7 -29194227.565 9
  19053580.508   -18820274.050 5  -4705022.053 5
  17638681.102   -33285008.848 6 -25589943.519 7
  16121495.320   -40500030.359 7 -31421431.169 9
 95  2 19  9 14 29.9840000  0  7 28 21  6 17 22 26 23
  19968895.602    -1237116.952 3   -688245.488 2
  18456671.906   -17814380.991 6 -13621687.574 6
  17036811.258   -21675672.650 6 -16702069.729 7
  16028612.094   -37828237.020 7 -29252684.826 9
  19044362.086   -18868658.668 5  -4742724.356 5
  17631728.484   -33321547.874 6 -25618415.486 7
  16104541.383   -40589117.803 7 -31490849.954 9
 95  2 19  9 14 59.9840000  0  7 28 21  6 17 22 26 23
  19935332.969    -1413501.496 3   -825687.965 4
  18428840.133   -17960638.127 6 -13735654.150 6
  17039366.930   -21662253.883 6 -16691613.561 7
  16014372.125   -37903070.508 7 -29310996.636 9
  19035246.563   -18916589.864 5  -4780073.347 5
  17624874.125   -33357554.846 6 -25646472.865 7
  16087659.719   -40677826.849 7 -31559973.883 9
 95  2 19  9 15 29.9840000  0  7 28 21  6 17 22 26 23
  19901784.969    -1589795.171 3   -963059.643 3
  18401049.867   -18106676.088 6 -13849449.959 6
  17041990.219   -21648463.925 6 -16680868.151 7
  16000168.391   -37977710.670 7 -29369157.807 9
  19026204.328   -18964069.265 5  -4817070.288 5
  17618118.688   -33393058.390 6 -25674137.960 7
  16070854.617   -40766152.794 7 -31628799.281 9
 95  2 19  9 15 59.9840000  0  7 28 21  6 17 22 26 23
  19868256.172    -1765986.325 3  -1100351.438 4
  18373303.953   -18252484.311 6 -13963066.729 6
  17044684.602   -21634303.894 6 -16669834.377 7
  15986007.383   -38052139.550 7 -29427154.343 9
  19017264.852   -19011103.870 5  -4853720.634 5
  17611458.852   -33428053.503 6 -25701406.874 7
  16054120.563   -40854084.136 7 -31697317.203 9
 95  2 19  9 16 29.9840000  0  7 28 21  6 17 22 26 23
  19834746.430    -1942073.667 3  -1237562.347 5
  18345603.016   -18398053.105 6 -14076496.953 6
  17047454.852   -21619748.934 6 -16658492.865 7
  15971890.016   -38126341.580 7 -29484974.109 9
  19008393.078   -19057706.005 5  -4890033.982 5
  17604895.258   -33462545.699 6 -25728283.908 7
  16037457.430   -40941625.126 7 -31765530.955 9
 95  2 19  9 16 59.9840000  0  7 28 21  6 17 22 26 23
  19801261.977    -2118056.206 3  -1374691.553 4
  18317951.274   -18543373.535 6 -14189733.630 6
  17050305.406   -21604776.759 6 -16646826.258 7
  15957808.852   -38200310.103 7 -29542611.917 9
  18999602.555   -19103876.527 5  -4926011.035 5
  17598430.859   -33496522.044 6 -25754758.977 7
  16020873.625   -41028793.740 7 -31833454.546 9
 95  2 19  9 17 29.9840000  0  7 28 21  6 17 22 26 23
  19767792.445    -2293936.221 4  -1511740.926 2
  18290342.516   -18688450.715 6 -14302780.766 6
  17053230.594   -21589405.804 6 -16634848.912 7
  15943780.594   -38274051.326 7 -29600072.613 9
  18990900.680   -19149614.578 5  -4961651.106 5
  17592070.227   -33529947.417 6 -25780804.722 7
  16004354.992   -41115584.149 7 -31901083.432 9
 95  2 19  9 17 59.9840000  0  7 28 21  6 17 22 26 23
  19734344.672    -2469703.201 4  -1648702.192 4
  18262783.305   -18833277.766 6 -14415633.005 6
  17056231.039   -21573631.861 6 -16622557.542 7
  15929788.289   -38347559.987 7 -29657352.094 9
  18982285.602   -19194912.789 5  -4996948.397 5
  17585819.625   -33562791.474 6 -25806397.490 7
  15987918.609   -41201982.908 7 -31968407.135 9
 95  2 19  9 18 29.9840000  0  7 28 21  6 17 22 26 23
  19700920.188    -2645358.120 5  -1785576.159 2
  18235271.320   -18977854.176 6 -14528289.937 6
  17059310.234   -21557455.315 6 -16609952.456 7
  15915842.031   -38420851.756 7 -29714462.570 9
  18973741.961   -19239763.352 5  -5031896.894 5
  17579679.195   -33595055.979 6 -25831538.654 7
  15971550.180   -41287992.843 7 -32035427.855 9
 95  2 19  9 18 59.9840000  0  7 28 21  6 17 22 26 23
  19667513.391    -2820901.018 5  -1922362.820 2
  18207807.117   -19122183.319 6 -14640754.195 6
  17062456.078   -21540908.801 6 -16597059.086 7
  15901934.359   -38493944.504 7 -29771417.957 9
  18965295.117   -19284166.734 5  -5066496.933 5
  17573653.711   -33626734.072 6 -25856222.876 7
  15955256.156   -41373610.517 7 -32102142.922 9
 95  2 19  9 19 29.9840000  0  7 28 21  6 17 22 26 23
  19634127.649    -2996331.555 5  -2059061.941 2
  18180389.266   -19266275.506 6 -14753033.808 6
  17065673.406   -21524003.786 6 -16583886.366 7
  15888060.547   -38566847.250 7 -29828225.296 9
  18956926.672   -19328136.581 5  -5100759.173 5
  17567732.172   -33657838.638 6 -25880460.205 7
  15939038.625   -41458829.588 7 -32168547.388 9
 95  2 19  9 19 59.9840000  0  7 28 21  6 17 22 26 23
  19600766.305    -3171645.732 5  -2195670.381 3
  18153012.031   -19410126.270 6 -14865125.308 6
  17068960.391   -21506736.394 6 -16570431.267 7
  15874224.547   -38639551.198 7 -29884877.730 9
  18948640.024   -19371677.833 5  -5134687.435 5
  17561917.266   -33688402.975 6 -25904276.570 7
  15922897.008   -41543675.007 7 -32234660.697 9
 95  2 19  9 20 29.9840000  0  7 28 21  6 17 22 26 23
  19567430.070    -3346840.216 4  -2332185.559 4
  18125683.766   -19553728.850 6 -14977023.423 6
  17072312.602   -21489120.800 6 -16556704.843 7
  15860427.586   -38712054.779 7 -29941374.032 9
  18940435.375   -19414798.150 5  -5168287.690 5
  17556199.789   -33718444.146 6 -25927685.270 7
  15906818.047   -41628173.920 7 -32300503.997 9
 95  2 19  9 20 59.9840000  0  7 28 21  6 17 22 26 23
  19534113.289    -3521912.943 4  -2468605.861 2
  18098402.727   -19697094.247 6 -15088736.693 6
  17075729.508   -21471162.992 6 -16542711.776 7
  15846674.250   -38784337.797 7 -29997698.465 9
  18932312.203   -19457504.439 5  -5201565.328 5
  17550584.141   -33747964.229 6 -25950687.929 7
  15890797.094   -41712341.848 7 -32366089.374 9
 95  2 19  9 21 29.9840000  0  7 28 21  6 17 22 26 23
  19500819.953    -3696861.276 4  -2604929.234 2
  18071168.563   -19840226.375 6 -15200268.216 6
  17079213.227   -21452856.735 6 -16528447.181 7
  15832964.758   -38856382.715 7 -30053837.364 9
  18924261.625   -19499806.770 5  -5234528.192 5
  17545061.867   -33776978.662 6 -25973296.573 7
  15874844.586   -41796174.062 7 -32431413.182 9
 95  2 19  9 21 59.9830000  0  7 28 21  6 17 22 26 23
  19467557.175    -3871678.130 4  -2741150.143 3
  18043974.573   -19983127.077 6 -15311619.404 6
  17082759.253   -21434219.340 6 -16513924.559 7
  15819298.995   -38928185.607 7 -30109787.681 9
  18916283.323   -19541704.593 5  -5267175.863 5
  17539636.487   -33805486.437 6 -25995510.422 7
  15858960.120   -41879660.346 7 -32496467.423 9
 95  2 19  9 22 29.9830000  0  7 28 21  6 17 22 26 23
  19434312.816    -4046372.186 3  -2877275.387 3
  18016822.206   -20125803.558 6 -15422795.868 6
  17086370.034   -21415245.816 6 -16499139.996 7
  15805682.839   -38999764.347 7 -30165563.320 9
  18908389.089   -19583202.522 5  -5299511.918 5
  17534311.300   -33833467.470 6 -26017313.825 7
  15843140.441   -41962778.240 7 -32561234.611 9
 95  2 19  9 22 59.9830000  0  7 28 21  6 17 22 26 23
  19401095.917    -4220932.513 3  -3013296.396 3
  17989717.261   -20268251.414 6 -15533794.192 6
  17090049.683   -21395921.984 6 -16484082.488 7
  15792102.347   -39071110.702 7 -30221157.880 9
  18900576.839   -19624292.454 5  -5331530.066 5
  17529089.909   -33860910.761 6 -26038698.201 7
  15827401.972   -42045493.243 7 -32625687.860 9
 95  2 19  9 23 29.9830000  0  7 28 21  6 17 22 26 23
  19367904.566    -4395354.195 3  -3149209.387 2
  17962657.800   -20410464.796 6 -15644609.804 6
  17093795.448   -21376233.774 6 -16468741.050 7
  15778566.339   -39142235.919 7 -30276580.127 9
  18892830.566   -19664969.301 5  -5363226.304 5
  17523970.636   -33887808.556 6 -26059657.521 7
  15811741.206   -42127789.124 7 -32689814.513 9
 95  2 19  9 23 59.9830000  0  7 28 21  6 17 22 26 23
  19334735.730    -4569638.853 4  -3285015.613 4
  17935633.730   -20552449.749 6 -15755247.410 6
  17097610.089   -21356178.024 6 -16453113.213 7
  15765071.159   -39213156.247 7 -30331842.730 9
  18885169.066   -19705226.245 5  -5394595.366 5
  17518956.933   -33914152.376 6 -26080185.173 7
  15796157.362   -42209687.340 7 -32753631.298 9
 95  2 19  9 24 29.9830000  0  7 28 21  6 17 22 26 23
  19301605.886    -4743782.433 4  -3420711.889 4
  17908661.730   -20694203.487 6 -15865704.860 6
  17101499.722   -21335739.901 6 -16437187.424 7
  15751615.636   -39283867.991 7 -30386942.787 9
  18877588.448   -19745066.855 5  -5425640.014 5
  17514051.526   -33939937.726 6 -26100277.645 7
  15780644.612   -42291202.566 7 -32817149.652 9
 95  2 19  9 24 59.9830000  0  7 28 21  6 17 22 26 23
  19268492.026    -4917780.755 4  -3556294.992 4
  17881729.558   -20835731.096 6 -15975986.102 6
  17105460.800   -21314925.674 6 -16420968.556 6
  15738201.753   -39354357.801 7 -30441869.912 9
  18870085.542   -19784494.710 5  -5456363.026 5
  17509248.558   -33965178.500 6 -26119945.787 7
  15765201.081   -42372357.721 7 -32880387.429 9
 95  2 19  9 25 29.9830000  0  7 28 21  6 17 22 26 23
  19235406.401    -5091635.836 4  -3691766.471 4
  17854837.198   -20977042.508 6 -16086098.878 6
  17109491.886   -21293750.324 6 -16404468.301 7
  15724828.659   -39424635.377 7 -30496631.668 9
  18862661.589   -19823526.100 5  -5486777.116 5
  17504546.066   -33989885.884 6 -26139198.294 7
  15749824.495   -42453176.201 7 -32943362.863 9
 95  2 19  9 25 59.9830000  0  7 28 21  6 17 22 26 23
  19202345.292    -5265345.800 4  -3827124.873 5
  17827989.433   -21118134.751 6 -16196040.866 6
  17113584.808   -21272236.119 6 -16387704.007 6
  15711495.862   -39494704.876 7 -30551231.275 9
  18855315.128   -19862163.927 5  -5516884.530 5
  17499942.331   -34014075.610 6 -26158047.431 7
  15734504.487   -42533669.907 7 -33006085.228 9
 95  2 19  9 26 29.9830000  0  7 28 21  6 17 22 26 23
  19169328.339    -5438904.117 5  -3962365.107 5
  17801185.058   -21258986.555 6 -16305795.516 6
  17117743.831   -21250385.784 6 -16370677.795 6
  15698203.948   -39564560.091 7 -30605663.914 9
  18848026.378   -19900419.012 5  -5546693.695 5
  17495435.964   -34037756.230 6 -26176499.867 7
  15719249.573   -42613829.854 7 -33068547.519 9
 95  2 19  9 26 59.9830000  0  7 28 21  6 17 22 26 23
  19136325.612    -5612312.476 5  -4097488.486 4
  17774428.433   -21399599.250 6 -16415363.837 6
  17121961.714   -21228212.668 6 -16353400.061 6
  15684946.714   -39634211.349 7 -30659937.625 9
  18840816.886   -19938286.912 5  -5576201.175 5
  17491023.823   -34060946.237 6 -26194569.993 7
  15704066.120   -42693644.611 7 -33130740.832 9
 95  2 19  9 27 29.9830000  0  7 28 21  6 17 22 26 23
  19103355.487    -5785562.954 5  -4232488.843 5
  17747718.183   -21539960.465 6 -16524736.194 6
  17126243.097   -21205714.153 6 -16335868.785 6
  15671736.206   -39703656.930 7 -30714051.065 9
  18833692.823   -19975752.157 5  -5605394.883 5
  17486704.933   -34083639.822 6 -26212253.306 7
  15688941.636   -42773097.778 7 -33192652.384 9
 95  2 19  9 27 59.9830000  0  7 28 21  6 17 22 26 23
  19070422.519    -5958646.530 5  -4367359.145 5
  17721062.487   -21680048.364 6 -16633895.592 6
  17130589.073   -21182880.863 6 -16318076.606 6
  15658557.776   -39772889.801 7 -30767998.760 9
  18826642.542   -20012808.949 5  -5634270.321 5
  17482483.316   -34105829.221 6 -26229543.753 7
  15673896.151   -42852181.924 7 -33254276.389 9
 95  2 19  9 28 29.9830000  0  7 28 21  6 17 22 26 23
  19037511.550    -6131563.475 5  -4502099.621 5
  17694451.019   -21819870.889 6 -16742848.193 6
  17134998.386   -21159706.348 6 -16300018.567 6
  15645425.417   -39841902.107 7 -30821774.593 9
  18819658.722   -20049477.043 5  -5662842.879 5
  17478356.644   -34127510.069 6 -26246437.918 7
  15658915.362   -42930893.701 7 -33315610.241 9
 95  2 19  9 28 59.9830000  0  7 28 21  6 17 22 26 23
  19004635.409    -6304324.187 5  -4636718.338 5
  17667891.675   -21959448.457 6 -16851609.919 6
  17139470.316   -21136209.347 6 -16281709.230 6
  15632337.261   -39910696.205 7 -30875380.377 9
  18812757.120   -20085757.274 5  -5691113.214 5
  17474326.441   -34148690.687 6 -26262942.296 7
  15644004.292   -43009244.610 7 -33376662.883 9
 95  2 19  9 29 29.9830000  0  7 28 21  6 17 22 26 23
  18971793.792    -6476921.993 5  -4771210.118 5
  17641381.300   -22098772.319 6 -16960173.972 6
  17144005.073   -21112391.004 6 -16263149.503 6
  15619288.347   -39979265.378 7 -30928810.903 9
  18805931.526   -20121650.933 5  -5719082.298 5
  17470393.714   -34169358.644 6 -26279047.195 7
  15629161.456   -43087240.567 7 -33437438.942 9
 95  2 19  9 29 59.9830000  0  7 28 21  6 17 22 26 23
  18938982.839    -6649352.613 5  -4905571.621 4
  17614912.948   -22237843.996 6 -17068541.497 6
  17148596.066   -21088249.844 6 -16244338.215 6
  15606284.089   -40047601.661 7 -30982059.959 9
  18799175.401   -20157161.853 5  -5746753.172 4
  17466557.300   -34189514.226 6 -26294752.844 7
  15614390.230   -43164870.549 7 -33497929.829 9
 95  2 19  9 30 29.9830000  0  7 28 21  6 17 22 26 23
  18906207.284    -6821609.638 5  -5039797.849 5
  17588497.167   -22376673.731 6 -17176720.505 6
  17153252.105   -21063783.155 6 -16225273.285 6
  15593327.230   -40115696.762 7 -31035121.083 9
  18792489.066   -20192277.926 5  -5774116.364 5
  17462820.214   -34209157.365 6 -26310059.188 7
  15599689.730   -43242124.561 7 -33558127.749 9
 95  2 19  9 30 59.9830000  0  7 28 21  6 17 22 26 23
  18873455.409    -6993690.337 5  -5173886.689 4
  17562123.636   -22515264.410 6 -17284713.225 6
  17157966.956   -21038996.568 6 -16205959.070 6
  15580414.433   -40183551.701 7 -31087995.066 9
  18785890.784   -20226989.250 5  -5801164.148 5
  17459178.620   -34228296.843 6 -26324973.066 7
  15585058.573   -43319006.231 7 -33618035.534 9
 95  2 19  9 31 29.9830000  0  7 28 21  6 17 22 26 23
  18840745.714    -7165591.436 5  -5307835.576 5
  17535796.441   -22653626.297 6 -17392527.675 6
  17162745.909   -21013886.336 6 -16186392.672 6
  15567546.612   -40251162.615 7 -31140678.903 9
  18779355.339   -20261308.359 5  -5827906.318 5
  17455629.909   -34246936.640 6 -26339497.576 7
  15570500.347   -43395521.600 7 -33677657.893 9
 95  2 19  9 31 59.9830000  0  7 28 21  6 17 22 26 23
  18808072.230    -7337315.409 5  -5441646.440 5
  17509506.331   -22791764.303 6 -17500167.677 6
  17167587.464   -20988453.805 6 -16166575.118 6
  15554727.066   -40318527.182 7 -31193170.771 9
  18772893.941   -20295247.763 5  -5854352.609 4
  17452179.292   -34265078.557 6 -26353634.133 7
  15556007.245   -43471687.641 7 -33737008.050 9
 95  2 19  9 32 29.9830000  0  7 28 21  6 17 22 26 23
  18775425.347    -7508858.762 5  -5575316.574 4
  17483263.284   -22929673.207 6 -17607629.158 6
  17172487.487   -20962700.017 6 -16146507.249 6
  15541955.831   -40385652.472 7 -31245476.194 9
  18766507.308   -20328821.927 5  -5880514.305 5
  17448821.058   -34282722.683 6 -26367382.807 7
  15541571.058   -43547528.464 7 -33796104.793 9
 95  2 19  9 32 59.9830000  0  7 28 21  6 17 22 26 23
  18742813.167    -7680212.880 5  -5708839.250 5
  17457070.105   -23067331.808 6 -17714895.597 6
  17177448.448   -20936631.146 6 -16126193.870 6
  15529225.464   -40452538.168 7 -31297594.923 9
  18760187.909   -20362027.296 5  -5906388.647 4
  17445560.089   -34299862.181 6 -26380738.258 7
  15527202.026   -43623057.633 7 -33854958.688 8
 95  2 19  9 33 29.9820000  0  7 28 21  6 17 22 26 23
  18710252.264    -7851368.998 5  -5842207.633 5
  17430926.529   -23204714.519 6 -17821947.054 6
  17182469.865   -20910247.338 6 -16105635.068 6
  15516542.818   -40519193.461 7 -31349534.121 9
  18753947.068   -20394861.330 5  -5931973.624 4
  17442395.693   -34316488.273 6 -26393693.653 7
  15512887.490   -43698273.986 7 -33913568.825 9
 95  2 19  9 33 59.9820000  0  7 28 21  6 17 22 26 23
  18677717.693    -8022338.496 5  -5975430.603 4
  17404834.467   -23341821.672 6 -17928783.794 6
  17187548.631   -20883544.493 6 -16084827.681 6
  15503897.990   -40585639.658 7 -31401310.376 9
  18747763.311   -20427328.071 5  -5957272.410 4
  17439328.951   -34332608.541 6 -26406254.901 7
  15498633.748   -43773173.166 7 -33971931.822 9
 95  2 19  9 34 29.9820000  0  7 28 21  6 17 22 26 23
  18645216.193    -8193114.196 5  -6108502.562 3
  17378796.772   -23478657.628 6 -18035409.204 6
  17192690.326   -20856535.427 6 -16063781.665 6
  15491293.084   -40651883.037 7 -31452928.602 9
  18741645.725   -20459429.607 5  -5982286.641 4
  17436354.889   -34348237.195 6 -26418433.074 7
  15484444.928   -43847734.750 7 -34030031.750 9
 95  2 19  9 34 59.9820000  0  7 28 21  6 17 22 26 23
  18612754.318    -8363686.200 5  -6241415.795 5
  17352807.264   -23615225.042 6 -18141825.366 6
  17197886.029   -20829219.383 6 -16042496.459 6
  15478727.420   -40717905.265 7 -31504374.498 9
  18735615.506   -20491150.163 5  -6007003.976 4
  17433474.990   -34363367.363 6 -26430222.815 7
  15470329.326   -43921929.702 7 -34087845.995 9
 95  2 19  9 35 29.9820000  0  7 28 21  6 17 22 26 23
  18580337.608    -8534054.863 5  -6374170.601 5
  17326868.381   -23751545.214 6 -18248048.877 6
  17203142.834   -20801593.028 6 -16020969.433 6
  15466206.186   -40783701.818 7 -31555644.540 9
  18729649.045   -20522512.309 5  -6031442.012 3
  17430689.506   -34378009.907 6 -26441632.592 7
  15456283.623   -43995732.457 7 -34145354.628 9
 95  2 19  9 35 59.9820000  0  7 28 21  6 17 22 26 23
  18547961.186    -8704216.443 5  -6506764.016 4
  17300970.568   -23887634.777 6 -18354092.686 6
  17208461.264   -20773664.561 6 -15999207.012 6
  15453733.639   -40849249.720 7 -31606720.835 9
  18723743.608   -20553526.594 5  -6055608.969 5
  17427993.928   -34392173.123 6 -26452668.865 7
  15442313.381   -44069140.128 7 -34202555.406 8
 95  2 19  9 36 29.9820000  0  7 28 21  6 17 22 26 23
  18515612.795    -8874175.597 5  -6639199.720 5
  17275118.186   -24023495.889 6 -18459958.483 6
  17213827.483   -20745463.220 6 -15977231.959 6
  15441308.350   -40914549.097 7 -31657603.465 9
  18717911.553   -20584206.369 5  -6079515.292 4
  17425387.662   -34405864.300 6 -26463337.318 6
  15428416.834   -44142172.865 7 -34259464.025 8
 95  2 19  9 36 59.9820000  0  7 28 21  6 17 22 26 23
  18483307.943    -9043924.891 5  -6771471.895 5
  17249312.154   -24159115.924 6 -18565636.432 6
  17219248.303   -20716969.949 6 -15955029.426 6
  15428930.350   -40979591.005 7 -31708285.478 9
  18712136.498   -20614541.815 5  -6103153.327 4
  17422875.201   -34419068.811 6 -26473626.544 7
  15414587.420   -44214839.122 7 -34316087.077 8
 95  2 19  9 37 29.9820000  0  7 28 21  6 17 22 26 23
  18451053.436    -9213463.031 5  -6903579.531 5
  17223552.545   -24294478.876 6 -18671114.050 6
  17224724.233   -20688185.090 6 -15932599.692 6
  15416600.662   -41044380.197 7 -31758770.567 9
  18706428.811   -20644534.231 5  -6126524.053 5
  17420454.686   -34431791.060 6 -26483539.989 6
  15400828.850   -44287155.259 7 -34372437.312 9
 95  2 19  9 37 59.9820000  0  7 28 21  6 17 22 26 23
  18418830.428    -9382793.243 5  -7035525.166 5
  17197843.037   -24429577.038 6 -18776385.341 6
  17230255.725   -20659119.914 6 -15909951.502 6
  15404319.662   -41108925.408 7 -31809065.534 9
  18700785.858   -20674171.190 5  -6149617.816 4
  17418124.006   -34444033.960 6 -26493079.898 7
  15387128.475   -44359151.673 7 -34428538.407 8
 95  2 19  9 38 29.9820000  0  7 28 21  6 17 22 26 23
  18386647.201    -9551907.627 5  -7167302.609 5
  17172186.826   -24564405.583 6 -18881446.533 6
  17235843.514   -20629765.946 6 -15887078.301 6
  15392081.514   -41173237.317 7 -31859178.713 9
  18695216.326   -20703440.011 5  -6172424.712 4
  17415888.881   -34455791.966 6 -26502241.995 7
  15373484.100   -44430829.298 7 -34484391.101 9
 95  2 19  9 38 59.9820000  0  7 28 21  6 17 22 26 23
  18354507.459    -9720804.011 5  -7298910.186 5
  17146580.647   -24698972.274 6 -18986303.684 6
  17241484.311   -20600116.555 6 -15863974.895 6
  15379888.295   -41237318.495 7 -31909112.107 9
  18689717.795   -20732337.372 5  -6194942.153 5
  17413740.654   -34467074.044 6 -26511033.224 7
  15359906.998   -44502189.438 7 -34539996.401 8
 95  2 19  9 39 29.9820000  0  7 28 21  6 17 22 26 23
  18322409.459    -9889473.090 5  -7430340.647 5
  17121021.709   -24833274.456 6 -19090954.733 6
  17247180.553   -20570178.880 6 -15840646.851 6
  15367736.139   -41301166.970 7 -31958864.166 9
  18684289.858   -20760866.355 5  -6217172.547 5
  17411682.865   -34477889.056 6 -26519460.511 7
  15346392.115   -44573219.261 7 -34595344.305 9
 95  2 19  9 39 59.9820000  0  7 28 21  6 17 22 26 23
  18290357.990   -10057921.328 5  -7561599.027 5
  17095510.795   -24967334.209 6 -19195416.875 6
  17252932.131   -20539960.167 6 -15817099.809 6
  15355629.240   -41364803.383 7 -32008450.984 9
  18678924.795   -20789038.657 5  -6239125.002 5
  17409711.436   -34488248.198 6 -26527532.578 6
  15332934.670   -44643922.191 7 -34650437.495 9
 95  2 19  9 40 29.9820000  0  7 28 21  6 17 22 26 23
  18258342.068   -10226143.930 5  -7692681.588 5
  17070044.834   -25101151.462 6 -19299690.053 6
  17258739.459   -20509460.180 6 -15793333.596 6
  15343558.358   -41428220.973 7 -32057867.288 9
  18673636.451   -20816870.587 5  -6260812.249 5
  17407828.178   -34498142.565 6 -26535242.467 6
  15319547.654   -44714285.927 7 -34705266.377 9
 95  2 19  9 40 59.9820000  0  7 28 21  6 17 22 26 23
  18226375.358   -10394140.214 5  -7823587.785 5
  17044629.272   -25234726.544 6 -19403774.521 6
  17264592.834   -20478677.529 6 -15769347.131 6
  15331536.889   -41491410.940 7 -32107106.230 9
  18668392.279   -20844377.437 5  -6282246.173 4
  17406033.756   -34507571.997 6 -26542590.077 6
  15306219.193   -44784313.513 7 -34759833.320 9
 95  2 19  9 41 29.9820000  0  7 28 21  6 17 22 26 23
  18194450.225   -10561907.840 5  -7954315.816 5
  17019255.115   -25368065.427 6 -19507674.936 6
  17270504.639   -20447615.687 6 -15745143.116 6
  15319552.045   -41554369.821 7 -32156165.108 9
  18663222.451   -20871573.448 5  -6303437.897 5
  17404331.600   -34516520.815 6 -26549563.184 6
  15292961.850   -44854003.124 7 -34814136.903 8
 95  2 19  9 41 59.9820000  0  7 28 21  6 17 22 26 23
  18162570.959   -10729442.068 5  -8084861.962 5
  16993924.701   -25501169.775 6 -19611392.592 6
  17276466.748   -20416284.378 5 -15720729.118 6
  15307619.873   -41617094.233 7 -32205041.277 9
  18658109.287   -20898460.996 5  -6324389.256 5
  17402721.209   -34524982.952 6 -26556157.058 6
  15279758.022   -44923368.236 7 -34868187.639 8
 95  2 19  9 42 29.9820000  0  7 28 21  6 17 22 26 23
  18130730.912   -10896741.682 5  -8215225.299 5
  16968639.842   -25634043.617 6 -19714930.638 6
  17282476.826   -20384696.731 6 -15696115.379 6
  15295731.389   -41679569.625 7 -32253723.408 9
  18653048.936   -20925057.412 5  -6345113.751 5
  17401203.279   -34532963.283 6 -26562375.500 6
  15266617.748   -44992424.152 7 -34921997.436 9
 95  2 19  9 42 59.9820000  0  7 28 21  6 17 22 26 23
  18098945.803   -11063798.833 5  -8345399.695 5
  16943399.404   -25766681.605 6 -19818284.892 6
  17288538.428   -20352846.391 5 -15671296.945 6
  15283888.256   -41741793.237 7 -32302209.337 9
  18648041.686   -20951348.226 5  -6365600.102 5
  17399773.756   -34540472.918 6 -26568227.162 6
  15253538.373   -45061176.461 7 -34975570.659 9
 95  2 19  9 43 29.9820000  0  7 28 21  6 17 22 26 23
  18067196.443   -11230611.752 5  -8475383.780 5
  16918205.623   -25899079.365 6 -19921451.951 6
  17294648.475   -20320744.097 6 -15646282.191 6
  15272093.686   -41803770.728 7 -32350503.491 9
  18643101.068   -20977317.024 5  -6385835.547 4
  17398430.623   -34547521.423 6 -26573719.503 6
  15240513.787   -45129617.069 7 -35028900.997 9
 95  2 19  9 43 59.9820000  0  7 28 21  6 17 22 26 23
  18035501.756   -11397174.866 5  -8605173.212 5
  16893059.858   -26031220.300 6 -20024418.887 6
  17300808.561   -20288378.250 6 -15621062.061 6
  15260349.467   -41865493.588 7 -32398599.230 9
  18638217.795   -21002944.437 5  -6405804.976 4
  17397175.733   -34554128.477 6 -26578867.862 6
  15227549.311   -45197739.229 7 -35081983.189 9
 95  2 19  9 44 29.9810000  0  7 28 21  6 17 22 26 23
  18003856.845   -11563487.622 5  -8734767.551 5
  16867964.650   -26163093.618 6 -20127177.314 7
  17307018.485   -20255742.774 5 -15595631.848 6
  15248652.790   -41926958.427 7 -32446493.915 9
  18633410.876   -21028235.044 5  -6425511.943 5
  17396000.384   -34560295.630 6 -26583673.442 6
  15214647.650   -45265527.966 7 -35134805.582 9
 95  2 19  9 44 59.9810000  0  7 28 21  6 17 22 26 23
  17972257.032   -11729554.566 5  -8864170.360 5
  16842921.868   -26294697.520 6 -20229725.798 6
  17313280.485   -20222834.331 6 -15569988.918 6
  15237003.321   -41988180.769 7 -32494199.642 9
  18628669.493   -21053168.756 5  -6444940.820 5
  17394910.587   -34566019.943 6 -26588133.951 6
  15201817.610   -45332957.504 7 -35187348.071 8
 95  2 19  9 45 29.9810000  0  7 28 21  6 17 22 26 23
  17940702.970   -11895364.812 5  -8993373.155 5
  16817930.017   -26426027.243 6 -20332060.632 7
  17319589.173   -20189660.890 5 -15544139.494 6
  15225401.423   -42049150.372 7 -32541708.427 9
  18623986.392   -21077755.257 5  -6464099.163 4
  17393907.376   -34571299.647 6 -26592248.006 6
  15189057.626   -45400012.636 7 -35239598.820 9
 95  2 19  9 45 59.9810000  0  7 28 21  6 17 22 26 23
  17909196.314   -12060926.285 5  -9122382.092 5
  16792990.204   -26557093.297 6 -20434190.011 7
  17325951.165   -20156244.308 5 -15518100.616 6
  15213844.939   -42109871.738 7 -32589023.776 9
  18619367.134   -21102029.073 5  -6483013.838 4
  17392988.017   -34576137.097 6 -26596017.460 6
  15176366.087   -45466715.960 7 -35291575.435 9
 95  2 19  9 46 29.9810000  0  8 28  1 21  6 17 22 26 23
  17877740.298   -12226226.277 5  -9251187.271 5
  19132900.579          -0.59614
  16768098.743   -26687900.600 6 -20536117.776 7
  17332352.892   -20122590.161 5 -15491876.622 5
  15202337.493   -42170339.164 7 -32636141.263 9
  18614812.314   -21125988.524 5  -6501683.561 5
  17392154.134   -34580507.489 6 -26599422.964 6
  15163738.337   -45533072.575 7 -35343281.887 9
 95  2 19  9 46 59.9810000  0  8 28  1 21  6 17 22 26 23
  17846335.509   -12391257.973 5  -9379783.385 5
  19098368.001     -181497.048 5
  16743252.798   -26818459.942 6 -20637852.318 7
  17338807.556   -20088697.676 5 -15465466.909 6
  15190881.735   -42230553.065 7 -32683061.191 9
  18610311.181   -21149640.161 5  -6520113.400 4
  17391410.759   -34584420.482 6 -26602472.054 6
  15151171.595   -45599106.388 7 -35394736.798 9
 95  2 19  9 47 29.9810000  0  8 28  1 21  6 17 22 26 23
  17814977.001   -12556024.168 5  -9508172.611 6
  19063829.798     -362985.653 5        -0.37011
  16718454.603   -26948780.362 6 -20739400.683 7
  17345301.712   -20054563.739 5 -15438869.051 5
  15179474.681   -42290511.917 7 -32729782.379 9
  18605860.376   -21173015.962 5  -6538328.310 4
  17390753.329   -34587881.357 6 -26605168.836 6
  15138656.353   -45664857.771 7 -35445971.637 9
 95  2 19  9 47 59.9810000  0  8 28  1 21  6 17 22 26 23
  17783678.610   -12720524.034 5  -9636354.315 6
  19029291.689     -544463.293 3   -141411.542 2
  16693703.595   -27078858.066 6 -20840759.925 7
  17351843.275   -20020181.924 5 -15412078.032 5
  15168106.376   -42350230.272 7 -32776316.169 9
  18601465.321   -21196110.735 5  -6556324.269 3
  17390178.798   -34590883.002 6 -26607507.787 6
  15126196.400   -45730341.866 7 -35496998.198 9
 95  2 19  9 48 29.9810000  0  8 28  1 21  6 17 22 26 23
  17752424.595   -12884753.814 5  -9764325.552 5
  18994766.493     -725915.280 3   -282802.703 1
  16668995.212   -27208691.045 6 -20941928.477 7
  17358439.775   -19985530.385 5 -15385076.858 5
  15156786.673   -42409710.521 7 -32822664.421 9
  18597122.376   -21218922.941 5  -6574100.051 4
  17389694.556   -34593434.145 6 -26609495.697 6
  15113791.415   -45795553.932 7 -35547812.793 9
 95  2 19  9 48 59.9810000  0  8 28  1 21  6 17 22 26 23
  17721225.970   -13048708.596 5  -9892082.514 5
  18960234.626     -907355.825 3   -424184.910 2
  16644338.876   -27338260.090 6 -21042891.363 7
  17365081.329   -19950610.216 5 -15357866.333 5
  15145516.650   -42468953.157 7 -32868827.519 9
  18592839.321   -21241457.046 5  -6591659.126 4
  17389292.345   -34595549.365 6 -26611143.921 6
  15101433.267   -45860478.226 7 -35598403.153 9
 95  2 19  9 49 29.9810000  0  8 28  1 21  6 17 22 26 23
  17690081.173   -13212386.922 5 -10019624.054 5
  18925713.642    -1088794.457 3   -565565.599 4
  16619733.603   -27467556.684 6 -21143641.947 7
  17371775.767   -19915440.698 5 -15330461.525 6
  15134288.634   -42527949.017 7 -32914798.321 9
  18588611.212   -21263697.885 5  -6608989.667 4
  17388967.782   -34597235.042 6 -26612457.441 6
  15089135.985   -45925102.216 7 -35648759.504 9
 95  2 19  9 49 59.9810000  0  8 28  1 21  6 17 22 26 23
  17658984.165   -13375786.353 5 -10146948.272 5
  18891182.509    -1270238.755 3   -706950.722 2
  16595183.267   -27596576.874 6 -21244177.153 7
  17378513.540   -19880035.475 5 -15302873.061 6
  15123109.696   -42586683.506 7 -32960565.459 9
  18584436.517   -21285620.352 5  -6626072.109 3
  17388730.407   -34598507.665 6 -26613449.101 6
  15076901.923   -45989401.949 7 -35698863.192 9
 95  2 19  9 50 29.9810000  0  8 28  1 21  6 17 22 26 23
  17627947.681   -13538903.790 5 -10274052.768 5
  18856658.462    -1451701.122 4   -848349.930 4
  16570680.985   -27725333.407 6 -21344506.902 7
  17385290.931   -19844416.510 5 -15275118.039 5
  15111985.306   -42645156.445 7 -33006128.801 9
  18580324.478   -21307229.540 5  -6642910.453 4
  17388562.267   -34599382.019 6 -26614130.423 6
  15064726.767   -46053366.813 7 -35748705.942 9
 95  2 19  9 50 59.9810000  0  8 28  1 21  6 17 22 26 23
  17596958.603   -13701735.233 5 -10400934.408 6
  18822119.235    -1633174.805 3   -989757.921 3
  16546228.634   -27853831.251 6 -21444635.086 7
  17392103.407   -19808610.661 5 -15247217.382 5
  15100906.243   -42703366.778 7 -33051487.504 9
  18576265.962   -21328513.940 5  -6659495.751 5
  17388473.618   -34599856.708 6
  15052621.079   -46117001.967 7 -35798291.772 9
 95  2 19  9 51 29.9810000  0  8 28  1 21  6 17 22 26 23
  17566031.009   -13864277.009 5 -10527590.349 6
  18787594.931    -1814629.922 3  -1131151.455 4
  16521823.485   -27982082.863 6 -21544571.404 7
  17398951.212   -19772612.559 5 -15219166.923 5
  15089884.485   -42761310.942 7 -33096638.805 9
  18572285.673   -21349482.770 5  -6675835.079 4
  17388460.400   -34599926.894 6
  15040568.259   -46180314.984 7 -35847626.583 9
 95  2 19  9 51 59.9810000  0  8 28  1 21  6 17 22 26 23
  17535151.181   -14026533.507 5 -10654023.977 6
  18753069.493    -1996061.268 4  -1272526.471 2
  16497462.235   -28110100.486 6 -21644325.394 7
  17405843.743   -19736422.527 5 -15190966.927 5
  15078901.110   -42819009.166 7 -33141598.463 9
  18568345.814   -21370170.267 5  -6691955.219 3
  17388522.939   -34599587.504 6
  15028586.712   -46243308.593 7 -35896712.512 9
 95  2 19  9 52 29.9810000  0  8 28  1 21  6 17 22 26 23
  17504332.298   -14188498.598 5 -10780230.537 5
  18718551.345    -2177446.056 3  -1413865.223 2
  16473143.415   -28237893.047 6 -21743904.009 7
  17412766.595   -19700024.862 5 -15162605.115 5
  15067967.892   -42876471.951 7 -33186374.661 9
  18564457.767   -21390598.709 5  -6707873.499 4
  17388669.025   -34598821.482 6 -26613693.658 6
  15016654.079   -46305990.023 7 -35945555.178 9
 95  2 19  9 52 59.9810000  0  8 28  1 21  6 17 22 26 23
  17473567.509   -14350161.853 5 -10906201.920 5
  18684047.806    -2358756.941 3  -1555146.338 2
  16448871.962   -28365445.439 6 -21843295.479 7
  17419738.282   -19663391.835 5 -15134059.915 5
  15057082.665   -42933674.773 7 -33230948.298 9
  18560621.743   -21410770.930 5  -6723592.142 5
  17388895.446   -34597630.249 6 -26612765.433 6
  15004786.540   -46368360.779 7 -35994155.769 9
 95  2 19  9 53 29.9810000  0  8 28  1 21  6 17 22 26 23
  17442862.564   -14511526.418 5 -11031940.539 5
  18649554.423    -2540005.371 3  -1696378.814 3
  16424643.868   -28492766.497 6 -21942506.694 7
  17426756.165   -19626518.306 5 -15105327.314 5
  15046241.931   -42990623.736 7 -33275324.120 9
  18556824.525   -21430703.881 5  -6739124.320 5
  17389202.173   -34596023.477 6 -26611513.404 6
  14992978.275   -46430423.121 7 -36042516.028 9
 95  2 19  9 53 59.9810000  0  8 28  1 21  6 17 22 26 23
  17412212.017   -14672590.115 5 -11157444.727 5
  18615068.282    -2721208.344 3  -1837575.914 5
  16400460.837   -28619851.844 6 -22041534.229 7
  17433813.884   -19589407.763 5 -15076410.020 5
  15035455.556   -43047324.983 7 -33319506.918 9
  18553079.142   -21450393.004 4  -6754466.515 3
  17389585.290   -34594003.918 6 -26609939.722 6
  14981223.290   -46492185.665 7 -36090642.680 9
 95  2 19  9 54 29.9810000  0  8 28  1 21  6 17 22 26 23
  17381621.735   -14833348.394 5 -11282710.937 6
  18580601.821    -2902368.068 4  -1978739.281 4
  16376323.493   -28746688.867 6 -22140368.268 7
  17440925.235   -19552050.887 5 -15047300.782 5
  15024715.275   -43103771.702 7 -33363491.377 9
  18549377.657   -21469822.158 4  -6769606.128 5
  17390046.907   -34591580.800 6 -26608051.585 6
  14969523.337   -46553666.747 7 -36138550.014 9
 95  2 19  9 54 59.9810000  0  8 28  1 21  6 17 22 26 23
  17351091.540   -14993798.021 5 -11407736.617 6
  18546139.189    -3083487.212 5  -2119871.025 4
  16352235.243   -28873261.341 6 -22238996.170 7
  17448077.595   -19514467.221 5 -15018014.805 5
  15014019.360   -43159965.215 7 -33407278.536 9
  18545735.103   -21488984.295 5  -6784537.679 4
  17390585.134   -34588755.145 6 -26605849.784 6
  14957877.860   -46614872.519 7 -36186242.820 9
 95  2 19  9 55 29.9810000  0  8 28  1 21  6 17 22 26 23
  17320616.806   -15153929.199 5 -11532514.151 6
  18511677.657    -3264578.758 5  -2260981.297 4
  16328205.009   -28999551.789 6 -22337404.307 7
  17455276.329   -19476653.723 5 -14988549.759 5
  15003373.931   -43215899.654 7 -33450863.816 9
  18542137.251   -21507867.592 4  -6799251.930 4
  17391202.517   -34585506.120 6 -26603318.074 6
  14946287.118   -46675788.542 7 -36233709.853 9
 95  2 19  9 55 59.9800000  0  8 28  1 21  6 17 22 26 23
  17290205.121   -15313743.441 5 -11657044.739 6
  18477218.090    -3445646.871 5  -2402073.299 4
  16304225.145   -29125556.327 6 -22435589.656 7
  17462511.731   -19438620.249 5 -14958913.293 5
  14992781.777   -43271573.442 7 -33494246.000 9
  18538604.113   -21526481.791 5  -6813756.518 4
  17391899.059   -34581848.903 6 -26600468.307 6
  14934746.793   -46736422.066 7 -36280956.756 9
 95  2 19  9 56 29.9800000  0  8 28  1 21  6 17 22 26 23
  17259851.793   -15473251.037 5 -11781336.384 6
  18442767.442    -3626696.132 5  -2543150.602 3
  16280298.246   -29251297.617 6 -22533569.871 7
  17469789.215   -19400382.027 5 -14929117.265 5
  14982239.777   -43326981.725 7 -33537421.288 9
  18535100.535   -21544830.366 4  -6828054.126 3
  17392673.082   -34577780.365 6 -26597298.019 6
  14923262.199   -46796764.422 7 -36327976.763 9
 95  2 19  9 56 59.9800000  0  8 28  1 21  6 17 22 26 23
  17229556.387   -15632439.767 5 -11905379.553 6
  18408316.684    -3807720.472 5  -2684208.490 4
  16256422.723   -29376781.792 6 -22631349.736 7
  17477099.418   -19361961.894 5 -14899179.518 5
  14971747.895   -43382108.982 7 -33580377.601 9
  18531665.770   -21562916.802 3  -6842147.468 2
  17393526.215   -34573307.609 6 -26593812.764 6
  14911842.059   -46856789.415 7 -36374749.490 9
 95  2 19  9 57 29.9800000  0  8 28  1 21  6 17 22 26 23
  17199324.246   -15791306.484 5 -12029171.794 6
  18373878.387    -3988724.210 5  -2825250.340 2
  16232590.457   -29502012.528 6 -22728932.122 7
  17484442.449   -19323363.500 5 -14869102.843 5
  14961312.785   -43436941.832 7 -33623104.504 9
  18528274.902   -21580743.609 4  -6856038.475 4
  17394450.527   -34568441.265 6 -26590020.816 6
  14900482.402   -46916491.647 7 -36421270.708 9
 95  2 19  9 57 59.9800000  0  8 28  1 21  6 17 22 26 23
  17169158.465   -15949846.268 5 -12152709.297 6
  18339442.488    -4169677.222 5  -2966252.664 3
  16208804.668   -29627006.615 6 -22826330.106 7
  17491818.488   -19284607.040 5 -14838903.000 5
  14950930.684   -43491490.183 7 -33665609.718 9
  18524926.567   -21598314.370 4  -6869729.967 4
  17395452.449   -34563175.634 6 -26585917.729 6
  14889181.332   -46975884.690 7 -36467551.001 9
 95  2 19  9 58 29.9800000  0  8 28  1 21  6 17 22 26 23
  17139055.426   -16108056.977 5 -12275990.364 6
  18305018.317    -4350574.205 5  -3107211.346 2
  16185064.223   -29751765.463 6 -22923544.787 7
  17499221.731   -19245705.565 5 -14808590.162 5
  14940603.988   -43545759.413 7 -33707897.436 9
  18521632.856   -21615627.957 4  -6883221.089 4
  17396532.965   -34557510.711 6 -26581503.498 6
  14877935.434   -47034974.689 7 -36513595.153 9
 95  2 19  9 58 59.9800000  0  8 28  1 21  6 17 22 26 23
  17109009.145   -16265932.454 5 -12399010.215 6
  18270604.395    -4531414.372 5  -3248125.741 2
  16161373.801   -29876271.407 6 -23020562.406 7
  17506653.582   -19206638.620 5 -14778148.386 5
  14930331.684   -43599748.997 7 -33749967.251 9
  18518393.777   -21632688.517 4  -6896515.040 2
  17397680.137   -34551462.174 6 -26576790.359 6
  14866744.301   -47093774.995 7 -36559413.574 9
 95  2 19  9 59 29.9800000  0  8 28  1 21  6 17 22 26 23
  17079028.801   -16423474.295 5 -12521770.101 6
  18236207.098    -4712182.145 5  -3388983.749 3
  16137725.434   -30000527.310 6 -23117385.184 8
  17514125.785   -19167389.247 5 -14747564.463 5
  14920109.965   -43653471.787 7 -33791829.173 9
  18515186.410   -21649503.454 4  -6909617.603 4
  17398907.543   -34545017.324 6 -26571768.398 6
  14855603.887   -47152314.824 7 -36605029.022 9
 95  2 19  9 59 59.9800000  0  8 28  1 21  6 17 22 26 23
  17049118.160   -16580679.222 5 -12644267.459 6
  18201821.481    -4892871.479 5  -3529780.604 4
  16114127.371   -30124532.345 6 -23214012.486 8
  17521629.777   -19127947.101 5 -14716830.313 5
  14909937.067   -43706941.942 7 -33833494.232 9
  18512036.988   -21666076.706 4  -6922531.844 3
  17400208.738   -34538180.768 6 -26566441.219 6
  14844514.371   -47210589.779 7 -36650438.080 9
 95  2 19 10  0 29.9800000  0  8 28  1 21  6 17 22 26 23
  17019264.207   -16737538.304 5 -12766495.313 6
  18167443.887    -5073498.323 4  -3670528.768 4
  16090581.621   -30248268.695 6 -23310430.415 7
  17529178.817   -19088285.531 5 -14685925.200 4
  14899813.121   -43760143.488 7 -33874949.990 9
  18508920.559   -21682403.481 3  -6935254.002 4
  17401582.348   -34530972.406 6 -26560824.315 6
  14833478.551   -47268581.563 7 -36695626.480 9
 95  2 19 10  0 59.9800000  0  8 28  1 21  6 17 22 26 23
  16989483.332   -16894054.902 6 -12888456.299 6
  18133087.246    -5254068.094 4  -3811232.445 3
  16067084.879   -30371751.641 6 -23406650.887 7
  17536766.176   -19048396.348 5 -14654842.704 5
  14889736.621   -43813085.095 7 -33916203.200 9
  18505868.887   -21698499.686 4  -6947796.496 3
  17403022.481   -34523395.500 6 -26554920.244 6
  14822497.215   -47326298.937 7 -36740601.051 9
 95  2 19 10  1 29.9800000  0  8 28  1 21  6 17 22 26 23
  16959766.832   -17050224.457 6 -13010146.873 6
  18098741.145    -5434565.594 4  -3951879.830 2
  16043634.754   -30494978.963 6 -23502672.170 7
  17544398.973   -19008292.852 5 -14623593.247 5
  14879707.527   -43865773.100 7 -33957258.798 9
  18502848.863   -21714356.518 4  -6960152.499 2
  17404536.949   -34515434.891 6 -26548717.173 6
  14811569.207   -47383726.771 7 -36785350.017 9
 95  2 19 10  1 59.9800000  0  8 28  1 21  6 17 22 26 23
  16930113.207   -17206050.069 6 -13131569.417 6
  18064404.848    -5615008.265 4  -4092484.477 4
  16020233.434   -30617953.936 6 -23598496.817 8
  17552068.262   -18968001.133 5 -14592197.090 4
  14869729.285   -43918212.634 7 -33998120.777 9
  18499874.371   -21729975.649 4  -6972323.246 1
  17406121.113   -34507112.318 6 -26542232.052 6
  14800699.637   -47440855.187 7 -36829865.672 9
 95  2 19 10  2 29.9800000  0  8 28  1 21  6 17 22 26 23
  16900525.145   -17361516.848 5 -13252712.361 6
  18030082.801    -5795381.238 5  -4233034.842 4
  15996881.504   -30740669.150 6 -23694119.061 8
  17559768.949   -18927526.225 5 -14560658.184 4
  14859800.731   -43970385.193 7 -34038774.733 9
  18496948.918   -21745345.155 4  -6984299.503 2
  17407777.535   -34498407.830 6 -26535449.338 6
  14789885.824   -47497681.810 7 -36874146.154 9
 95  2 19 10  2 59.9800000  0  8 28  1 21  6 17 22 26 23
  16871009.223   -17516623.747 6 -13373574.884 6
  17995768.801    -5975662.780 5  -4373513.936 4
  15973579.277   -30863123.718 6 -23789538.197 8
  17567496.981   -18886898.429 5 -14529000.165 5
  14849922.465   -44022298.132 7 -34079226.380 9
  18494074.231   -21760473.484 4  -6996087.774 2
  17409508.949   -34489304.309 6 -26528355.695 6
  14779127.754   -47554214.812 7 -36918197.842 9
 95  2 19 10  3 29.9800000  0  8 28  1 21  6 17 22 26 23
  16841562.863   -17671369.922 6 -13494156.322 6
  17961482.840    -6155840.260 4  -4513911.964 3
  15950323.231   -30985316.513 6 -23884753.354 8
  17575255.957   -18846139.381 5 -14497239.866 4
  14840094.723   -44073939.685 7 -34119466.554 9
  18491236.496   -21775375.492 4  -7007699.742 2
  17411317.731   -34479809.828 6 -26520957.400 6
  14768427.215   -47610451.329 7 -36962018.505 9
 95  2 19 10  3 59.9800000  0  8 28  1 21  6 17 22 26 23
  16812187.270   -17825753.687 6 -13614455.355 6
  17927218.363    -6335926.266 5  -4654238.708 4
  15927124.543   -31107246.295 6 -23979763.565 8
  17583039.848   -18805240.644 5 -14465370.722 4
  14830323.059   -44125297.333 7 -34159485.508 9
  18488433.067   -21790080.282 4  -7019158.019 2
  17413195.567   -34469939.027 6 -26513265.871 6
  14757778.606   -47666402.638 7 -37005616.928 9
 95  2 19 10  4 29.9800000  0  8 28  1 21  6 17 22 26 23
  16782876.590   -17979773.878 6 -13734471.097 6
  17892965.856    -6515912.132 5  -4794487.403 4
  15903972.668   -31228908.804 6 -24074565.518 7
  17590847.410   -18764189.429 5 -14433382.772 5
  14820604.871   -44176368.773 7 -34199281.442 9
  18485672.981   -21804603.744 4  -7030474.974 2
  17415144.832   -34459696.672 6 -26505284.819 6
  14747185.199   -47722071.538 7 -37048995.290 9
 95  2 19 10  4 59.9800000  0  8 28  1 21  6 17 22 26 23
  16753641.051   -18133427.449 6 -13854201.141 6
  17858742.684    -6695774.449 5  -4934639.832 5
  15880870.129   -31350306.846 6 -24169161.384 8
  17598698.051   -18722958.593 5 -14401254.857 4
  14810943.145   -44227140.026 7 -34238843.464 9
  18482946.309   -21818951.938 4  -7041655.386 2
  17417163.152   -34449088.822 6 -26497018.970 6
  14736644.543   -47777464.587 7 -37092158.704 9
 95  2 19 10  5 29.9800000  0  8 28  1 21  6 17 22 26 23
  16724465.926   -18286712.190 6 -13973643.800 6
  17824538.277    -6875525.291 5  -5074705.402 5
  15857820.285   -31471441.811 6 -24263552.254 8
  17606578.215   -18681533.431 5 -14368975.523 4
  14801339.457   -44277609.090 7 -34278170.014 9
  18480259.699   -21833117.476 5  -7052693.483 2
  17419245.387   -34438135.902 6 -26488484.228 6
  14726153.707   -47832591.464 7 -37135114.711 9
 95  2 19 10  5 59.9800000  0  8 28  1 21  6 17 22 26 23
  16695369.606   -18439629.841 6 -14092800.412 6
  17790346.137    -7055181.601 5  -5214697.317 5
  15834820.879   -31592314.562 6 -24357738.806 8
  17614499.973   -18639925.474 5 -14336553.732 4
  14791786.481   -44327802.686 7 -34317281.921 9
  18477592.340   -21847078.128 4  -7063571.901 3
  17421395.527   -34426849.923 6 -26479689.971 6
  14715711.449   -47887463.662 7 -37177872.272 9
 95  2 19 10  6 29.9800000  0  8 28  1 21  6 17 22 26 23
  16666339.567   -18592173.200 6 -14211665.368 6
  17756179.215    -7234718.936 5  -5354596.531 5
  15811863.574   -31712944.547 6 -24451736.183 7
  17622445.348   -18598153.669 5 -14304004.294 4
  14782288.496   -44377719.486 7 -34356178.136 9
  18474984.090   -21860810.322 4  -7074272.281 2
  17423606.567   -34415222.338 6 -26470629.512 6
  14705319.785   -47942076.933 7 -37220428.068 9
 95  2 19 10  6 59.9790000  0  8 28  1 21  6 17 22 26 23
  16637383.499   -18744339.937 6 -14330236.838 6
  17722038.609    -7414141.734 5  -5494406.501 5
  15788953.280   -31833340.712 6 -24545551.364 8
  17630419.280   -18556245.093 5 -14271348.288 4
  14772842.601   -44427356.432 7 -34394856.285 9
  18472410.937   -21874310.168 3  -7084791.641 2
  17425885.523   -34403257.389 6 -26461306.174 6
  14694976.280   -47996440.434 7 -37262789.242 9
 95  2 19 10  7 29.9790000  0  8 28  1 21  6 17 22 26 23
  16608496.749   -18896139.888 6 -14448522.520 6
  17687909.257    -7593487.844 5  -5634156.726 5
  15766086.069   -31953506.519 6 -24639187.042 7
  17638416.749   -18514231.822 5 -14238610.658 4
  14763444.819   -44476735.930 7 -34433333.820 9
  18469885.898   -21887577.004 4  -7095129.440 2
  17428225.476   -34390954.355 6 -26451719.385 6
  14684679.491   -48050548.022 7 -37304950.996 9
 95  2 19 10  7 59.9790000  0  8 28  1 21  6 17 22 26 23
  16579682.359   -19047563.961 6 -14566515.306 6
  17653796.569    -7772748.094 5  -5773840.016 5
  15743261.476   -32073442.338 6 -24732643.518 7
  17646436.937   -18472117.387 5 -14205794.251 4
  14754098.991   -44525845.255 7 -34471600.840 9
  18467401.702   -21900627.366 3  -7105298.544 2
  17430633.944   -34378291.010 6 -26441851.855 6
  14674434.335   -48104381.303 7 -37346899.012 9
 95  2 19 10  8 29.9790000  0  8 28  1 21  6 17 22 26 23
  16550940.163   -19198601.656 6 -14684207.008 6
  17619703.069    -7951905.051 5  -5913442.840 5
  15720485.155   -32193131.776 6 -24825908.000 8
  17654467.812   -18429878.040 5 -14172880.488 4
  14744812.546   -44574654.359 7 -34509633.913 9
  18464956.577   -21913475.017 3  -7115309.696 2
  17433115.390   -34365258.266 6 -26431696.480 6
  14664243.023   -48157934.306 7 -37388628.625 9
 95  2 19 10  8 59.9790000  0  8 28  1 21  6 17 22 26 23
  16522274.234   -19349257.151 6 -14801600.893 6
  17585629.093    -8130973.721 5  -6052976.843 5
  15697761.405   -32312551.457 6 -24918962.277 7
  17662534.312   -18387506.462 5 -14139863.685 4
  14735581.273   -44623172.230 7 -34547440.055 9
  18462550.554   -21926130.584 3  -7125171.179 2
  17435663.640   -34351867.070 6 -26421261.778 6
  14654101.632   -48211219.304 7 -37430149.401 9
 95  2 19 10  9 29.9790000  0  8 28  1 21  6 17 22 26 23
  16493682.905   -19499521.003 6 -14918689.606 6
  17551569.327    -8309938.437 5  -6192429.874 5
  15675090.913   -32431686.458 6 -25011794.720 7
  17670616.679   -18344989.729 4 -14106733.758 3
  14726404.312   -44671403.443 7 -34585022.827 9
  18460175.702   -21938605.126 3  -7134891.591 1
  17438281.484   -34338120.617 6 -26410550.246 6
  14644013.226   -48264230.342 7 -37471456.710 9
 95  2 19 10  9 59.9790000  0  8 28  1 21  6 17 22 26 23
  16465161.593   -19649389.383 6 -15035470.160 6
  17517541.796    -8488773.875 5  -6331782.164 5
  15652472.757   -32550540.796 6 -25104408.473 8
  17678744.569   -18302311.939 4 -14073478.354 3
  14717284.804   -44719334.468 7 -34622371.687 9
  18457826.046   -21950907.761 3  -7144478.021 3
  17440959.085   -34324040.334 6 -26399578.595 6
  14633976.468   -48316966.307 7 -37512549.665 9
 95  2 19 10 10 29.9790000  0  8 28  1 21  6 17 22 26 23
  16436714.437   -19798866.899 6 -15151946.149 6
  17483537.241    -8667475.023 5  -6471029.806 4
  15629908.296   -32669125.539 6 -25196812.161 7
  17686892.882   -18259483.886 3 -14040105.876 3
  14708215.523   -44766982.785 7 -34659500.253 9
  18455529.327   -21963042.399 4  -7153933.569 3
  17443698.265   -34309659.266 6 -26388372.565 6
  14623991.249   -48369447.663 7 -37553444.228 9
 95  2 19 10 10 59.9790000  0  8 28  1 21  6 17 22 26 23
  16408346.077   -19947946.945 6 -15268112.414 6
  17449555.421    -8846040.632 5  -6610171.861 4
  15607388.968   -32787458.442 6 -25289019.608 8
  17695065.976   -18216517.416 4 -14006625.525 4
  14699199.624   -44814356.745 7 -34696415.039 9
  18453244.288   -21975011.017 3  -7163259.742 2
  17446488.726   -34294976.940 6 -26376931.790 6
  14614056.155   -48421665.604 7 -37594133.534 9
 95  2 19 10 11 29.9790000  0  8 28  1 21  6 17 22 26 23
  16380052.335   -20096627.392 6 -15383967.311 6
  17415604.999    -9024466.477 5  -6749204.996 4
  15584914.038   -32905565.659 6 -25381051.194 7
  17703271.343   -18173418.362 3 -13973041.858 4
  14690235.937   -44861455.972 7 -34733115.743 9
  18450994.124   -21986825.456 3  -7172465.779 4
  17449342.577   -34279991.101 6 -26365254.510 6
  14604173.499   -48473610.865 7 -37634610.361 9
 95  2 19 10 11 59.9790000  0  8 28  1 21  6 17 22 26 23
  16351836.593   -20244907.644 6 -15499510.369 6
  17381670.085    -9202762.280 5  -6888136.792 5
  15562479.937   -33023461.953 6 -25472918.415 8
  17711497.077   -18130188.304 4 -13939356.096 3
  14681323.671   -44908282.243 7 -34769603.751 9
  18448786.991   -21998471.393 3  -7181540.521 3
  17452252.929   -34264690.286 6 -26353331.792 5
  14594338.468   -48525290.056 7 -37674879.860 9
 95  2 19 10 12 29.9790000  0  8 28  1 21  6 17 22 26 23
  16323694.726   -20392786.116 6 -15614740.344 6
  17347769.624    -9380944.635 5  -7026980.205 5
  15540085.851   -33141144.566 6 -25564619.145 8
  17719737.655   -18086845.526 3 -13905582.514 2
  14672464.976   -44954847.169 7 -34805888.120 9
  18446598.929   -22009929.598 3  -7190469.019 3
  17455227.218   -34249055.264 5 -26341148.652 5
  14584550.905   -48576716.040 7 -37714952.057 9
 95  2 19 10 12 59.9790000  0  8 28  1 21  6 17 22 26 23
  16295635.249   -20540261.724 6 -15729656.403 6
  17313881.671    -9559019.718 5  -7165740.003 5
  15517735.890   -33258599.553 6 -25656142.500 8
  17728013.218   -18043399.759 4 -13871728.679 3
  14663655.702   -45001151.063 7 -34841969.087 9
  18444457.905   -22021194.120 3  -7199246.557 4
  17458268.796   -34233076.714 5 -26328697.830 6
  14574810.655   -48627890.607 7 -37754828.345 9
 95  2 19 10 13 29.9790000  0  8 28  1 21  6 17 22 26 23
  16267645.788   -20687328.310 6 -15844253.740 6
  17280015.671    -9736981.603 5  -7304411.608 5
  15495432.718   -33375793.316 6 -25747462.298 8
  17736300.007   -17999848.500 4 -13837792.654 3
  14654896.476   -45047185.090 7 -34877839.769 9
  18442358.132   -22032253.797 3  -7207864.485 2
  17461376.437   -34216751.692 5 -26315977.041 5
  14565121.265   -48678813.179 7 -37794508.268 9
 95  2 19 10 13 59.9790000  0  8 28  1 21  6 17 22 26 23
  16239738.577   -20833976.709 6 -15958525.225 6
  17246178.663    -9914822.389 5  -7442988.832 5
  15473188.749   -33492699.981 6 -25838558.389 8
  17744605.069   -17956199.114 4 -13803780.158 2
  14646186.718   -45092940.164 7 -34913493.085 9
  18440282.202   -22043097.362 3  -7216313.997 2
  17464548.030   -34200086.124 5 -26302990.875 5
  14555479.015   -48729491.675 7 -37833998.005 9
 95  2 19 10 14 29.9790000  0  8 28  1 21  6 17 22 26 23
  16211913.179   -20980207.961 6 -16072471.649 7
  17212358.960   -10092524.370 5  -7581457.908 5
  15450997.937   -33609309.859 6 -25929423.209 8
  17752926.866   -17912463.979 3 -13769700.804 2
  14637531.741   -45138409.535 7 -34948923.769 9
  18438256.952   -22053752.335 3  -7224616.557 4
  17467780.226   -34183100.444 5 -26289755.283 6
  14545882.210   -48779930.803 7 -37873301.219 9
 95  2 19 10 14 59.9790000  0  8 28  1 21  6 17 22 26 23
  16184164.148   -21126026.560 6 -16186096.528 7
  17178571.319   -10270082.157 5  -7719814.615 5
  15428860.890   -33725633.422 6 -26020064.921 7
  17761265.585   -17868640.420 4 -13735552.614 3
  14628936.171   -45183591.188 7 -34984130.264 9
  18436262.882   -22064259.733 3  -7232804.142 3
  17471069.062   -34165815.291 5 -26276286.329 6
  14536325.530   -48830137.188 7 -37912423.078 9
 95  2 19 10 15 29.9790000  0  8 28  1 21  6 17 22 26 23
  16156499.155   -21271420.217 6 -16299390.285 6
  17144814.257   -10447478.585 5  -7858045.604 5
  15406774.624   -33841695.777 6 -26110503.113 8
  17769627.077   -17824710.378 5 -13701321.409 4
  14620397.765   -45228473.613 7 -35019103.586 9
  18434285.538   -22074629.780 3  -7240884.684 2
  17474415.171   -34148231.433 5 -26262584.632 6
  14526817.343   -48880096.682 7 -37951352.553 9
 95  2 19 10 15 59.9790000  0  8 28  1 21  6 17 22 26 23
  16128909.218   -21416387.406 6 -16412351.732 7
  17111090.593   -10624701.325 5  -7996141.231 5
  15384734.577   -33957527.071 6 -26200761.248 8
  17778011.921   -17780657.821 4 -13666994.768 2
  14611909.249   -45273062.080 7 -35053847.858 9
  18432337.749   -22084877.944 3  -7248870.216 3
  17477815.749   -34130354.142 5 -26248654.262 6
  14517360.866   -48929812.118 7 -37990091.850 9
 95  2 19 10 16 29.9790000  0  8 28  1 21  6 17 22 26 23
  16101405.749   -21560925.054 6 -16524978.469 7
  17077398.405   -10801745.691 5  -8134097.876 5
  15362732.437   -34073137.714 6 -26290847.451 7
  17786420.101   -17736463.859 4 -13632557.904 2
  14603482.984   -45317349.781 7 -35088357.764 9
  18430410.984   -22095011.621 3  -7256766.598 2
  17481273.538   -34112181.518 5 -26234493.792 6
  14507946.687   -48979273.984 7 -38028633.565 9
 95  2 19 10 16 59.9790000  0  8 28  1 21  6 17 22 26 23
  16073984.015   -21705032.979 6 -16637270.357 7
  17043740.827   -10978627.689 5  -8271927.993 5
  15340773.476   -34188538.618 6 -26380770.220 8
  17794857.171   -17692126.988 3 -13598009.698 4
  14595113.101   -45361347.040 7 -35122641.354 9
  18428497.796   -22105022.300 2  -7264567.105 3
  17484789.499   -34093711.368 5 -26220101.454 5
  14498582.382   -49028478.314 7 -38066974.593 9
 95  2 19 10 17 29.9790000  0  8 28  1 21  6 17 22 26 23
  16046642.491   -21848706.070 6 -16749223.411 7
  17010109.569   -11155344.370 5  -8409629.286 5
  15318853.796   -34303725.041 6 -26470525.862 7
  17803318.905   -17647649.860 4 -13563352.218 4
  14586792.679   -45405043.012 7 -35156690.173 9
  18426631.023   -22114892.711 3  -7272258.303 2
  17488359.812   -34074947.381 5 -26205480.176 5
  14489271.562   -49077423.897 7 -38105114.007 9
 95  2 19 10 17 59.9790000  0  8 28  1 21  6 17 22 26 23
  16019386.718   -21991941.911 6 -16860835.750 7
  16976513.413   -11331896.859 5  -8547202.636 5
  15296982.359   -34418668.633 6 -26560092.289 8
  17811804.882   -17603049.346 3 -13528598.572 4
  14578540.952   -45448430.374 7 -35190498.517 9
  18424772.351   -22124613.033 2  -7279832.607 2
  17491985.374   -34055886.655 5 -26190627.668 5
  14480001.390   -49126116.517 7 -38143056.312 9
 95  2 19 10 18 29.9780000  0  8 28  1 21  6 17 22 26 23
  15992212.822   -22134732.347 6 -16972101.026 7
  16942950.361   -11508283.689 5  -8684646.927 5
  15275157.291   -34533354.326 6 -26649457.759 8
  17820309.697   -17558360.880 4 -13493776.380 4
  14570341.354   -45491506.071 7 -35224064.000 9
  18422955.018   -22134182.396 3  -7287289.229 3
  17495669.354   -34036527.847 5 -26175542.878 5
  14470787.065   -49174553.861 7 -38180799.692 9
 95  2 19 10 18 59.9780000  0  8 28  1 21  6 17 22 26 23
  15965125.572   -22277081.839 6 -17083022.700 7
  16909409.361   -11684518.768 5  -8821972.971 5
  15253381.893   -34647784.273 6 -26738623.935 8
  17828825.791   -17513601.638 3 -13458899.066 5
  14562204.986   -45534275.895 7 -35257391.154 9
  18421160.440   -22143602.831 2  -7294629.878 2
  17499412.580   -34016865.764 5 -26160221.783 5
  14461613.416   -49222744.188 7 -38218350.600 9
 95  2 19 10 19 29.9780000  0  8 28  1 21  6 17 22 26 23
  15938122.588   -22418981.451 6 -17193593.824 7
  16875905.901   -11860593.136 5  -8959173.756 5
  15231657.486   -34761952.689 6 -26827586.328 8
  17837355.830   -17468784.662 3 -13423976.774 4
  14554121.776   -45576735.402 7 -35290476.491 9
  18419408.072   -22152878.094 3  -7301857.365 1
  17503209.338   -33996907.079 5 -26144669.566 5
  14452495.377   -49270682.044 7 -38255704.772 9
 95  2 19 10 19 59.9780000  0  8 28  1 21  6 17 22 26 23
  15911204.416   -22560433.098 6 -17303815.885 7
  16842430.276   -12036507.778 5  -9096250.103 5
  15209981.471   -34875857.984 6 -26916343.693 8
  17845892.526   -17423916.719 3 -13389014.740 3
  14546101.541   -45618903.834 7 -35323335.017 9
  18417662.580   -22162021.965 3  -7308982.464 3
  17507064.291   -33976648.837 6 -26128883.925 6
  14443415.166   -49318376.317 7 -38292869.143 9
 95  2 19 10 20 29.9780000  0  8 28  1 21  6 17 22 26 23
  15884373.744   -22701434.291 6 -17413686.941 7
  16808989.947   -12212261.511 5  -9233201.055 5
  15188357.588   -34989491.845 6 -27004889.541 8
  17854444.283   -17378985.309 3 -13354003.269 3
  14538129.330   -45660782.510 7 -35355967.764 9
  18415941.588   -22171036.462 3  -7316006.726 2
  17510976.065   -33956098.726 6 -26112870.870 6
  14434386.096   -49365839.054 7 -38329853.088 9
 95  2 19 10 20 59.9780000  0  8 28  1 21  6 17  9 26 23
  15857628.119   -22841987.744 6 -17523209.104 7
  16775572.963   -12387857.719 5  -9370029.265 5
  15166785.080   -35102857.222 6 -27093226.185 8
  17863016.010   -17333975.525 3 -13318930.715 3
  14530215.557   -45702369.198 7 -35388372.984 9
  18150842.205          -0.76714
  17514937.846   -33935286.409 6 -26096653.490 5
  14425397.986   -49413079.736 7 -38366664.017 9
 95  2 19 10 21 29.9780000  0  8 28  1 21  6 17  9 26 23
  15830966.229   -22982094.877 6 -17632383.488 7
  16742187.494   -12563285.444 5  -9506726.196 5
  15145262.627   -35215953.096 6 -27181352.833 8
  17871592.791   -17288886.579 2 -13283796.471 3
  14522359.690   -45743665.178 7 -35420551.678 9
  18127084.736     -124846.792 3
  17518943.182   -33914231.339 6 -26080246.948 5
  14416446.072   -49460108.995 7 -38403310.197 9
 95  2 19 10 21 59.9780000  0  8 28  1 21  6 17  9 26 23
  15804391.682   -23121744.955 6 -17741201.722 7
  16708842.041   -12738529.332 5  -9643279.862 5
  15123795.080   -35328766.946 6 -27269259.715 8
  17880182.690   -17243704.118 2 -13248589.392 3
  14514559.244   -45784663.715 7 -35452498.606 9
  18103376.502     -249433.558 4        -0.16812
  17522996.244   -33892926.198 5 -26063645.545 5
  14407532.385   -49506939.505 7 -38439801.502 9
 95  2 19 10 22 29.9780000  0  8 28  1 21  6 17  9 26 23
  15777904.072   -23260935.354 6 -17849661.775 7
  16675528.791   -12913584.825 5  -9779686.736 5
  15102379.049   -35441309.623 6 -27356955.289 8
  17888802.526   -17198442.998 3 -13213320.993 2
  14506812.783   -45825360.269 7 -35484210.218 9
  18079715.791     -373776.799 3    -96890.986 2
  17527098.518   -33871378.744 5 -26046855.333 5
  14398662.611   -49553563.079 7 -38476131.567 9
 95  2 19 10 22 59.9780000  0  8 28  1 21  6 17  9 26 23
  15751506.541   -23399661.447 6 -17957760.024 7
  16642255.455   -13088450.378 5  -9915945.610 5
  15081008.932   -35553602.653 6 -27444456.338 8
  17897428.924   -17153115.051 3 -13178000.547 1
  14499123.315   -45865756.132 7 -35515687.521 9
  18056093.463     -497908.343 3   -193616.819 4
  17531245.565   -33849584.189 5 -26029872.562 5
  14389833.799   -49599959.796 7 -38512284.855 9
 95  2 19 10 23 29.9780000  0  8 28  1 21  6 17  9 26 23
  15725196.151   -23537927.624 6 -18065499.903 7
  16609015.760   -13263124.390 5 -10052055.210 5
  15059686.041   -35665664.457 6 -27531777.207 8
  17906064.119   -17107736.984 3 -13142640.994 2
  14491493.494   -45905855.029 7 -35546933.426 9
  18032511.244     -621847.094 3   -290192.427 3
  17535446.041   -33827509.270 5 -26012671.336 5
  14381048.033   -49646137.023 7 -38548267.109 9
 95  2 19 10 23 59.9780000  0  8 28  1 21  6 17  9 26 23
  15698973.932   -23675725.745 6 -18172875.053 7
  16575814.002   -13437592.799 5 -10188004.612 5
  15038402.221   -35777505.432 6 -27618926.005 8
  17914709.955   -17062295.765 3 -13107232.265 1
  14483921.643   -45945640.902 7 -35577935.417 9
  18008965.502     -745572.241 3   -386601.590 3
  17539703.690   -33805135.118 5 -25995236.960 5
  14372305.729   -49692079.225 7 -38584066.223 9
 95  2 19 10 24 29.9780000  0  8 28  1 21  6 17  9 26 23
  15672839.908   -23813058.264 6 -18279887.406 7
  16542651.408   -13611858.006 5 -10323795.664 5
  15017158.057   -35889143.005 6 -27705916.311 8
  17923369.299   -17016796.015 3 -13071777.869 1
  14476412.471   -45985109.308 7 -35608690.030 9
  17985457.463     -869088.746 3   -482848.177 2
  17544016.416   -33782466.335 5 -25977572.964 5
  14363606.940   -49737780.421 7 -38619677.547 9
 95  2 19 10 24 59.9780000  0  8 28  1 21  6 17  9 26 23
  15646793.752   -23949920.796 6 -18386533.527 7
  16509530.096   -13785921.250 5 -10459429.360 5
  14995955.526   -36000566.847 6 -27792740.065 8
  17932042.666   -16971225.708 3 -13036268.539 1
  14468966.385   -46024243.871 7 -35639184.504 9
  17962000.346     -992374.136 3   -578914.649 5
  17548386.861   -33759506.137 5 -25959681.902 5
  14354955.260   -49783245.783 7 -38655105.104 9
 95  2 19 10 25 29.9780000  0  8 28  1 21  6 17  9 26 23
  15620843.166   -24086307.187 6 -18492808.639 7
  16476447.791   -13959763.428 5 -10594890.795 5
  14974798.432   -36111758.672 6 -27879383.031 8
  17940720.307   -16925578.094 3 -13000698.967 1
  14461584.416   -46063044.803 7 -35669419.009 9
  17938590.361    -1115396.470 3   -674776.165 4
  17552810.877   -33736260.813 5 -25941568.670 5
  14346346.104   -49828480.431 7 -38690352.892 9
 95  2 19 10 25 59.9780000  0  8 28  1 21  6 17  9 26 23
  15594980.065   -24222214.267 6 -18598710.248 7
  16443407.697   -14133389.775 5 -10730184.061 6
  14953684.463   -36222699.903 6 -27965830.727 8
  17949427.697   -16879849.802 4 -12965066.495 1
  14454261.807   -46101523.812 7 -35699402.661 9
  17915227.041    -1238144.202 2   -770423.705 5
  17557282.393   -33712764.983 5 -25923260.227 5
  14337783.213   -49873479.905 7 -38725417.420 9
 95  2 19 10 26 29.9780000  0  8 28  1 21  6 17  9 26 23
  15569211.268   -24357640.371 6 -18704237.079 7
  16410407.760   -14306817.695 5 -10865322.682 6
  14932623.518   -36333375.815 6 -28052071.682 8
  17958144.111   -16834053.610 4 -12929381.172 1
  14446994.533   -46139693.896 7 -35729145.595 9
  17891924.885    -1360620.947 3   -865860.089 5
  17561795.549   -33689034.587 5 -25904769.024 4
  14329268.822   -49918242.768 7 -38760297.579 9
 95  2 19 10 26 59.9780000  0  8 28  1 21  6 17  9 26 23
  15543529.010   -24492585.660 6 -18809389.244 7
  16377444.791   -14480035.512 5 -11000297.596 5
  14911614.026   -36443781.255 6 -28138101.874 8
  17966869.885   -16788202.710 3 -12893653.127 1
  14439789.955   -46177570.269 7 -35758659.662 9
  17868671.869    -1482823.069 3   -961082.459 5
  17566355.049   -33665073.261 5 -25886097.869 5
  14320793.893   -49962769.252 7 -38794993.542 9
 95  2 19 10 27 29.9780000  0  8 28  1 21  6 17  9 26 23
  15517945.557   -24627045.690 6 -18914163.293 7
  16344523.213   -14653033.053 6 -11135100.858 5
  14890654.197   -36553930.311 6 -28223932.293 8
  17975603.916   -16742297.378 3 -12857882.738 1
  14432635.760   -46215163.611 7 -35787953.185 9
  17845463.815    -1604758.393 3  -1056096.956 5
  17570963.072   -33640871.420 5 -25867239.307 5
  14312362.705   -50007060.114 7 -38829505.900 9
 95  2 19 10 27 59.9780000  0  8 28  1 21  6 17  9 26 23
  15492446.854   -24761021.433 6 -19018559.976 7
  16311642.518   -14825828.039 6 -11269746.307 6
  14869741.041   -36663840.156 6 -28309576.315 8
  17984342.627   -16696353.430 3 -12822082.247 1
  14425533.213   -46252470.317 7 -35817023.352 9
  17822314.268    -1726438.439 3  -1150912.530 5
  17575615.315   -33616431.761 5 -25848195.441 5
  14303982.221   -50051130.267 7 -38863846.275 9
 95  2 19 10 28 29.9780000  0  7 28  1 21 17  9 26 23
  15467048.041   -24894503.495 6 -19122571.963 7
  16278800.690   -14998405.996 6 -11404222.639 6
  14848869.135   -36773511.130 6 -28395034.205 8
  14418495.518   -46289478.279 7 -35845860.730 9
  17799201.838    -1847865.158 4  -1245530.706 5
  17580311.033   -33591739.437 5 -25828954.687 5
  14295631.541   -50094988.207 7 -38898021.294 9
 95  2 19 10 28 59.9780000  0  7 28  1 21 17  9 26 23
  15441739.604   -25027492.289 6 -19226199.587 7
  16246003.619   -15170763.959 6 -11538527.540 6
  14828041.182   -36882954.659 6 -28480314.866 8
  14411506.041   -46326188.411 7 -35874466.055 9
  17776144.651    -1969036.972 4  -1339950.257 5
  17585057.486   -33566798.446 5 -25809520.171 5
  14287326.768   -50138650.127 7 -38932043.572 9
 95  2 19 10 29 29.9770000  0  7 28  1 21 17  9 26 23
  15416527.599   -25159982.681 6 -19329438.850 7
  16213241.646   -15342917.021 6 -11672672.773 6
  14807258.982   -36992166.818 6 -28565415.235 8
  14404581.943   -46362597.159 7 -35902836.515 9
  17753142.458    -2089948.178 4  -1434166.755 5
  17589847.794   -33541615.591 5 -25789897.169 5
  14279051.966   -50182112.862 7 -38965910.640 9
 95  2 19 10 29 59.9770000  0  7 28  1 21 17  9 26 23
  15391411.255   -25291983.620 6 -19432296.725 7
  16180521.653   -15514871.222 6 -11806663.061 6
  14786524.177   -37101139.749 6 -28650329.199 8
  14397705.864   -46398712.827 7 -35930978.602 9
  17730178.708    -2210599.767 5  -1528180.934 5
  17594685.646   -33516202.989 5 -25770095.145 5
  14270821.341   -50225374.656 7 -38999621.132 9
 95  2 19 10 30 29.9770000  0  7 28  1 21 17  9 26 23
  15366386.294   -25423489.972 6 -19534769.199 7
  16147842.341   -15686604.614 6 -11940481.305 6
  14765832.185   -37209862.358 6 -28735048.104 8
  14390887.318   -46434539.177 7 -35958895.246 9
  17707270.310    -2330983.345 5  -1621986.281 5
  17599566.669   -33490565.128 5 -25750117.605 5
  14262633.036   -50268411.814 7 -39033156.587 9
 95  2 19 10 30 59.9770000  0  7 28  1 21 17  9 26 23
  15341452.607   -25554498.959 6 -19636854.125 7
  16115205.560   -15858107.424 6 -12074119.864 6
  14745193.903   -37318335.815 7 -28819572.852 8
  14384129.841   -46470066.769 7 -35986579.101 9
  17684417.349    -2451082.213 5  -1715569.788 5
  17604487.388   -33464699.238 5 -25729962.371 5
  14254487.888   -50311205.940 7 -39066502.662 9
 95  2 19 10 31 29.9770000  0  7 28  1 21 17  9 26 23
  15316619.169   -25685008.611 6 -19738549.948 7
  16082615.653   -16029364.020 6 -12207566.573 6
  14724601.130   -37426546.432 6 -28903892.798 8
  14377428.138   -46505283.353 7 -36014020.606 9
  17661618.802    -2570894.806 5  -1808930.197 5
  17609454.380   -33438599.567 5 -25709624.966 5
  14246390.232   -50353754.685 7 -39099657.531 9
 95  2 19 10 31 59.9770000  0  7 28  1 21 17  9 26 23
  15291878.575   -25815017.180 6 -19839855.325 7
  16050077.083   -16200357.384 6 -12340808.143 6
  14704056.693   -37534500.252 6 -28988012.644 8
  14370786.068   -46540180.543 7 -36041213.234 9
  17638868.552    -2690429.637 5  -1902074.185 5
  17614463.818   -33412273.903 5 -25689111.468 5
  14238338.419   -50396072.691 7 -39132632.594 9
 95  2 19 10 32 29.9770000  0  7 28  1 21 17  9 26 23
  15267235.950   -25944513.839 6 -19940761.810 7
  16017588.318   -16371086.727 6 -12473843.996 6
  14683565.685   -37642194.790 7 -29071930.455 8
  14364209.536   -46574735.530 7 -36068139.208 9
  17616181.388    -2809670.559 5  -1994989.158 5
  17619515.880   -33385713.501 5 -25668415.049 5
  14230329.778   -50438170.632 7 -39165436.201 9
 95  2 19 10 32 59.9770000  0  7 28  1 21 17  9 26 23
  15242689.005   -26073503.420 6 -20041273.172 7
  15985148.372   -16541571.557 6 -12606689.340 6
  14663118.888   -37749637.298 6 -29155651.871 8
  14357698.583   -46608947.463 7 -36094797.863 9
  17593543.450    -2928621.476 5  -2087678.150 5
  17624613.489   -33358926.748 5 -25647542.262 5
  14222353.607   -50480080.810 7 -39198093.469 9
 95  2 19 10 33 29.9770000  0  7 28  1 21 17  9 26 23
  15218239.943   -26201990.507 6 -20141392.976 7
  15952747.982   -16711826.758 6 -12739355.718 6
  14642717.841   -37856837.422 6 -29239184.423 8
  14351252.153   -46642832.654 7 -36121201.922 9
  17570964.763    -3047291.927 5  -2180148.594 4
  17629751.435   -33331931.612 5 -25626507.108 5
  14214409.224   -50521823.732 7 -39230620.434 9
 95  2 19 10 33 59.9770000  0  7 28  1 21 17  9 26 23
  15193888.302   -26329967.467 6 -20241115.283 7
  15920395.068   -16881851.315 6 -12871842.392 6
  14622361.091   -37963814.243 7 -29322542.974 8
  14344866.169   -46676401.922 7 -36147359.806 9
  17548434.755    -3165660.630 5  -2272383.909 5
  17634927.841   -33304726.510 5 -25605308.361 5
  14206496.388   -50563396.164 7 -39263014.532 9
 95  2 19 10 34 29.9770000  0  7 28  1 21 17  9 26 23
  15169632.232   -26457429.025 6 -20340435.976 7
  15888083.630   -17051644.189 6 -13004148.528 6
  14602049.177   -38070562.615 7 -29405723.509 8
  14338539.013   -46709647.728 7 -36173265.637 9
  17525974.653    -3283706.543 5  -2364367.718 4
  17640146.911   -33277306.864 5 -25583942.421 5
  14198621.427   -50604788.785 7 -39295268.525 9
 95  2 19 10 34 59.9770000  0  7 28  1 21 17  9 26 23
  15145477.302   -26584376.793 6 -20439356.309 7
  15855819.528   -17221194.069 6 -13136265.311 6
  14581776.896   -38177089.722 7 -29488731.629 8
  14332266.482   -46742595.164 7 -36198938.974 9
  17503569.294    -3401437.371 5  -2456106.000 5
  17645406.325   -33249675.858 5 -25562411.750 5
  14190782.841   -50645986.539 7 -39327370.673 9
 95  2 19 10 35 29.9770000  0  7 28  1 21 17  9 26 23
  15121415.693   -26710805.893 6 -20537872.494 7
  15823604.216   -17390486.120 6 -13268181.181 6
  14561546.224   -38283406.597 7 -29571575.934 8
  14326054.552   -46775257.789 7 -36224390.375 9
  17481227.200    -3518847.808 5  -2547594.627 4
  17650704.700   -33221830.420 5 -25540714.010 4
  14182979.310   -50686981.759 7 -39359315.004 9
 95  2 19 10 35 59.9770000  0  7 28  1 21 17  9 26 23
  15097455.224   -26836714.308 6 -20635982.941 7
  15791437.685   -17559513.277 6 -13399890.646 6
  14541354.864   -38389510.705 6 -29654254.452 8
  14319891.114   -46807629.706 7 -36249615.262 9
  17458945.794    -3635945.407 5  -2638839.473 4
  17656043.153   -33193775.903 5 -25518853.347 4
  14175219.138   -50727773.186 7 -39391100.539 9
 95  2 19 10 36 29.9770000  0  7 28  1 21 17  9 26 23
  15073597.739   -26962099.632 6 -20733685.785 7
  15759323.739   -17728269.938 6 -13531389.345 6
  14521209.099   -38495375.519 6 -29736746.500 8
  14313788.443   -46839708.513 7 -36274611.748 9
  17436716.528    -3752751.362 5  -2729857.085 5
  17661420.575   -33165520.364 5 -25496836.055 4
  14167492.364   -50768363.742 7 -39422729.545 9
 95  2 19 10 36 59.9770000  0  7 28  1 21 17  9 26 23
  15049835.630   -27086967.085 6 -20830985.103 7
  15727261.060   -17896776.303 6 -13662693.011 6
  14501108.903   -38601010.525 7 -29819059.477 8
  14307735.130   -46871512.143 7 -36299393.806 9
  17414542.099    -3869281.321 5  -2820659.627 4
  17666830.466   -33137074.144 5 -25474670.158 4
  14159808.177   -50808764.326 7 -39454210.521 9
 95  2 19 10 37 29.9770000  0  7 28  1 21 17  9 26 23
  15026172.028   -27211306.596 6 -20927873.036 7
  15695241.099   -18065036.955 6 -13793805.182 6
  14481051.474   -38706405.136 7 -29901185.140 8
  14301744.333   -46903002.586 7 -36323931.829 9
  17392424.482    -3985522.613 5  -2911237.231 3
  17672274.521   -33108443.248 4 -25452360.359 4
  14152153.599   -50848978.046 7 -39485545.891 9
 95  2 19 10 37 59.9770000  0  7 28  1 21 17  9 26 23
  15002613.271   -27335125.719 6 -21024355.465 8
  15663267.263   -18233061.325 6 -13924733.265 6
  14461045.052   -38811546.783 7 -29983113.686 8
  14295815.216   -46934166.187 7 -36348215.166 9
  17370357.982    -4101474.810 5  -3001589.588 3
  17677765.677   -33079641.938 3 -25429917.794 4
  14144534.482   -50889013.574 7 -39516742.411 9
 95  2 19 10 38 29.9770000  0  7 28  1 21 17  9 26 23
  14979151.950   -27458419.601 6 -21120428.619 8
  15631336.685   -18400851.470 6 -14055478.836 6
  14441083.841   -38916431.023 6 -30064841.651 8
  14289946.708   -46964999.950 7 -36372241.485 9
  17348351.591    -4217114.462 5  -3091698.366 4
  17683273.138   -33050672.725 4 -25407344.416 4
  14136950.974   -50928860.715 7 -39547792.135 9
 95  2 19 10 38 59.9770000  0  7 28  1 21 17  9 26 23
  14955790.755   -27581176.906 6 -21216083.661 8
  15599456.091   -18568393.202 6 -14186030.831 6
  14421172.224   -39021063.562 7 -30146373.487 8
  14284143.778   -46995489.221 7 -36395999.370 9
  17326409.060    -4332417.522 5  -3181544.889 3
  17688819.068   -33021537.261 5 -25384641.454 4
  14129408.982   -50968498.939 7 -39578679.070 9
 95  2 19 10 39 29.9770000  0  7 28  1 21 17  9 26 23
  14932530.193   -27703398.635 6 -21311321.369 7
  15567626.482   -18735653.187 6 -14316363.272 6
  14401312.857   -39125433.963 6 -30227701.056 8
  14278409.247   -47025635.301 7 -36419489.828 9
  17304531.083    -4447386.814 5  -3271131.314 5
  17694393.802   -32992237.167 5 -25361810.214 5
  14121905.935   -51007931.313 7 -39609405.593 9
 95  2 19 10 39 59.9770000  0  7 28  1 21 17  9 26 23
  14909377.036   -27825091.063 6 -21406146.638 7
  15535854.294   -18902614.759 6 -14446463.189 6
  14381497.528   -39229557.992 6 -30308836.654 8
  14272731.263   -47055473.190 7 -36442740.141 9
  17282713.794    -4562033.773 5  -3360466.580 3
  17699998.560   -32962781.986 5 -25338858.113 5
  14114438.841   -51047164.177 7 -39639976.660 9
 95  2 19 10 40 29.9770000  0  7 28  1 21 17  9 26 23
  14886319.411   -27946246.393 6 -21500553.385 8
  15504143.185   -19069266.439 6 -14576321.632 6
  14361728.325   -39333446.593 7 -30389788.797 8
  14267110.419   -47085011.019 7 -36465756.646 9
  17260960.286    -4676362.266 5  -3449553.704 5
  17705633.568   -32933172.854 5 -25315786.064 4
  14107013.443   -51086193.989 7 -39670389.504 9
 95  2 19 10 40 59.9760000  0  7 28  1 21 17  9 26 23
  14863369.149   -28066852.571 6 -21594532.224 8
  15472492.102   -19235590.296 6 -14705924.622 6
  14342005.539   -39437094.773 7 -30470553.600 8
  14261548.531   -47114229.617 7 -36488524.393 9
  17239266.172    -4790365.126 5  -3538387.074 4
  17711303.610   -32903378.697 5 -25292569.835 4
  14099623.906   -51125033.579 7 -39700654.120 9
 95  2 19 10 41 29.9760000  0  7 28  1 21 17  9 26 23
  14840522.258   -28186922.251 6 -21688093.010 8
  15440899.539   -19401608.047 6 -14835289.103 6
  14322324.211   -39540520.068 7 -30551144.732 8
  14256045.953   -47143139.694 7 -36511051.736 9
  17217631.430    -4904045.852 5  -3626969.453 2
  17717010.258   -32873382.332 5 -25269196.036 4
  14092261.899   -51163715.402 7 -39730795.806 9
 95  2 19 10 41 59.9760000  0  7 28  1 21 17  9 26 23
  14817773.492   -28306454.175 6 -21781234.774 8
  15409359.055   -19567350.600 6 -14964439.132 6
  14302681.594   -39643747.491 7 -30631581.672 8
  14250606.641   -47171736.826 7 -36533335.231 9
  17196064.711    -5017389.014 5  -3715288.761 2
  17722753.969   -32843198.673 5 -25245676.299 5
  14084927.711   -51202241.332 7 -39760816.012 9
 95  2 19 10 42 29.9760000  0  7 28  1 21 17  9 26 23
  14795129.860   -28425446.940 6 -21873956.411 8
  15377866.508   -19732844.234 6 -15093395.210 6
  14283075.289   -39746772.227 7 -30711860.683 8
  14245226.078   -47200005.333 7 -36555362.649 9
  17174559.500    -5130386.039 5  -3803338.378 4
  17728534.774   -32812817.241 5 -25222002.436 5
  14077627.672   -51240620.868 7 -39790722.149 9
 95  2 19 10 42 59.9760000  0  7 28  1 21 17  9 26 23
  14772592.016   -28543894.453 6 -21966253.172 8
  15346422.774   -19898079.099 6 -15222149.640 6
  14263510.914   -39849580.255 7 -30791970.819 8
  14239909.766   -47227938.828 7 -36577129.017 9
  17153127.258    -5243026.513 5  -3891110.144 3
  17734353.789   -32782236.045 5 -25198172.910 4
  14070355.000   -51278838.581 7 -39820502.186 9
 95  2 19 10 43 29.9760000  0  7 28  1 21 17  9 26 23
  14750154.820   -28661799.057 6 -22058126.890 8
  15315030.399   -20063056.341 6 -15350703.328 6
  14243990.813   -39952169.148 7 -30871910.213 8
  14234657.688   -47255553.801 7 -36598647.194 9
  17131757.188    -5355316.920 5  -3978609.155 3
  17740204.352   -32751499.990 4 -25174222.763 3
  14063117.703   -51316864.208 7 -39850132.552 9
 95  2 19 10 43 59.9760000  0  8 28  1 21 31 17  9 26 23
  14727824.164   -28779157.400 6 -22149574.944 8
  15283687.891   -20227768.539 6 -15479050.501 6
  14224511.055   -40054529.418 7 -30951671.452 8
  17523474.453          -0.63012
  14229464.899   -47282842.838 7 -36619911.386 9
  17110454.805    -5467265.385 5  -4065841.714 2
  17746071.024   -32720634.372 3 -25150171.639 3
  14055922.781   -51354672.269 7 -39879593.378 9
 95  2 19 10 44 29.9760000  0  8 28  1 21 31 17  9 26 23
  14705593.570   -28895966.263 6 -22240594.834 8
  15252400.516   -20392180.313 6 -15607163.566 6
  14205081.070   -40156643.376 7 -31031240.765 8
  17492917.680     -160606.234 3        -0.42912
  14224332.250   -47309813.362 7 -36640927.392 9
  17089214.453    -5578882.223 5  -4152815.858 3
  17751975.602   -32689636.771 4 -25126017.652 4
  14048768.922   -51392266.635 7 -39908887.694 9
 95  2 19 10 44 59.9760000  0  8 28  1 21 31 17  9 26 23
  14683469.742   -29012225.356 6 -22331186.337 8
  15221173.172   -20556280.917 6 -15735034.156 7
  14185696.110   -40258512.644 7 -31110619.403 8
  17462400.610     -320937.525 3   -124933.909 2
  14219255.438   -47336479.782 7 -36661706.434 9
  17068038.789    -5690169.710 4  -4239533.361 4
  17757900.391   -32658514.341 4 -25101766.391 5
  14041657.508   -51429641.777 7 -39938011.183 9
 95  2 19 10 45 29.9760000  0  8 28  1 21 31 17  9 26 23
  14661452.664   -29127932.830 6 -22421348.005 8
  15190001.688   -20720074.473 6 -15862665.483 6
  14166355.305   -40360144.991 7 -31189813.428 8
  17431949.985     -480979.160 3   -249641.669 4
  14214238.813   -47362847.074 7 -36682252.392 9
  17046923.633    -5801117.574 4  -4325986.219 3
  17763848.461   -32627256.951 5 -25077409.972 5
  14034580.594   -51466825.248 7 -39966985.312 9
 95  2 19 10 45 59.9760000  0  8 28  1 21 31 17  9 26 23
  14639539.867   -29243084.757 6 -22511076.779 8
  15158894.453   -20883557.493 6 -15990054.846 7
  14147058.328   -40461552.470 7 -31268832.232 8
  17401555.789     -640718.491 3   -374113.884 3
  14209282.211   -47388912.266 7 -36702562.939 9
  17025879.906    -5911713.237 4  -4412164.629 4
  17769825.610   -32595838.394 5 -25052927.976 4
  14027533.477   -51503858.176 7 -39995842.143 9
 95  2 19 10 46 29.9760000  0  8 28  1 21 31 17  9 26 23
  14617732.500   -29357680.963 6 -22600372.521 8
  15127840.797   -21046735.426 6 -16117206.476 7
  14127803.133   -40562740.821 7 -31347680.291 8
  17371213.438     -800150.989 3   -498346.992 2
  14204376.828   -47414677.224 7 -36722639.549 9
  17004901.649    -6021941.074 4  -4498056.439 5
  17775834.781   -32564245.690 5 -25028310.273 5
  14020511.969   -51540759.230 7 -40024596.213 9
 95  2 19 10 46 59.9760000  0  8 28  1 21 31 17  9 26 23
  14596033.586   -29471718.996 6 -22689233.329 8
  15096844.149   -21209635.996 6 -16244141.968 7
  14108586.453   -40663719.901 7 -31426365.278 8
  17340934.422     -959270.440 3   -622336.169 3
  14199529.094   -47440137.757 7 -36742478.939 9
  16983999.649    -6131783.542 4  -4583647.953 5
  17781878.453   -32532482.163 4 -25003559.443 5
  14013516.985   -51577523.097 7 -40053243.386 9
 95  2 19 10 47 29.9760000  0  8 28  1 21 31 17  9 26 23
  14574437.117   -29585198.058 6 -22777658.578 8
  15065897.117   -21372261.497 6 -16370863.133 7
  14089407.445   -40764496.713 7 -31504892.655 8
  17310715.844    -1118078.708 3   -746082.890 3
  14194748.719   -47465275.461 7 -36762066.770 9
  16963173.906    -6241237.884 4  -4668937.026 3
  17787954.938   -32500562.059 5 -24978686.642 5
  14006545.078   -51614154.119 7 -40081787.040 9
 95  2 19 10 47 59.9760000  0  8 28  1 21 31 17  9 26 23
  14552949.969   -29698119.375 6 -22865649.215 8
  15035003.500   -21534607.135 6 -16497366.225 7
  14070268.938   -40865075.652 7 -31583265.849 8
  17280551.367    -1276592.502 4   -869600.141 4
  14190024.477   -47490082.849 7 -36781397.212 8
  16942412.039    -6350319.301 4  -4753935.505 5
  17794055.453   -32468507.492 4 -24953709.051 5
  13999605.977   -51650634.522 7 -40110213.330 9
 95  2 19 10 48 29.9760000  0  8 28  1 21 31 17  9 26 23
  14531570.656   -29810474.886 6 -22953198.964 8
  15004166.852   -21696660.525 6 -16623641.580 7
  14051170.899   -40965432.152 7 -31661465.713 8
  17250442.320    -1434810.777 4   -992887.114 3
  14185369.805   -47514556.586 7 -36800467.671 9
  16921729.735    -6459037.700 5  -4838651.117 5
  17800178.086   -32436327.953 4 -24928634.092 5
  13992695.922   -51686933.147 7 -40138497.979 9
 95  2 19 10 48 59.9760000  0  8 28  1 21 31 17  9 26 23
  14510294.750   -29922267.407 6 -23040310.019 8
  14973383.930   -21858415.913 6 -16749684.733 7
  14032120.195   -41065556.961 7 -31739485.028 8
  17220387.320    -1592736.544 3  -1115946.151 3
  14180775.469   -47538706.541 7 -36819285.833 9
  16901104.969    -6567424.139 5  -4923108.037 4
  17806322.617   -32404028.051 3 -24903465.341 5
  13985821.375   -51723056.289 7 -40166645.883 9
 95  2 19 10 49 29.9760000  0  8 28  1 21 31 17  9 26 23
  14489132.445   -30033493.939 6 -23126980.044 8
  14942665.875   -22019840.188 6 -16875469.875 7
  14013110.719   -41165439.563 7 -31817315.627 8
  17190392.906    -1750370.269 4  -1238777.610 2
  14176242.508   -47562523.155 7 -36837844.240 9
  16880534.602    -6675497.263 5  -5007320.846 4
  17812496.445   -32371604.132 3 -24878199.948 5
  13978980.961   -51759004.636 7 -40194657.588 9
 95  2 19 10 49 59.9760000  0  8 28  1 21 31 17  9 26 23
  14468073.492   -30144149.875 6 -23213205.449 8
  14912014.188   -22180917.332 6 -17000984.526 7
  13994151.578   -41265071.357 7 -31894950.784 8
  17160458.555    -1907701.588 5  -1361373.443 2
  14171771.852   -47586018.605 7 -36856152.393 9
  16860032.969    -6783248.467 4  -5091282.802 4
  17818691.422   -32339044.818 3 -24852829.062 4
  13972173.235   -51794772.601 7 -40222528.734 9
 95  2 19 10 50 29.9760000  0  7 28  1 21 31 17  9 23
  14447125.188   -30254234.388 6 -23298985.592 8
  14881427.235   -22341649.230 6 -17126230.146 7
  13975239.305   -41364452.900 7 -31972390.939 8
  17130574.414    -2064719.323 4  -1483724.944 2
  14167360.610   -47609202.753 7 -36874217.974 9
  16839596.320    -6890661.227 5  -5174981.037 4
  13965400.188   -51830369.082 7 -40250266.252 9
 95  2 19 10 50 59.9760000  0  7 28  1 21 31 17  9 23
  14426286.141   -30363745.078 6 -23384318.601 8
  14850908.899   -22502027.665 6 -17251200.359 7
  13956373.610   -41463602.266 7 -32049650.170 8
  17100757.188    -2221412.308 4  -1605823.380 3
  14163008.656   -47632069.184 7 -36892035.986 8
  16819220.813    -6997709.252 5  -5258395.072 5
  13958659.453   -51865790.497 7 -40277867.357 9
 95  2 19 10 51 29.9760000  0  7 28  1 21 31 17  9 23
  14405555.820   -30472681.506 6 -23469204.129 8
  14820457.860   -22662050.652 6 -17375893.590 7
  13937544.258   -41562551.272 7 -32126753.288 8
  17070998.274    -2377774.232 4  -1727663.847 2
  14158715.375   -47654623.383 7 -36909610.700 8
  16798926.125    -7104353.063 5  -5341494.114 5
  13951954.164   -51901040.160 7 -40305334.630 9
 95  2 19 10 51 59.9750000  0  7 28  1 21 31 17  9 23
  14384934.112   -30581035.940 6 -23553636.159 8
  14790072.909   -22821724.102 6 -17500314.446 7
  13918754.300   -41661303.207 7 -32203702.842 8
  17041315.105    -2533789.195 4  -1849233.941 2
  14154479.902   -47676870.712 7 -36926946.290 9
  16778721.511    -7210565.340 5  -5424256.901 5
  13945277.542   -51936121.854 7 -40332671.024 9
 95  2 19 10 52 29.9750000  0  7 28  1 21 31 17  9 23
  14364424.777   -30688819.957 6 -23637623.706 8
  14759751.292   -22981073.808 6 -17624483.037 7
  13899997.269   -41759871.785 7 -32280509.512 8
  17011684.284    -2689476.444 3  -1970548.685 2
  14150308.659   -47698808.592 7 -36944040.754 8
  16758580.659    -7316368.023 5  -5506700.512 5
  13938630.589   -51971046.219 7 -40359884.816 9
 95  2 19 10 52 59.9750000  0  7 28  1 21 31 17  9 23
  14344026.675   -30796019.885 6 -23721156.124 8
  14729491.870   -23140088.137 6 -17748390.298 7
  13881279.448   -41858230.345 7 -32357152.539 8
  16982123.792    -2844815.878 3  -2091592.394 3
  14146196.167   -47720405.796 7 -36960869.757 9
  16738528.409    -7421748.882 5  -5588815.444 5
  13932017.308   -52005808.859 7 -40386972.590 9
 95  2 19 10 53 29.9750000  0  7 28  1 21 31 17  9 23
  14323735.909   -30902640.347 6 -23804237.008 8
  14699290.487   -23298789.132 6 -17872053.397 7
  13862603.112   -41956368.764 7 -32433624.023 8
  16952630.831    -2999815.217 3  -2212371.124 2
  14142152.855   -47741658.760 7 -36977430.521 8
  16718552.542    -7526725.669 5  -5670615.521 5
  13925429.409   -52040424.891 7 -40413946.130 9
 95  2 19 10 53 59.9750000  0  7 28  1 21 31 17  9 23
  14303560.394   -31008678.496 6 -23886864.139 8
  14669152.128   -23457179.520 6 -17995474.469 7
  13843972.167   -42054262.172 7 -32509904.603 8
  16923201.230    -3154478.039 3  -2332887.564 2
  14138179.839   -47762555.974 7 -36993714.073 8
  16698650.456    -7631318.151 5  -5752116.124 5
  13918869.480   -52074882.311 7 -40440796.069 9
 95  2 19 10 54 29.9750000  0  7 28  1 21 31 17  9 23
  14283491.136   -31114138.020 6 -23969040.395 8
  14639069.214   -23615254.939 6 -18118650.109 7
  13825392.034   -42151910.206 7 -32585993.971 8
  16893832.612    -3308817.068 3  -2453151.758 2
  14134269.503   -47783101.909 7 -37009723.913 8
  16678817.894    -7735528.087 5  -5833318.657 5
  13912341.105   -52109193.274 7 -40467531.897 9
 95  2 19 10 54 59.9750000  0  7 28  1 21 31 17  9 23
  14263533.808   -31219017.029 6 -24050764.300 8
  14609054.097   -23772992.790 6 -18241562.722 7
  13806856.253   -42249323.579 7 -32661900.487 8
  16864522.441    -3462826.358 3  -2573159.005 2
  14130424.198   -47803302.605 7 -37025464.729 8
  16659062.659    -7839343.594 5  -5914213.828 5
  13905840.925   -52143357.630 7 -40494153.475 9
 95  2 19 10 55 29.9750000  0  7 28  1 21 31 17  9 23
  14243682.691   -31323312.799 6 -24132033.730 8
  14579105.198   -23930371.492 6 -18364195.462 7
  13788361.425   -42346523.176 7 -32737640.423 8
  16835278.878    -3616503.577 3  -2692907.467 3
  14126637.589   -47823186.829 7 -37040958.941 8
  16639382.261    -7942757.517 5  -5994796.066 5
  13899369.300   -52177373.370 7 -40520659.245 9
 95  2 19 10 55 59.9750000  0  7 28  1 21 31 17  9 23
  14223953.386   -31427021.416 6 -24212845.649 8
  14549228.495   -24087372.519 6 -18486533.914 7
  13769903.120   -42443509.754 7 -32813214.378 8
  16806101.284    -3769842.577 3  -2812392.396 2
  14122912.370   -47842763.559 7 -37056213.552 8
  16619782.589    -8045763.377 5  -6075060.350 5
  13892922.878   -52211248.938 7 -40547055.798 9
 95  2 19 10 56 29.9750000  0  7 28  1 21 31 17  9 23
  14204327.847   -31530144.927 6 -24293201.636 8
  14519422.487   -24243997.613 6 -18608579.440 7
  13751486.456   -42540288.301 7 -32888626.224 8
  16776987.042    -3922832.176 3  -2931605.078 2
  14119249.191   -47862037.207 7 -37071231.993 8
  16600257.339    -8148364.628 5  -6155009.375 5
  13886499.480   -52244994.422 7 -40573350.992 9
 95  2 19 10 56 59.9750000  0  7 28  1 21 31 17  9 23
  14184815.706   -31632680.624 6 -24373099.589 8
  14489687.691   -24400262.718 6 -18730344.452 7
  13733109.753   -42636859.236 7 -32963876.302 8
  16747942.761    -4075458.306 3  -3050534.523 2
  14115634.214   -47881010.447 7 -37086016.352 8
  16580814.620    -8250562.901 5  -6234644.342 5
  13880109.105   -52278586.673 7 -40599526.784 9
 95  2 19 10 57 29.9750000  0  7 28  1 21 31 17  9 23
  14165412.245   -31734626.774 6
  14460014.269   -24556195.142 6 -18851850.228 7
  13714778.948   -42733199.556 7 -33038946.672 8
  16718971.191    -4227722.293 4  -3169181.783 3
  14112084.753   -47899681.413 7 -37100565.168 8
  16561440.269    -8352364.621 5
  13873744.105   -52312022.798 7 -40625580.913 9
 95  2 19 10 57 59.9750000  0  7 28  1 21 31 17  9 23
  14146128.925   -31835981.463 6
  14430402.011   -24711808.589 6 -18973107.453 7
  13696490.581   -42829295.678 7 -33113826.762 8
  16690066.237    -4379625.569 4  -3287547.961 4
  14108589.112   -47918034.878 7 -37114866.584 8
  16542143.300    -8453774.653 5
  13867414.753   -52345292.536 7 -40651505.385 9
 95  2 19 10 58 29.9750000  0  7 28  1 21 31 17  9 23
  14126954.698   -31936745.025 6 -24610032.899 8
  14400850.737   -24867102.986 6 -19094116.065 7
  13678247.886   -42925161.630 7 -33188527.506 8
  16661224.597    -4531167.977 4  -3405632.939 4
  14105157.269   -47936071.244 7 -37128920.912 8
  16522919.495    -8554782.400 5  -6471698.465 5
  13861119.480   -52378383.954 7 -40677290.911 9
 95  2 19 10 58 59.9750000  0  7 28  1 21 31 17  9 23
  14107893.222   -32036912.360 6 -24688085.371 8
  14371361.894   -25022062.513 6 -19214863.747 7
  13660046.183   -43020804.286 7 -33263054.245 8
  16632451.823    -4682350.236 3  -3523437.290 5
  14101785.745   -47953783.881 7 -37142722.980 8
  16503775.339    -8655380.885 5  -6550086.863 5
  13854855.917   -52411295.708 7 -40702936.431 9
 95  2 19 10 59 29.9750000  0  7 28  1 21 31 17  9 23
  14088943.714   -32136483.427 6 -24765673.219 8
  14341944.456   -25176657.300 6 -19335327.214 7
  13641891.534   -43116220.262 7 -33337404.351 9
  16603754.566    -4833177.492 4  -3640965.034 5
  14098479.284   -47971166.377 7 -37156267.795 8
  16484709.269    -8755570.314 5  -6628156.529 5
  13848621.714   -52444057.767 7 -40728465.312 9
 95  2 19 10 59 59.9750000  0  7 28  1 21 31 17  9 23
  14070109.823   -32235462.523 6 -24842799.795 8
  14312600.237   -25330869.164 6 -19455492.288 7
  13623771.714   -43211433.656 7 -33411596.601 8
  16575112.456    -4983647.781 3  -3758214.589 5
  14095233.292   -47988222.184 7 -37169558.054 8
  16465723.409    -8855343.239 5  -6705901.645 5
  13842412.159   -52476690.273 7 -40753893.237 9
 95  2 19 11  0 29.9750000  0  7 28  1 21 31 17  9 23
  14051383.042   -32333848.282 6 -24919464.032 8
  14283326.948   -25484686.846 6 -19575350.199 7
  13605690.956   -43306455.970 7 -33485639.958 8
  16546554.105    -5133752.382 4  -3875179.208 5
  14092050.034   -48004951.924 7 -37182594.230 8
  16446817.292    -8954705.741 5  -6783326.933 5
  13836222.042   -52509209.782 7 -40779233.121 9
 95  2 19 11  0 59.9750000  0  7 28  1 21 31 17  9 23
  14032776.355   -32431640.298 6 -24995665.609 8
  14254131.081   -25638109.492 6 -19694900.312 8
  13587646.847   -43401276.936 7 -33559526.422 9
  16518063.941    -5283493.135 5  -3991860.298 4
  14088930.120   -48021354.261 6 -37195375.281 8
  16427990.675    -9053660.154 5  -6860434.256 5
  13830052.237   -52541628.914 7 -40804494.785 9
 95  2 19 11  1 29.9750000  0  7 28  1 21 31 17  9 23
  14014283.355   -32528831.455 6 -25071398.985 8
  14225010.659   -25791138.995 6 -19814144.078 8
  13569642.597   -43495888.138 7 -33633249.432 8
  16489636.292    -5432861.723 5  -4108251.401 5
  14085869.464   -48037431.068 6 -37207902.678 8
  16409237.753    -9152190.024 5  -6937210.741 5
  13823903.691   -52573942.817 7 -40829674.450 9
 95  2 19 11  1 59.9750000  0  7 28  1 21 31 17  9 23
  13995899.433   -32625425.896 6 -25146667.386 8
  14195959.816   -25943805.541 6 -19933105.002 8
  13551674.128   -43590309.201 7 -33706824.280 9
  16461287.706    -5581849.399 5  -4224345.689 5
  14082870.269   -48053192.114 6 -37220184.020 8
  16390570.636    -9250301.550 5  -7013661.265 5
  13817777.253   -52606142.504 7 -40854765.114 9
 95  2 19 11  2 29.9750000  0  7 28  1 21 31 17  9 23
  13977632.605   -32721414.767 6 -25221463.918 8
  14166977.112   -26096108.211 6 -20051782.398 8
  13533748.308   -43684516.282 7 -33780232.390 9
  16433009.003    -5730450.746 5  -4340138.952 4
  14079932.769   -48068630.714 6 -37232214.133 8
  16371980.386    -9347990.093 5  -7089782.172 5
  13811674.284   -52638205.028 7 -40879748.902 9
 95  2 19 11  2 59.9750000  0  7 28  1 21 31 17  9 23
  13959482.527   -32816801.488 6 -25295791.238 8
  14138066.550   -26248060.951 6 -20170187.139 8
  13515866.347   -43778492.991 7 -33853460.989 9
  16404801.058    -5878668.238 5  -4455633.098 4
  14077057.831   -48083747.422 6 -37243993.395 8
  16353472.027    -9445236.501 5  -7165558.570 5
  13805599.527   -52670120.885 7 -40904618.396 9
 95  2 19 11  3 29.9740000  0  7 28  1 21 31 17  9 23
  13941447.451   -32911588.000 6 -25369650.862 8
  14109213.912   -26399664.615 6 -20288319.849 8
  13498021.858   -43872249.542 7 -33926518.042 8
  16376677.529    -6026496.304 5  -4570823.798 5
  14074240.897   -48098545.757 6 -37255524.578 8
  16335048.014    -9542046.543 5  -7240994.949 5
  13799557.717   -52701880.696 7 -40929366.300 9
 95  2 19 11  3 59.9740000  0  7 28  1 21 31 17  9 23
  13923522.084   -33005774.636 6 -25443043.049 8
  14080430.990   -26550913.892 6 -20406176.424 8
  13480228.662   -43965772.227 7 -33999392.862 9
  16348619.358    -6173947.770 5  -4685721.040 5
  14071487.475   -48113015.208 6 -37266799.492 8
  16316711.998    -9638417.795 5  -7316089.415 5
  13793546.186   -52733472.554 7 -40953983.331 9
 95  2 19 11  4 29.9740000  0  7 28  1 21 31 17  9 23
  13905714.178   -33099354.555 6
  14051723.506   -26701779.120 6 -20523733.745 8
  13462477.240   -44059049.130 7
  16320623.701    -6321030.715 4  -4800331.127 5
  14068797.475   -48127148.716 6 -37277812.631 8
  16298460.858    -9734330.600 5  -7390826.640 5
  13787570.865   -52764883.769 7 -40978459.603 9
 95  2 19 11  4 59.9740000  0  7 28  1 21 31 17  9 23
  13888022.647   -33192327.706 6 -25588409.093 8
  14023091.045   -26852247.847 6 -20640982.093 8
  13444770.295   -44152100.509 7 -34144583.729 9
  16292702.514    -6467751.148 5  -4914658.737 4
  14066171.662   -48140948.196 6 -37288565.481 8
  16280295.444    -9829781.463 5  -7465203.909 5
  13781622.514   -52796128.807 7 -41002806.385 9
 95  2 19 11  5 29.9740000  0  7 28  1 21 31 17  9 23
  13870446.561   -33284688.814 6 -25660378.798 8
  13994533.904   -27002301.859 6 -20757907.290 8
  13427103.428   -44244942.713 7 -34216928.307 9
  16264857.592    -6614103.447 5  -5028699.492 4
  14063609.717   -48154415.281 6 -37299059.330 8
  16262219.248    -9924779.156 5  -7539228.061 5
  13775709.647   -52827209.136 7 -41027024.819 9
 95  2 19 11  5 59.9740000  0  7 28  1 21 31 17  9 23
  13852988.944   -33376446.749 6 -25731878.498 8
  13966059.725   -27151947.668 6 -20874514.410 8
  13409471.162   -44337586.728 7 -34289118.446 9
  16237077.678    -6760090.082 5  -5142455.306 5
  14061107.334   -48167560.884 6 -37309302.673 8
  16244227.279   -10019331.651 5  -7612905.315 5
  13769819.928   -52858156.130 7 -41051139.360 9
 95  2 19 11  6 29.9740000  0  7 28  1 21 31 17  9 23
  13835642.397   -33467596.693 6 -25802904.428 8
  13937662.803   -27301176.947 6 -20990796.966 8
  13391875.303   -44430047.598 7 -34361165.871 9
  16209371.623    -6905681.382 5  -5255903.071 4
  14058667.170   -48180374.191 6 -37319287.079 8
  16226318.444   -10113442.088 5  -7686238.093 5
  13763956.748   -52888978.598 7 -41075156.863 9
 95  2 19 11  6 59.9740000  0  7 28  1 21 31 17  9 23
  13818413.373   -33558137.546 6 -25873455.756 8
  13909341.326   -27449994.627 6 -21106758.795 8
  13374317.217   -44522329.612 7 -34433073.929 8
  16181745.053    -7050857.462 4  -5369027.299 4
  14056294.053   -48192853.541 6 -37329011.261 8
  16208493.279   -10207111.841 5  -7759227.496 5
  13758110.834   -52919689.928 7 -41099087.778 9
 95  2 19 11  7 29.9740000  0  7 28  1 21 31 17  9 23
  13801298.022   -33648062.187 6 -25943526.909 8
  13881100.889   -27598407.535 6 -21222405.218 8
  13356795.006   -44614419.054 7 -34504831.938 9
  16154199.475    -7195586.491 4  -5481803.161 5
  14053985.139   -48204987.787 6 -37338466.541 8
  16190750.498   -10300339.232 5  -7831872.180 5
  13752289.733   -52950278.121 7 -41122922.735 9
 95  2 19 11  7 59.9740000  0  7 28  1 21 31 17  9 23
  13784304.108   -33737376.240 6 -26013122.286 8
  13852934.123   -27746422.440 6 -21337741.496 8
  13339308.490   -44706307.755 7 -34576433.524 9
  16126742.014    -7339879.368 4  -5594239.174 4
  14051740.506   -48216785.056 6 -37347659.227 8
  16173095.615   -10393124.817 5  -7904172.610 5
  13746492.569   -52980745.040 7 -41146663.196 9
 95  2 19 11  8 29.9740000  0  7 28  1 21 31 17  9 23
  13767424.686   -33826079.190 6 -26082241.469 8
  13824844.233   -27894040.655 6 -21452768.666 8
  13321861.053   -44797996.022 7 -34647878.924 9
  16099370.311    -7483740.439 5  -5706338.699 5
  14049556.701   -48228253.631 6 -37356595.795 8
  16155525.272   -10485452.992 5  -7976116.633 5
  13740720.561   -53011073.798 7 -41170295.996 9
 95  2 19 11  8 59.9740000  0  7 28  1 21 31 17  9 23
  13750659.842   -33914170.266 6 -26150883.875 8
  13796825.795   -28041272.155 6 -21567494.509 8
  13304453.311   -44889473.293 7 -34719159.912 9
  16072076.873    -7627177.968 5  -5818108.214 4
  14047435.889   -48239413.775 6 -37365292.030 8
  16138048.834   -10577323.767 5  -8047704.228 5
  13734973.178   -53041268.520 7 -41193824.356 9
 95  2 19 11  9 29.9740000  0  7 28  1 21 31 17  9 23
  13734013.701   -34001652.698 6 -26219052.012 8
  13768884.233   -28188107.538 6 -21681911.687 8
  13287082.772   -44980735.082 7
  16044857.639    -7770203.299 5  -5929556.530 4
  14045365.217   -48250273.170 6 -37373753.911 8
  16120649.389   -10668748.039 5
  13729255.131   -53071332.684 7 -41217250.986 9
 95  2 19 11  9 59.9740000  0  7 28  1 21 31 17  9 23
  13717483.037   -34088515.489 6 -26286737.313 8
  13741023.967   -28334517.617 6 -21795997.448 8
  13269762.404   -45071772.872 7 -34861211.524 9
  16017712.858    -7912821.749 4  -6040687.797 3
  14043362.459   -48260817.863 6 -37381970.577 8
  16103337.639   -10759704.623 5  -8189819.144 5
  13723557.326   -53101261.475 7 -41240572.127 9
 95  2 19 11 10 29.9740000  0  7 28  1 21 31 17  9 23
  13701071.115   -34174761.205 6 -26353941.775 8
  13713244.764   -28480501.824 6 -21909751.367 8
  13252479.514   -45162594.586 7 -34931981.689 9
  15990657.529    -8055025.123 5  -6151495.602 4
  14041411.959   -48271049.665 6 -37389943.422 8
  16086112.920   -10850205.041 5  -8260338.931 5
  13717886.248   -53131071.463 7 -41263800.692 9
 95  2 19 11 10 59.9740000  0  7 28  1 21 31 17  9 23
  13684776.342   -34260385.228 6 -26420661.800 8
  13685550.225   -28626045.530 6 -22023162.044 8
  13235240.912   -45253183.061 7 -35002570.116 9
  15963678.326    -8196807.694 5  -6261975.547 4
  14039527.694   -48280954.294 6 -37397661.328 8
  16068975.381   -10940267.161 5  -8330517.181 5
  13712236.639   -53160765.501 7 -41286938.911 9
 95  2 19 11 11 29.9740000  0  7 28  1 21 31 17  9 23
  13668605.014   -34345389.560 6 -26486898.947 8
  13657936.365   -28771146.455 6 -22136227.691 8
  13218045.779   -45343542.779 7 -35072980.282 9
  15936777.022    -8338175.231 5  -6372132.078 5
  14037708.576   -48290516.427 6 -37405112.363 7
  16051924.975   -11029883.877 5  -8400348.386 5
  13706609.600   -53190332.324 7 -41309977.999 9
 95  2 19 11 11 59.9740000  0  7 28  1 21 31 17  9 23
  13652548.662   -34429767.437 6 -26552647.950 8
  13630405.834   -28915819.379 6 -22248959.834 8
  13200894.787   -45433665.832 7 -35143206.030 9
  15909954.014    -8479116.662 5  -6481956.570 4
  14035954.561   -48299734.843 6 -37412295.566 8
  16034956.444   -11119034.827 5  -8469816.641 5
  13701009.569   -53219761.189 7 -41332909.590 9
 95  2 19 11 12 29.9740000  0  7 28  1 21 31 17  9 23
  13636609.803   -34513525.597 6 -26617914.061 8
  13602952.654   -29060092.565 6 -22361380.491 8
  13183788.740   -45523560.542 7 -35213253.855 9
  15883216.365    -8619629.252 5  -6591446.909 5
  14034265.865   -48308621.711 6 -37419220.419 7
  16018083.287   -11207718.875 5  -8538921.088 5
  13695433.342   -53249056.435 7 -41355737.057 9
 95  2 19 11 12 59.9740000  0  7 28  1 21 31 17  9 23
  13620788.100   -34596664.903 6 -26682697.936 8
  13575570.889   -29203979.513 6 -22473500.190 8
  13166723.483   -45613232.462 7 -35283128.077 9
  15856557.154    -8759709.085 5  -6700600.014 4
  14032639.537   -48317158.332 6 -37425872.349 7
  16001300.115   -11295917.948 5  -8607647.619 5
  13689885.920   -53278216.789 7 -41378459.418 9
 95  2 19 11 13 29.9740000  0  7 28  1 21 31 17  9 23
  13605083.795   -34679185.337 6 -26746999.584 8
  13548261.147   -29347489.665 6 -22585326.272 8
  13149698.436   -45702705.445 7 -35352847.275 9
  15829984.709    -8899359.351 5  -6809418.406 4
  14031081.819   -48325346.960 6 -37432253.117 7
  15984609.272   -11383609.156 5  -8675978.419 5
  13684360.569   -53307245.456 7 -41401079.167 9
 95  2 19 11 13 59.9740000  0  7 28  1 21 31 17  9 23
  13589496.826   -34761087.450 6 -26810819.419 8
  13521024.764   -29490623.207 6 -22696858.891 9
  13132710.334   -45791987.788 7 -35422417.932 9
  15803495.779    -9038580.309 5  -6917902.254 5
  14029584.686   -48333198.119 6 -37438370.924 7
  15968021.053   -11470803.941 5  -8743922.404 5
  13678860.600   -53336154.288 7 -41423605.531 9
 95  2 19 11 14 29.9730000  0  7 28  1 21 31 17  9 23
  13574029.618   -34842366.589 6 -26874153.822 8
  13493864.829   -29633344.014 6 -22808069.897 9
  13115755.618   -45881083.681 7 -35491843.298 9
  15777082.946    -9177363.747 5  -7026045.196 5
  14028158.017   -48340702.319 6 -37444218.367 7
  15951513.986   -11557520.221 5  -8811493.511 5
  13673382.009   -53364944.164 7 -41446039.208 9
 95  2 19 11 14 59.9730000  0  7 28  1 21 31 17  9 23
  13558683.064   -34923027.813 6 -26937006.730 8
  13466786.806   -29775640.208 6 -22918950.035 9
  13098831.493   -45970000.106 7 -35561128.827 9
  15750753.486    -9315726.294 5  -7133860.165 5
  14026795.603   -48347866.111 6 -37449800.564 7
  15935104.540   -11643784.649 5  -8878712.528 5
  13667926.587   -53393613.090 7 -41468378.639 9
 95  2 19 11 15 29.9730000  0  7 28  1 21 31 17  9 23
  13543450.259   -35003068.111 6 -26999375.803 8
  13439794.056   -29917486.775 6 -23029479.812 9
  13081951.439   -46058729.031 7 -35630268.249 9
  15724505.376    -9453669.361 5  -7241348.273 5
  14025493.532   -48354717.020 6 -37455138.955 7
  15918771.626   -11729601.171 5  -8945582.522 5
  13662494.915   -53422156.942 7 -41490620.608 9
 95  2 19 11 15 59.9730000  0  7 28  1 21 31 17  9 23
  13528335.470   -35082490.283 6 -27061263.216 8
  13412887.517   -30058878.025 6 -23139654.808 9
  13065105.657   -46147252.661 7 -35699247.695 9
  15698339.048    -9591174.170 5  -7348494.875 5
  14024245.548   -48361265.250 6 -37460241.489 7
  15902524.642   -11814980.372 5  -9012111.761 5
  13657087.048   -53450571.854 7 -41512762.106 9
 95  2 19 11 16 29.9730000  0  7 28  1 21 31 17  9 23
  13513341.165   -35161290.428 6 -27122665.935 8
  13386069.837   -30199810.531 6 -23249472.332 9
  13048302.126   -46235558.552 7 -35768057.482 9
  15672256.032    -9728227.427 5  -7455289.620 5
  14023060.298   -48367504.220 6 -37465103.049 7
  15886364.626   -11899896.901 5  -9078280.456 5
  13651704.790   -53478851.986 7 -41534798.584 9
 95  2 19 11 16 59.9730000  0  7 28  1 21 31 17  9 23
  13498468.806   -35239466.485 6 -27183582.350 8
  13359335.595   -30340306.434 7 -23358949.651 9
  13031536.861   -46323644.537 7 -35836695.917 9
  15646261.040    -9864823.827 5  -7561728.378 5
  14021929.407   -48373435.207 6 -37469724.616 7
  15870298.439   -11984315.751 5  -9144061.372 5
  13646350.157   -53506997.658 7 -41556730.281 9
 95  2 19 11 17 29.9730000  0  7 28  1 21 31 17  9 23
  13483708.064   -35317018.340 6 -27244012.377 8
  13332681.751   -30480370.849 7 -23468090.749 9
  13014820.454   -46411505.103 7 -35905158.711 9
  15620362.626   -10000946.119 5  -7667797.685 5
  14020862.954   -48379057.288 6 -37474105.477 7
  15854337.306   -12068216.394 5  -9209438.475 5
  13641019.673   -53535001.905 7 -41578551.779 9
 95  2 19 11 17 59.9730000  0  7 28  1 21 31 17  9 23
  13469068.501   -35393947.116 6 -27303956.882 8
  13306108.970   -30620019.539 7 -23576907.904 9
  12998142.626   -46499147.393 7 -35973451.401 9
  15594548.821   -10136591.285 5  -7773495.225 5
  14019848.611   -48384370.206 6 -37478245.436 7
  15838470.470   -12151594.524 5  -9274408.413 5
  13635720.009   -53562867.688 7 -41600265.382 9
 95  2 19 11 18 29.9730000  0  7 28  1 21 31 17  9 23
  13454548.853   -35470257.487 6 -27363419.516 8
  13279612.314   -30759255.644 7 -23685403.562 9
  12981499.736   -46586595.466 7 -36041592.758 9
  15568820.204   -10271781.583 5  -7878838.314 5
  14018895.798   -48389371.971 6 -37482142.937 7
  15822699.970   -12234461.297 5  -9338979.908 5
  13630439.329   -53590612.082 7 -41621884.405 9
 95  2 19 11 18 59.9730000  0  7 28  1 21 31 17  9 23
  13440143.829   -35545947.500 6 -27422398.752 9
  13253197.150   -30898063.070 7 -23793565.175 9
  12964897.962   -46673846.813 7 -36109580.825 9
  15543185.056   -10406511.883 5  -7983822.970 5
  14018006.118   -48394067.270 6 -37485801.629 7
  15807024.548   -12316827.639 5  -9403161.475 5
  13625181.689   -53618241.287 7 -41643413.657 9
 95  2 19 11 19 29.9730000  0  7 28  1 21 31 17  9 23
  13425858.712   -35621016.385 6 -27480894.001 8
  13226868.368   -31036419.986 7 -23901375.749 9
  12948332.111   -46760897.118 7 -36177412.233 9
  15517633.665   -10540789.259 5  -8088454.697 5
  14017170.454   -48398456.408 6 -37489221.763 7
  15791444.384   -12398713.420 5  -9466968.559 5
  13619943.314   -53645761.744 7 -41664858.182 9
 95  2 19 11 19 59.9730000  0  7 28  1 21 31 17  9 23
  13411692.571   -35695466.142 6 -27538906.800 8
  13200628.775   -31174313.191 7 -24008824.992 9
  12931804.118   -46847750.306 7 -36245090.033 9
  15492165.392   -10674631.769 5  -8192747.548 5
  14016393.821   -48402528.420 6 -37492394.785 7
  15775952.142   -12480121.892 5  -9530403.705 5
  13614724.665   -53673190.997 7 -41686231.630 9
 95  2 19 11 20 29.9730000  0  7 28  1 21 31 17  9 23
  13397641.337   -35769300.985 6 -27596440.456 8
  13174479.868   -31311726.158 7 -24115900.021 9
  12915313.892   -46934408.613 7 -36312615.984 9
  15466774.314   -10808047.080 5  -8296707.536 5
  14015680.923   -48406268.089 6 -37495308.832 7
  15760550.728   -12561062.083 5  -9593473.969 5
  13609521.126   -53700533.214 7 -41707537.259 9
 95  2 19 11 20 59.9730000  0  7 28  1 21 31 17  9 23
  13383709.501   -35842519.643 6 -27653493.963 8
  13148421.868   -31448663.101 7 -24222604.112 9
  12898862.571   -47020857.605 7 -36379978.839 9
  15441467.384   -10941027.624 5  -8400328.741 5
  14015040.462   -48409661.646 6 -37497953.192 7
  15745237.821   -12641519.083 5  -9656167.714 5
  13604336.986   -53727774.506 7 -41728764.249 9
 95  2 19 11 21 29.9730000  0  7 28  1 21 31 17  9 23
  13369893.587   -35915122.932 6 -27710067.959 8
  13122449.782   -31585136.149 7 -24328946.739 9
  12882449.853   -47107102.689 7 -36447182.804 9
  15416249.337   -11073574.349 5  -8503611.905 5
  14014461.556   -48412694.594 6 -37500316.552 7
  15730018.837   -12721486.663 5  -9718480.098 5
  13599174.884   -53754902.723 7 -41749903.129 9
 95  2 19 11 21 59.9730000  0  7 28  1 21 31 17  9 23
  13356195.446   -35987107.404 6 -27766159.760 8
  13096566.993   -31721161.392 7 -24434940.426 9
  12866076.032   -47193148.078 7 -36514231.166 9
  15391108.228   -11205663.410 5  -8606538.447 5
  14013950.611   -48415368.035 6 -37502399.774 7
  15714899.423   -12800957.290 5  -9780405.248 5
  13594036.275   -53781904.097 7 -41770943.167 9
 95  2 19 11 22 29.9730000  0  7 28  1 21 31 17  9 23
  13342615.439   -36058464.037 6 -27821762.347 8
  13070766.704   -31856740.144 7 -24540586.193 9
  12849744.165   -47278984.767 7 -36581116.904 9
  15366069.040   -11337262.347 5  -8709083.062 5
  14013509.548   -48417680.206 6 -37504201.484 7
  15699868.103   -12879927.470 5  -9841940.436 5
  13588925.486   -53808769.092 7 -41791876.936 9
 95  2 19 11 22 59.9730000  0  7 28  1 21 31 17  9 23
  13329156.157   -36129192.770 6 -27876875.650 8
  13045051.290   -31991882.384 7 -24645891.818 9
  12833449.462   -47364606.653 7 -36647835.259 9
  15341121.962   -11468352.012 5  -8811230.847 5
  14013138.017   -48419649.017 6 -37505735.647 7
  15684940.696   -12958390.880 5  -9903080.736 5
  13583840.189   -53835491.529 7 -41812699.623 9
 95  2 19 11 23 29.9730000  0  7 28  1 21 31 17  9 23
  13315816.564   -36199299.651 6 -27931504.398 8
  13019416.892   -32126580.288 7 -24750851.222 9
  12817195.204   -47450026.197 7 -36714395.957 9
  15316275.009   -11598931.450 5  -8912981.062 5
  14012819.306   -48421316.454 6 -37507034.957 7
  15670104.282   -13036360.496 5  -9963836.262 5
  13578779.064   -53862082.368 7 -41833419.766 9
 95  2 19 11 23 59.9730000  0  7 28  1 21 31 17  9 23
  13302590.954   -36268789.683 6 -27985652.481 9
  12993872.267   -32260826.923 7 -24855458.987 9
  12800978.446   -47535252.170 7 -36780805.806 9
  15291523.689   -11729001.052 5  -9014333.997 5
  14012558.400   -48422701.403 6 -37508114.164 7
  15655360.368   -13113850.255 5 -10024217.876 5
  13573741.407   -53888554.730 7 -41854047.585 9
 95  2 19 11 24 29.9730000  0  7 28  1 21 31 17  9 23
  13289486.790   -36337660.836 6 -28039318.323 8
  12968413.556   -32394607.661 7 -24959703.711 9
  12784796.517   -47620277.818 7 -36847059.556 9
  15266867.165   -11858574.233 5  -9115300.112 5
  14012348.579   -48423789.918 6 -37508962.379 7
  15640708.821   -13190847.645 5 -10084215.818 5
  13568725.306   -53914914.888 7 -41874587.977 9
 95  2 19 11 24 59.9730000  0  7 28  1 21 31 17  9 23
  13276495.837   -36405918.630 6 -28092506.221 8
  12943040.493   -32527939.985 7 -25063599.013 9
  12768654.720   -47705113.309 7 -36913165.122 9
  15242299.275   -11987670.270 5  -9215894.435 5
  14012196.196   -48424592.919 6 -37509588.117 7
  15626142.478   -13267358.535 5 -10143834.691 5
  13563728.118   -53941177.067 7 -41895052.021 9
 95  2 19 11 25 29.9730000  0  7 28  1 21 31 17  9 23
  13263624.040   -36473559.128 6 -28145213.102 9
  12917753.736   -32660826.408 7 -25167146.862 9
  12752547.103   -47789760.019 7 -36979123.595 9
  15217820.142   -12116293.503 5  -9316120.342 5
  14012102.415   -48425092.098 6 -37509977.107 7
  15611681.509   -13343377.703 5 -10203070.397 5
  13558746.181   -53967357.695 7 -41915452.516 9
 95  2 19 11 25 59.9720000  0  7 28  1 21 31 17  9 23
  13250874.301   -36540578.653 6 -28197436.123 9
  12892550.481   -32793271.136 7 -25270350.537 9
  12736473.996   -47874210.536 7 -37044929.181 9
  15193439.301   -12244445.149 5  -9415978.761 5
  14012072.004   -48425244.520 6
  15597312.387   -13418887.944 5 -10261909.519 5
  13553779.770   -53993459.709 7 -41935791.754 9
 95  2 19 11 26 29.9720000  0  7 28  1 21 31 17  9 23
  13238235.676   -36606980.716 6 -28249178.004 8
  12867430.270   -32925280.837 7 -25373215.231 9
  12720441.496   -47958463.485 7 -37110580.815 9
  15169144.363   -12372144.448 5  -9515484.709 5
  14012112.949   -48425038.506 6
  15583040.856   -13493886.270 5 -10320349.756 5
  13548825.707   -54019484.586 7 -41956070.883 9
 95  2 19 11 26 59.9720000  0  7 28  1 21 31 17  9 23
  13225718.278   -36672769.927 6 -28300442.328 8
  12842392.707   -33056856.632 7 -25475741.821 9
  12704448.692   -48042515.780 7 -37176076.116 9
  15144923.465   -12499379.028 5  -9614628.539 5
  14012216.465   -48424497.392 6 -37509513.763 7
  15568861.020   -13568390.156 5 -10378404.714 5
  13543888.629   -54045429.717 7 -41976287.875 9
 95  2 19 11 27 29.9720000  0  7 28  1 21 31 17  9 23
  13213312.996   -36737946.442 6 -28351229.238 8
  12817439.309   -33187976.778 7 -25577913.358 9
  12688492.067   -48126365.655 7 -37241413.677 9
  15120800.317   -12626144.740 5  -9713407.021 5
  14012380.113   -48423619.153 6 -37508829.443 7
  15554778.176   -13642383.584 5 -10436061.917 5
  13538972.910   -54071269.003 7 -41996422.390 9
 95  2 19 11 27 59.9720000  0  7 28  1 21 31 17  9 23
  13201029.754   -36802506.848 6 -28401536.050 8
  12792582.754   -33318615.672 7 -25679709.893 9
  12672573.762   -48210007.922 7 -37306589.464 9
  15096762.035   -12752440.828 5  -9811819.563 5
  14012609.324   -48422406.474 6 -37507884.520 7
  15540799.246   -13715863.769 5 -10493319.200 5
  13534080.082   -54096977.085 7 -42016454.663 9
 95  2 19 11 28 29.9720000  0  7 28  1 21 31 17  9 23
  13188860.653   -36866449.429 6 -28451361.449 8
  12767813.301   -33448773.978 7 -25781131.934 9
  12656698.606   -48293435.212 7 -37371597.741 9
  15072830.832   -12878242.588 5  -9909846.910 5
  14012901.160   -48420885.248 6 -37506699.169 7
  15526913.903   -13788834.219 5 -10550179.278 5
  13529214.356   -54122548.275 7 -42036380.277 9
 95  2 19 11 28 59.9720000  0  7 28  1 21 31 17  9 23
  13176809.496   -36929782.123 6 -28500711.609 8
  12743131.465   -33578465.133 7 -25882189.968 9
  12640863.192   -48376664.079 7 -37436451.392 9
  15048987.528   -13003535.108 5 -10007477.449 5
  14013248.270   -48419074.140 6 -37505287.934 7
  15513129.949   -13861283.003 5 -10606632.860 5
  13524371.653   -54147993.433 7 -42056207.678 9
 95  2 19 11 29 29.9720000  0  7 28  1 21 31 17  9 23
  13164872.371   -36992506.891 6 -28549588.058 8
  12718544.481   -33707685.102 7 -25982880.844 9
  12625057.660   -48459705.709 7 -37501159.145 9
  15025246.778   -13128331.262 5 -10104721.203 5
  14013650.254   -48416956.598 6 -37503637.921 7
  15499445.301   -13933190.974 5 -10662665.027 5
  13519552.199   -54173329.393 7 -42075949.985 9
 95  2 19 11 29 59.9720000  0  7 28  1 21 31 17  9 23
  13153052.715   -37054619.925 6 -28597987.836 8
  12694043.699   -33836435.822 7 -26083206.072 9
  12609295.528   -48542544.872 7 -37565709.131 9
  15001589.809   -13252614.710 5 -10201565.457 5
  14014110.473   -48414530.306 6 -37501747.326 7
  15485859.942   -14004573.048 5 -10718287.416 5
  13514748.160   -54198573.349 7 -42095620.609 9
 95  2 19 11 30 29.9720000  0  7 28  1 21 31 17  9 23
  13141352.121   -37116122.278 6 -28645911.750 8
  12669630.270   -33964723.263 7 -26183170.305 9
  12593568.801   -48625192.740 7 -37630110.064 9
  14978036.199   -13376378.526 5 -10298004.793 5
  14014629.348   -48411812.686 6 -37499629.722 7
  15472375.301   -14075425.455 5 -10773497.066 5
  13509957.770   -54223735.322 7 -42115227.347 9
 95  2 19 11 30 59.9720000  0  7 28  1 21 31 17  9 23
  13129764.004   -37177010.435 6 -28693357.089 8
  12645310.707   -34092527.598 7 -26282758.092 9
  12577873.824   -48707656.847 7 -37694367.809 9
  14954577.457   -13499647.748 5 -10394058.737 5
  14015202.028   -48408791.410 6 -37497275.509 7
  15458995.903   -14145756.843 5 -10828300.724 5
  13505188.403   -54248809.818 7 -42134765.928 9
 95  2 19 11 31 29.9720000  0  7 28  1 21 31 17  9 23
  13118292.215   -37237291.024 6 -28740328.991 8
  12621082.856   -34219843.138 7 -26381965.003 9
  12562220.723   -48789930.601 7 -37758477.217 9
  14931211.988   -13622446.450 5 -10489746.040 5
  14015833.496   -48405470.928 6 -37494688.144 6
  15445699.270   -14215604.556 5 -10882727.509 5
  13500434.551   -54273791.589 7 -42154232.251 9
 95  2 19 11 31 59.9720000  0  7 28  1 21 31 17  9 23
  13106938.293   -37296968.524 6 -28786830.939 8
  12596947.231   -34346678.770 7 -26480797.950 9
  12546599.176   -48872023.784 7 -37822445.931 9
  14907934.528   -13744771.237 5 -10585064.053 5
  14016521.809   -48401872.372 6 -37491884.090 6
  15432493.442   -14284987.018 5 -10936791.745 5
  13495698.582   -54298670.061 7 -42173618.077 9
 95  2 19 11 32 29.9720000  0  7 28  1 21 31 17  9 23
  13095695.160   -37356037.854 6 -28832858.995 8
  12572904.551   -34473022.331 7 -26579247.475 9
  12531009.184   -48953942.443 7 -37886278.654 9
  14884744.871   -13866627.641 5 -10680017.102 5
  14017257.754   -48397987.816 6 -37488857.181 6
  15419387.153   -14353892.770 5 -10990484.522 5
  13490987.043   -54323435.588 7 -42192915.895 9
 95  2 19 11 32 59.9720000  0  7 28  1 21 31 17  9 23
  13084572.512   -37414505.688 6 -28878418.356 8
  12548953.863   -34598892.199 7 -26677327.894 9
  12515454.770   -49035677.730 7 -37949968.485 9
  14861647.692   -13988014.904 5 -10774604.572 5
  14018054.863   -48393800.967 6 -37485594.721 6
  15406360.231   -14422324.814 5 -11043808.181 5
  13486292.481   -54348102.857 7 -42212137.155 9
 95  2 19 11 33 29.9720000  0  7 28  1 21 31 17  9 23
  13073558.590   -37472369.169 6 -28923506.790 8
  12525088.582   -34724296.215 7 -26775045.310 9
  12499937.473   -49117223.793 7 -38013510.866 9
  14838643.465   -14108899.175 5 -10868800.106 5
  14018910.676   -48389310.508 6 -37482095.677 6
  15393436.160   -14490250.176 5 -11096737.013 5
  13481617.113   -54372673.855 7 -42231283.386 9
 95  2 19 11 33 59.9720000  0  7 28  1 21 31 17  9 23
  13062664.074   -37529629.959 6 -28968125.595 8
  12501314.793   -34849236.114 7 -26872401.069 9
  12484453.418   -49198589.132 7 -38076912.429 9
  14815736.965   -14229262.325 5 -10962589.593 5
  14019821.270   -48384518.023 6 -37478361.292 6
  15380610.762   -14557643.380 5 -11149251.174 5
  13476957.559   -54397159.215 7 -42250362.898 9
 95  2 19 11 34 29.9720000  0  7 28  1 21 31 17  9 23
  13051881.379   -37586290.255 6 -29012276.482 8
  12477629.488   -34973707.587 7 -26969391.819 9
  12469005.949   -49279767.955 7 -38140168.658 9
  14792934.160   -14349095.214 5 -11055965.869 5
  14020794.106   -48379408.697 6 -37474380.020 6
  15367892.715   -14624499.845 5 -11201347.109 5
  13472311.457   -54421571.734 7 -42269385.649 9
 95  2 19 11 34 59.9720000  0  7 28  1 21 31 17  9 23
  13041213.449   -37642349.259 6 -29055958.833 8
  12454030.098   -35097710.329 7 -27066017.323 9
  12453593.653   -49360759.078 7 -38203278.620 9
  14770231.449   -14468394.705 5 -11148926.512 5
  14021826.301   -48373977.939 6 -37470148.280 6
  15355271.488   -14690813.485 5 -11253020.070 5
  13467680.926   -54445910.234 7 -42288350.721 9
 95  2 19 11 35 29.9720000  0  7 28  1 21 31 17  9 23
  13030659.043   -37697809.636 6 -29099174.721 8
  12430526.215   -35221233.706 7 -27162269.307 9
  12438219.153   -49441561.535 7 -38266241.569 9
  14747629.754   -14587167.393 5 -11241476.663 5
  14022920.012   -48368240.983 6 -37465677.939 6
  15342752.082   -14756600.082 5 -11304282.344 5
  13463066.449   -54470155.180 7 -42307242.892 9
 95  2 19 11 35 59.9720000  0  7 28  1 21 31 17  9 23
  13020220.824   -37752669.244 6 -29141922.473 8
  12407112.387   -35344268.312 7 -27258140.417 9
  12422877.715   -49522161.120 7 -38329046.439 9
  14725128.082   -14705423.204 5 -11333624.044 5
  14024070.676   -48362191.847 6 -37460964.343 6
  15330331.067   -14821882.409 5 -11355151.680 5
  13458473.973   -54494294.780 7 -42326052.975 9
 95  2 19 11 36 29.9720000  0  7 28  1 21 31 17  9 23
  13009894.035   -37806930.740 6 -29184204.172 8
  12383790.473   -35466819.048 7 -27353634.481 9
  12407580.434   -49602561.875 7 -38391696.386 9
  14702719.176   -14823172.984 5 -11425377.125 5
  14025279.082   -48355834.549 6 -37456010.615 6
  15317999.895   -14886676.307 5 -11405640.427 5
  13453904.629   -54518315.051 7 -42344770.075 9
 95  2 19 11 36 59.9720000  0  7 28  1 21 31 17  9 23
  12999683.153   -37860592.666 6 -29226018.673 8
  12360562.934   -35588891.035 7 -27448755.511 9
  12392320.762   -49682760.317 7 -38454188.679 9
  14680410.434   -14940424.306 5 -11516741.784 6
  14026547.598   -48349184.124 6 -37450828.479 6
  15305760.488   -14950976.669 5 -11455744.592 5
  13449358.887   -54542196.401 7 -42363378.925 9
 95  2 19 11 37 29.9710000  0  7 28  1 21 31 17  9 23
  12989586.921   -37913654.184 6 -29267365.322 8
  12337424.437   -35710479.048 7 -27543499.408 9
  12377096.788   -49762756.171 7 -38516523.112 9
  14658192.577   -15057168.704 5 -11607711.452 6
  14027868.320   -48342245.005 6 -37445421.384 6
  15293624.413   -15014776.845 5 -11505458.992 5
  13444840.859   -54565936.330 7 -42381877.580 9
 95  2 19 11 37 59.9710000  0  7 28  1 21 31 17  9 23
  12979599.366   -37966117.075 6 -29308245.505 8
  12314378.390   -35831586.553 7 -27637868.888 9
  12361910.202   -49842567.948 7 -38578714.109 9
  14636077.499   -15173414.281 5 -11698292.427 5
  14029242.530   -48335013.098 6 -37439786.151 6
  15281580.679   -15078058.966 5 -11554769.733 5
  13440345.030   -54589563.323 7 -42400288.228 9
 95  2 19 11 38 29.9710000  0  7 28  1 21 31 17  9 23
  12969729.945   -38017986.421 6 -29348663.184 8
  12291424.530   -35952213.350 7 -27731863.790 9
  12346755.171   -49922206.399 7 -38640770.049 9
  14614044.374   -15289163.081 5 -11788486.297 6
  14030671.726   -48327499.772 6 -37433931.628 6
  15269640.655   -15140803.189 5 -11603661.308 5
  13435865.116   -54613101.767 7 -42418629.878 9
 95  2 19 11 38 59.9710000  0  7 28  1 21 31 17  9 23
  12959976.460   -38069259.193 6 -29388616.010 8
  12268564.187   -36072347.615 7 -27825474.897 9
  12331633.827   -50001663.897 7 -38702684.984 9
  14592113.460   -15404411.683 5 -11878290.405 6
  14032158.093   -48319693.090 6 -37427848.515 6
  15257807.257   -15202996.937 5 -11652123.970 5
  13431396.140   -54636580.783 7 -42436925.214 9
 95  2 19 11 39 29.9710000  0  7 28  1 21 31 17  9 23
  12950328.562   -38119937.080 6 -29428105.275 8
  12245795.405   -36191993.657 7 -27918705.573 9
  12316550.320   -50080939.464 7 -38764458.160 9
  14570276.554   -15519150.994 5 -11967697.660 6
  14033702.101   -48311581.847 6 -37421528.093 6
  15246075.952   -15264637.200 5 -11700155.333 5
  13426937.124   -54660022.865 7 -42455191.791 9
 95  2 19 11 39 59.9710000  0  7 28  1 21 31 17  9 23
  12940804.124   -38170019.668 6 -29467130.679 8
  12223120.859   -36311151.937 7 -28011556.180 9
  12301499.945   -50160022.087 7 -38826080.983 9
  14548543.476   -15633370.966 5 -12056700.241 6
  14035302.179   -48303171.685 6 -37414974.740 6
  15234451.499   -15325724.916 5 -11747756.136 5
  13422481.179   -54683432.862 7 -42473433.353 9
 95  2 19 11 40 29.9710000  0  7 28  1 21 31 17  9 23
  12931384.523   -38219511.138 6 -29505695.467 8
  12200536.734   -36429823.026 7 -28104027.141 9
  12286490.070   -50238905.789 7 -38887548.802 9
  14526915.820   -15747061.557 5 -12145290.309 6
  14036959.874   -48294459.526 6 -37408186.065 6
  15222930.070   -15386277.120 5 -11794939.659 5
  13418036.187   -54706792.245 7 -42491635.474 9
 95  2 19 11 40 59.9710000  0  7 28  1 21 31 17  9 23
  12922079.468   -38268407.849 6 -29543796.819 8
  12178048.984   -36548013.403 7 -28196123.533 9
  12271513.648   -50317586.951 7 -38948858.798 9
  14505379.827   -15860199.474 5 -12233449.735 6
  14038675.796   -48285442.133 6 -37401159.541 6
  15211507.851   -15446309.144 5 -11841717.848 5
  13413608.015   -54730065.732 7 -42509770.667 9
 95  2 19 11 41 29.9710000  0  7 28  1 21 31 17  9 23
  12912886.905   -38316714.820 6 -29581438.604 8
  12155646.109   -36665730.601 7 -28287851.206 9
  12256582.999   -50396071.057 7 -39010015.246 9
  14483953.530   -15972779.033 5 -12321174.071 5
  14040445.312   -48276134.267 6 -37393906.679 6
  15200178.187   -15505833.014 5 -11888100.079 5
  13409200.155   -54753224.567 7 -42527816.520 9
 95  2 19 11 41 59.9710000  0  7 28  1 21 31 17  9 23
  12903804.585   -38364437.006 6 -29618624.731 8
  12133339.734   -36782960.648 7 -28379199.288 9
  12241680.890   -50474368.164 7 -39071025.979 9
  14462639.757   -16084807.425 5 -12408468.920 5
  14042272.468   -48266544.602 6 -37386434.229 6
  15188946.398   -15564866.665 5 -11934100.321 5
  13404818.984   -54776248.781 7 -42545757.473 9
 95  2 19 11 42 29.9710000  0  7 28  1 21 31 17  9 23
  12894833.616   -38411571.481 6 -29655352.908 8
  12111125.812   -36899691.259 7 -28470158.199 9
  12226814.023   -50552492.285 7 -39131901.915 9
  14441425.843   -16196278.158 5 -12495329.239 5
  14044155.030   -48256648.365 6 -37378722.902 6
  15177801.890   -15623407.496 5 -11979716.552 5
  13400468.265   -54799122.377 7 -42563581.065 8
 95  2 19 11 42 59.9710000  0  7 28  1 21 31 17  9 23
  12885975.773   -38458122.174 6 -29691626.186 8
  12089004.538   -37015936.987 7 -28560739.289 9
  12211979.710   -50630453.481 7 -39192650.896 9
  14420317.359   -16307209.863 5 -12581769.522 6
  14046096.202   -48246445.399 6 -37370772.551 6
  15166758.609   -15681451.400 5 -12024945.548 5
  13396140.890   -54821853.868 7 -42581293.921 9
 95  2 19 11 43 29.9710000  0  7 28  1 21 31 17  9 23
  12877227.593   -38504093.002 6 -29727447.619 8
  12066979.413   -37131674.986 7 -28650924.734 9
  12197178.421   -50708248.946 7 -39253270.743 9
  14399307.616   -16417617.563 5 -12667801.511 6
  14048101.445   -48235920.502 6 -37362571.338 6
  15155811.757   -15738992.150 5 -12069782.491 5
  13391836.523   -54844472.973 7 -42598919.201 9
 95  2 19 11 43 59.9710000  0  7 28  1 21 31 17  9 23
  12868593.468   -38549481.966 6 -29762815.654 8
  12045055.163   -37246893.348 7 -28740705.266 9
  12182402.921   -50785876.634 7 -39313759.852 9
  14378401.921   -16527498.248 5 -12753422.837 5
  14050164.835   -48225070.642 6 -37354116.915 6
  15144954.515   -15796026.787 5 -12114225.052 5
  13387550.265   -54866993.956 7 -42616468.026 9
 95  2 19 11 44 29.9710000  0  7 28  1 21 31 17  9 23
  12860064.155   -38594284.621 6 -29797726.823 8
  12023227.491   -37361600.364 7 -28830087.350 9
  12167666.070   -50863324.024 7 -39374108.474 9
  14357586.702   -16636850.941 5 -12838632.733 5
  14052289.648   -48213899.566 6 -37345412.195 6
  15134201.820   -15852539.255 5 -12158260.732 5
  13383281.523   -54889437.313 7 -42633956.366 9
 95  2 19 11 44 59.9710000  0  7 28  1 21 31 17  9 23
  12851652.132   -38638508.984 6 -29832187.372 8
  12001494.101   -37475799.103 7 -28919073.376 9
  12152964.085   -50940578.345 7 -39434306.647 9
  14336883.249   -16745689.104 5 -12923441.694 6
  14054470.702   -48202439.525 6 -37336482.311 6
  15123543.882   -15908538.386 5 -12201896.431 5
  13379020.765   -54911823.241 7 -42651399.948 9
 95  2 19 11 45 29.9710000  0  7 28  1 21 31 17  9 23
  12843344.054   -38682148.933 6 -29866192.530 8
  11979865.171   -37589469.051 7 -29007647.357 9
  12138301.749   -51017633.260 7 -39494349.437 9
  14316271.648   -16853988.284 5 -13007830.669 5
  14056704.171   -48190706.097 6 -37327339.393 6
  15112988.585   -15964011.176 5 -12245121.974 5
  13374774.273   -54934146.116 7 -42668794.409 8
 95  2 19 11 45 59.9710000  0  7 28  1 21 31 17  9 23
  12835150.382   -38725211.935 6 -29899748.124 8
  11958326.874   -37702641.135 7 -29095833.391 9
  12123674.101   -51094511.835 7 -39554254.818 9
  14295761.640   -16961760.932 5 -13091809.356 5
  14058985.320   -48178725.356 6 -37318003.774 6
  15102533.335   -16018956.398 5 -12287936.411 5
  13370535.116   -54956407.873 7 -42686141.248 8
 95  2 19 11 46 29.9710000  0  7 28  1 21 31 17  9 23
  12827066.070   -38767702.433 6 -29932857.607 8
  11936885.616   -37815327.550 7 -29183640.974 9
  12109074.929   -51171214.543 7 -39614023.163 9
  14275352.890   -17069009.326 5 -13175379.542 6
  14061312.695   -48166492.111 6 -37308471.389 6
  15092180.132   -16073363.551 5 -12330331.598 5
  13366313.866   -54978602.560 7 -42703435.812 8
 95  2 19 11 46 59.9710000  0  7 28  1 21 31 17  9 23
  12819090.265   -38809610.275 6 -29965513.074 8
  11915537.085   -37927516.103 7 -29271060.611 9
  12094515.562   -51247727.149 7 -39673643.379 9
  14255055.976   -17175713.977 5 -13258526.030 6
  14063690.726   -48153988.539 6 -37298728.357 6
  15081931.038   -16127214.495 5 -12372293.360 5
  13362107.913   -55000700.766 7 -42720655.198 8
 95  2 19 11 47 29.9710000  0  7 28  1 21 31 17  9 23
  12811224.788   -38850950.603 6 -29997726.330 8
  11894278.788   -38039239.310 7 -29358117.645 9
  12079987.476   -51324069.172 7 -39733130.675 9
  14234845.609   -17281892.038 5 -13341262.179 6
  14066121.320   -48141210.522 6 -37288771.476 6
  15071789.804   -16180513.935 5 -12413825.383 5
  13357921.562   -55022702.565 7 -42737799.465 8
 95  2 19 11 47 59.9710000  0  7 28  1 21 31 17  9 23
  12803466.913   -38891720.512 6 -30029495.094 8
  11873103.491   -38150506.636 7 -29444819.439 9
  12065498.241   -51400221.467 7 -39792470.126 9
  14214740.749   -17387537.973 5 -13423583.686 6
  14068610.390   -48128140.107 6 -37278586.748 6
  15061754.648   -16233267.243 5 -12454931.843 5
  13353751.968   -55044604.476 7 -42754865.896 8
 95  2 19 11 48 29.9700000  0  7 28  1 21 31 17  9 23
  12795817.979   -38931920.187 6 -30060819.527 8
  11852017.572   -38261302.786 7 -29531154.097 9
  12051048.471   -51476160.990 7 -39851643.784 9
  14194740.846   -17492634.693 5 -13505477.246 6
  14071156.440   -48114772.355 6 -37268170.338 6
  15051811.619   -16285483.667 5 -12495619.961 5
  13349604.252   -55066403.168 7 -42771851.894 8
 95  2 19 11 48 59.9700000  0  7 28  1 21 31 17  9 23
  12788272.901   -38971550.236 6 -30091700.093 8
  11831025.893   -38371621.569 7 -29617116.770 9
  12036633.643   -51551892.688 7 -39910655.497 9
  14174846.018   -17597191.518 5 -13586950.097 5
  14073751.877   -48101111.116 5 -37257525.237 6
  15041979.518   -16337170.808 5 -12535895.645 5
  13345476.893   -55088105.748 7 -42788763.004 8
 95  2 19 11 49 29.9700000  0  7 28  1 21 31 17  9 23
  12780842.018   -39010613.102 6 -30122138.701 8
  11810128.197   -38481445.422 7 -29702693.796 9
  12022259.244   -51627434.246 7 -39969519.047 9
  14155050.510   -17701203.850 5 -13667998.677 6
  14076408.143   -48087158.511 6 -37246653.087 6
  15032242.127   -16388334.183 5 -12575763.199 5
  13341361.057   -55109721.750 7 -42805606.641 8
 95  2 19 11 49 59.9700000  0  7 28  1 21 31 17  9 23
  12773517.830   -39049108.187 6 -30152134.876 8
  11789329.440   -38590746.512 7 -29787863.465 9
  12007918.908   -51702789.472 7 -40028237.406 9
  14135363.377   -17804655.363 5 -13748610.244 5
  14079118.619   -48072926.649 6 -37235563.348 6
  15022606.307   -16438977.585 5 -12615225.569 5
  13337263.010   -55131254.005 7 -42822385.031 8
 95  2 19 11 50 29.9700000  0  7 28  1 21 31 17  9 23
  12766296.862   -39087039.533 6 -30181691.775 8
  11768631.112   -38699508.218 7 -29872612.830 9
  11993613.565   -51777972.982 7 -40086821.966 9
  14115784.713   -17907555.458 5 -13828792.150 6
  14081875.815   -48058423.727 5 -37224262.390 6
  15013070.549   -16489101.980 5 -12654283.537 5
  13333183.260   -55152701.118 7 -42839097.075 8
 95  2 19 11 50 59.9700000  0  7 28  1 21 31 17  9 23
  12759189.237   -39124409.621 6 -30210811.334 8
  11748035.971   -38807735.709 7 -29956945.932 9
  11979338.260   -51852998.645 7 -40145283.523 9
  14096304.221   -18009912.916 5 -13908551.198 5
  14084689.369   -48043650.715 5 -37212750.967 6
  15003625.776   -16538703.379 5 -12692933.962 5
  13329116.057   -55174065.010 7 -42855744.265 8
 95  2 19 11 51 29.9700000  0  7 28  1 21 31 17  9 23
  12752182.244   -39161216.851 6 -30239492.295 8
  11727541.862   -38915436.986 7 -30040868.999 9
  11965091.541   -51927860.373 7 -40203617.340 9
  14076929.799   -18111712.252 5 -13987875.371 5
  14087549.830   -48028603.232 5 -37201025.667 6
  14994288.221   -16587785.602 5 -12731179.859 5
  13325067.838   -55195340.638 7 -42872322.680 8
 95  2 19 11 51 59.9700000  0  7 28  1 21 31 17  9 23
  12745283.549   -39197465.460 6 -30267737.972 8
  11707143.127   -39022631.721 7 -30124397.355 9
  11950879.533   -52002540.701 7 -40261809.810 9
  14057668.752   -18212963.238 5 -14066772.248 6
  14090465.127   -48013284.394 5 -37189088.926 6
  14985040.268   -16636366.726 5 -12769035.264 5
  13321034.112   -55216537.138 7 -42888839.431 8
 95  2 19 11 52 29.9700000  0  7 28  1 21 31 17  9 23
  12738492.166   -39233157.140 6 -30295549.673 8
  11686839.026   -39129333.405 7 -30207541.522 9
  11936705.627   -52077029.633 7 -40319853.135 9
  14038500.487   -18313683.214 6 -14145255.356 6
  14093436.807   -47997675.605 5 -37176926.253 6
  14975892.549   -16684442.673 5 -12806497.030 5
  13317017.127   -55237661.348 7 -42905299.865 8
 95  2 19 11 52 59.9700000  0  7 28  1 21 31 17  9 23
  12731806.354   -39268290.929 6 -30322926.653 8
  11666626.674   -39235546.016 7 -30290304.589 9
  11922569.924   -52151319.786 7 -40377741.567 9
  14019439.268   -18413868.664 6 -14223321.938 6
  14096464.760   -47981759.090 5 -37164523.795 6
  14966843.744   -16732005.766 5 -12843559.172 5
  13313010.838   -55258709.527 7 -42921701.044 8
 95  2 19 11 53 29.9700000  0  7 28  1 21 31 17  9 23
  12725225.268   -39302875.282 6 -30349875.504 8
  11646509.190   -39341269.071 7 -30372686.192 9
  11908469.479   -52225412.016 7 -40435475.771 9
  14000469.049   -18513519.720 6 -14300972.122 6
  14099551.315   -47965545.253 5 -37151889.648 6
  14957888.737   -16779063.730 5 -12880227.712 5
  13309021.182   -55279678.978 7 -42938040.882 8
 95  2 19 11 53 59.9700000  0  7 28  1 21 31 17  9 23
  12718749.299   -39336908.925 6 -30376395.232 8
  11626483.651   -39446492.131 7 -30454678.178 9
  11894409.830   -52299298.260 7 -40493049.463 9
  13981610.237   -18612640.411 6 -14378209.033 5
  14102691.862   -47949036.609 5 -37139025.778 6
  14949031.026   -16825597.613 5 -12916487.868 5
  13305046.979   -55300556.503 7 -42954309.083 8
 95  2 19 11 54 29.9700000  0  7 28  1 21 31 17  9 23
  12712378.057   -39370392.077 6 -30402486.000 8
  11606559.315   -39551197.797 7 -30536267.007 9
  11880387.315   -52372988.672 7 -40550470.563 9
  13962852.494   -18711218.951 6 -14455023.488 5
  14105889.252   -47932239.522 5 -37125937.153 6
  14940284.244   -16871589.031 5 -12952325.316 5
  13301094.979   -55321321.965 6 -42970489.969 8
 95  2 19 11 54 59.9700000  0  7 28  1 21 31 17  9 23
  12706112.276   -39403327.254 6 -30428149.785 8
  11586731.252   -39655389.720 7 -30617455.515 9
  11866399.854   -52446491.607 7 -40607745.583 9
  13944202.518   -18809230.631 6 -14531396.228 5
  14109134.940   -47915176.910 5 -37112641.626 6
  14931634.596   -16917039.636 5 -12987741.363 5
  13297165.338   -55341973.409 6 -42986582.009 8
 95  2 19 11 55 29.9700000  0  7 28  1 21 31 17  9 23
  12699946.190   -39435712.345 6 -30453384.920 8
  11567002.932   -39759070.354 7 -30698245.612 9
  11852448.869   -52519807.152 7 -40664874.582 9
  13925657.822   -18906664.272 6 -14607318.549 6
  14112428.479   -47897866.955 5 -37099153.352 5
  14923089.807   -16961953.580 5 -13022739.241 5
  13293256.330   -55362517.937 6 -43002590.735 8
 95  2 19 11 55 59.9700000  0  7 28  1 21 31 17  9 23
  12693889.127   -39467546.649 6 -30478190.873 8
  11547372.705   -39862229.597 7 -30778629.434 9
  11838531.244   -52592940.201 7 -40721861.375 9
  13907224.643   -19003513.924 5 -14682785.820 6
  14115770.588   -47880304.161 5 -37085468.073 5
  14914635.893   -17006336.189 5 -13057323.072 5
  13289364.010   -55382970.255 7 -43018527.611 8
 95  2 19 11 56 29.9700000  0  7 28  1 21 31 17  9 23
  12687933.846   -39498839.232 6 -30502574.709 8
  11527840.643   -39964872.705 7 -30858611.074 9
  11824644.713   -52665909.499 7 -40778720.571 9
  13888906.916   -19099784.564 6 -14757801.899 6
  14119161.932   -47862491.162 5 -37071587.822 5
  14906291.666   -17050204.583 5 -13091506.233 5
  13285486.822   -55403351.818 6 -43034409.357 8
 95  2 19 11 56 59.9700000  0  7 28  1 21 31 17  9 23
  12682083.971   -39529590.962 6 -30526537.107 8
  11508403.596   -40067012.475 7 -30938200.498 9
  11810790.885   -52738708.828 7 -40835447.322 9
  13870696.822   -19195484.413 5 -14832373.203 6
  14122601.682   -47844421.223 5 -37057507.347 6
  14898037.713   -17093562.599 5 -13125291.691 5
  13281617.690   -55423677.617 6 -43050247.645 8
 95  2 19 11 57 29.9700000  0  7 28  1 21 31 17  9 23
  12676331.283   -39559802.134 6 -30550078.282 8
  11489065.119   -40168636.117 7 -31017387.745 9
  11796972.291   -52811332.709 7 -40892037.357 9
  13852595.635   -19290629.632 6 -14906512.346 6
  14126093.744   -47826077.461 5 -37043213.515 5
  14889888.947   -17136414.817 5 -13158683.020 5
  13277763.354   -55443941.360 6 -43066037.581 8
 95  2 19 11 57 59.9700000  0  7 28  1 21 31 17  9 23
  12670685.791   -39589479.638 6 -30573203.613 8
  11469823.502   -40269743.329 7 -31096172.581 9
  11783185.963   -52883787.395 7 -40948495.556 9
  13834593.416   -19385228.234 6 -14980225.539 5
  14129632.463   -47807454.479 5 -37028702.116 6
  14881833.174   -17178750.382 5 -13191671.778 5
  13273918.299   -55464142.984 6 -43081779.108 8
 95  2 19 11 58 29.9700000  0  7 28  1 21 31 17  9 23
  12665139.838   -39618622.454 6 -30595912.307 8
  11450682.752   -40370352.419 7 -31174569.263 9
  11769430.846   -52956058.781 7 -41004810.925 9
  13816694.854   -19479274.202 6 -15053508.131 6
  14133230.190   -47788548.580 5 -37013970.248 6
  14873875.526   -17220550.466 5 -13224243.260 5
  13270089.549   -55484265.410 6 -43097458.930 8
 95  2 19 11 58 59.9700000  0  7 28  1 21 31 17  9 23
  12659696.385   -39647229.724 6 -30618203.687 8
  11431629.627   -40470460.232 7 -31252575.345 9
  11755714.987   -53028134.843 7 -41060974.096 9
  13798903.690   -19572756.262 6 -15126351.295 5
  14136881.862   -47769359.951 5 -36999018.086 5
  14866025.963   -17261811.642 5 -13256394.836 5
  13266272.869   -55504309.131 6 -43113077.418 8
 95  2 19 11 59 29.9700000  0  7 28  1 21 31 17  9 23
  12654354.190   -39675309.719 6 -30640084.202 8
  11412675.401   -40570068.498 7 -31330192.159 9
  11742036.065   -53100022.181 7 -41116990.204 9
  13781224.221   -19665672.112 6 -15198753.258 6
  14140582.674   -47749916.264 5 -36983867.179 5
  14858273.057   -17302540.720 5 -13288131.775 5
  13262475.307   -55524268.641 6 -43128630.284 8
 95  2 19 11 59 59.9690000  0  7 28  1 21 31 17  9 23
  12649108.997   -39702862.538 6 -30661553.936 7
  11393814.919   -40669189.842 7 -31407429.563 9
  11728393.880   -53171711.286 7 -41172851.847 9
  13763651.341   -19758016.506 6 -15270709.925 6
  14144331.068   -47730229.106 5 -36968526.542 6
  14850629.224   -17342728.627 5 -13319447.025 5
  13258694.732   -55544140.004 6 -43144114.467 8
 95  2 19 12  0 29.9690000  0  7 28  1 21 31 17  9 23
  12643968.294   -39729890.654 6 -30682614.806 7
  11375037.794   -40767837.768 7 -31484298.067 9
  11714791.880   -53243207.380 7 -41228563.092 9
  13746187.091   -19849807.031 6 -15342235.017 6
  14148120.716   -47710304.696 5 -36953001.037 5
  14843078.177   -17382399.211 5 -13350359.159 6
  13254928.521   -55563923.817 6 -43159530.431 8
 95  2 19 12  0 59.9690000  0  7 28  1 21 31 17  9 23
  12638921.513   -39756399.561 6 -30703271.101 7
  11356359.786   -40866008.928 7 -31560795.066 9
  11701218.271   -53314520.803 7 -41284131.996 9
  13728817.029   -19941065.265 6 -15413345.338 6
  14151954.997   -47690154.733 5 -36937299.785 5
  14835624.724   -17421568.276 5 -13380880.520 5
  13251182.818   -55583620.918 6 -43174878.831 8
 95  2 19 12  1 29.9690000  0  7 28  1 21 31 17  9 23
  12633978.099   -39782383.293 6 -30723518.161 8
  11337767.919   -40963700.560 7 -31636918.409 9
  11687682.802   -53385653.302 7 -41339559.925 9
  13711553.614   -20031797.585 5 -15484045.844 5
  14155834.599   -47669759.491 5 -36921407.417 6
  14828269.482   -17460222.994 5 -13411001.079 5
  13247457.739   -55603199.554 6 -43190134.916 8
 95  2 19 12  1 59.9690000  0  7 28  1 21 31 17  9 23
  12629129.130   -39807851.842 6 -30743363.788 7
  11319270.029   -41060907.068 7 -31712663.730 9
  11674177.841   -53456621.099 7 -41394859.514 9
  13694383.404   -20122014.219 6 -15554344.537 6
  14159768.255   -47649098.869 5 -36905308.237 5
  14821013.411   -17498368.574 5 -13440724.908 6
  13243749.607   -55622680.975 6 -43205315.253 8
 95  2 19 12  2 29.9690000  0  7 28  1 21 31 17  9 23
  12624381.154   -39832805.269 6 -30762808.013 8
  11300870.279   -41157607.108 7 -31788014.401 9
  11660702.513   -53527425.730 7 -41450031.951 9
  13677323.341   -20211701.919 6 -15624231.064 6
  14163750.247   -47628173.533 5 -36889002.803 5
  14813850.341   -17536005.349 5 -13470052.261 5
  13240058.302   -55642068.367 6 -43220422.312 8
 95  2 19 12  2 59.9690000  0  7 28  1 21 31 17  9 23
  12619731.943   -39857245.237 6 -30781852.150 7
  11282569.700   -41253777.660 7 -31862952.486 9
  11647262.888   -53598058.228 7 -41505070.264 9
  13660355.224   -20300835.265 6 -15693685.613 6
  14167784.333   -47606976.916 5 -36872485.991 5
  14806784.724   -17573120.561 5 -13498973.215 5
  13236390.552   -55661353.621 6 -43235449.792 8
 95  2 19 12  3 29.9690000  0  7 28  1 21 31 17  9 23
  12615179.474   -39881174.434 6 -30800498.281 7
  11264373.982   -41349399.240 7 -31937462.791 9
  11633855.677   -53668506.958 7 -41559965.381 9
  13643505.029   -20389391.774 6 -15762690.702 6
  14171867.716   -47585519.282 5 -36855765.765 5
  14799821.357   -17609721.211 5 -13527493.213 5
  13232736.591   -55680557.317 6 -43250413.725 8
 95  2 19 12  3 59.9690000  0  7 28  1 21 31 17  9 23
  12610720.966   -39904593.040 6 -30818746.548 7
  11246282.450   -41444465.189 7 -32011540.151 9
  11620488.482   -53738754.627 7 -41614703.833 9
  13626767.654   -20477353.400 6 -15831232.237 6
  14175998.755   -47563818.239 5 -36838855.880 5
  14792952.779   -17645821.023 5 -13555622.923 5
  13229090.654   -55699705.056 6 -43265334.046 8
 95  2 19 12  4 29.9690000  0  7 28  1 21 31 17  9 23
  12606361.810   -39927504.998 6 -30836600.028 7
  11228296.169   -41538994.794 7 -32085199.577 9
  11607160.943   -53808792.272 7 -41669278.622 9
  13610140.130   -20564724.911 6 -15899313.939 6
  14180171.864   -47541883.420 5 -36821763.825 5
  14786174.638   -17681421.020 5 -13583363.177 5
  13225460.568   -55718788.622 6 -43280204.367 7
 95  2 19 12  4 59.9690000  0  7 28  1 21 31 17  9 23
  12602099.997   -39949913.973 6 -30854061.578 7
  11210406.310   -41632996.045 7 -32158447.293 9
  11593871.927   -53878628.307 7 -41723696.314 9
  13593624.396   -20651510.272 6 -15966938.903 6
  14184391.693   -47519709.598 5 -36804485.529 5
  14779500.169   -17716527.610 5 -13610718.951 5
  13221839.989   -55737810.108 6 -43295026.311 8
 95  2 19 12  5 29.9690000  0  7 28  1 21 31 17  9 23
  12597930.075   -39971823.315 6 -30871133.797 7
  11192613.458   -41726497.322 7 -32231305.417 9
  11580618.794   -53948270.497 7 -41777962.962 9
  13577219.927   -20737730.231 6 -16034123.298 6
  14188655.239   -47497296.449 5 -36787020.768 5
  14772913.591   -17751131.173 5 -13637682.770 5
  13218227.505   -55756786.722 6 -43309813.291 8
 95  2 19 12  5 59.9690000  0  7 28  1 21 31 17  9 23
  12593854.396   -39993230.647 6 -30887814.848 7
  11174914.169   -41819506.568 7 -32303780.154 9
  11567406.568   -54017724.389 7 -41832082.881 9
  13560916.193   -20823394.896 6 -16100874.994 6
  14192968.857   -47474625.958 5 -36769355.467 5
  14766429.419   -17785213.503 5 -13664240.423 5
  13214633.060   -55775689.887 6 -43324543.036 8
 95  2 19 12  6 29.9690000  0  7 28  1 21 31 17  9 23
  12589878.239   -40014142.409 6 -30904109.731 7
  11157308.841   -41912022.343 7 -32375870.358 9
  11554219.193   -54087012.807 7 -41886073.858 9
  13544720.950   -20908517.443 6 -16167204.248 6
  14197332.763   -47451697.594 5 -36751489.233 5
  14760040.021   -17818766.450 5 -13690385.574 5
  13211051.310   -55794501.328 6 -43339201.319 8
 95  2 19 12  6 59.9690000  0  7 28  1 21 31 17  9 23
  12585992.224   -40034558.823 6 -30920018.623 7
  11139798.544   -42004033.749 7 -32447567.549 9
  11541064.818   -54156142.014 7 -41939940.771 9
  13528626.122   -20993093.265 6 -16233107.507 6
  14201742.810   -47428515.136 5 -36733424.992 5
  14753758.208   -17851794.429 5 -13716121.656 5
  13207489.404   -55813225.392 6 -43353791.504 7
 95  2 19 12  7 29.9690000  0  7 28  1 21 31 17  9 23
  12582200.466   -40054484.121 6 -30935544.836 7
  11122384.052   -42095552.146 7 -32518880.580 9
  11527938.450   -54225111.413 7 -41993683.172 9
  13512635.763   -21077128.635 6 -16298589.613 6
  14206202.779   -47405077.610 5 -36715162.001 5
  14747574.263   -17884295.864 5 -13741447.455 5
  13203943.779   -55831856.728 6 -43368309.432 8
 95  2 19 12  7 59.9690000  0  7 28  1 21 31 17  9 23
  12578501.021   -40073917.456 6 -30950687.709 7
  11105064.075   -42186571.359 7 -32589804.636 9
  11514846.614   -54293920.866 7 -42047300.928 9
  13496752.169   -21160601.867 6 -16363633.696 6
  14210713.825   -47381387.926 5 -36696702.518 5
  14741480.185   -17916294.584 5 -13766381.513 5
  13200420.747   -55850378.099 6 -43382741.673 7
 95  2 19 12  8 29.9690000  0  7 28  1 21 31 17  9 23
  12574896.357   -40092866.363 6 -30965453.087 7
  11087835.536   -42277103.425 7 -32660349.095 9
  11501780.529   -54362576.548 7 -42100798.866 9
  13480973.591   -21243509.768 6 -16428237.262 6
  14215266.380   -47357457.210 5 -36678055.229 5
  14735486.489   -17947797.329 5 -13790929.105 5
  13196913.083   -55868810.228 6 -43397104.386 7
 95  2 19 12  8 59.9690000  0  7 28  1 21 31 17  9 23
  12571383.677   -40111324.740 6
  11070699.669   -42367158.920 7 -32730522.196 9
  11488750.911   -54431050.573 7 -42154155.251 9
  13465304.614   -21325837.120 6 -16492388.449 6
  14219865.919   -47333277.808 5 -36659214.148 5
  14729589.075   -17978804.451 5 -13815090.483 5
  13193419.896   -55887156.164 6
 95  2 19 12  9 29.9690000  0  7 28  1 21 31 17  9 23
  12567962.599   -40129292.202 6 -30993836.862 7
  11053651.021   -42456739.352 7 -32800325.127 9
  11475758.357   -54499327.864 7 -42207358.339 9
  13449753.818   -21407578.657 6 -16556083.154 6
  14224517.958   -47308853.908 5 -36640182.577 5
  14723782.904   -18009317.789 5 -13838867.098 5
  13189947.146   -55905417.766 6 -43425629.755 7
 95  2 19 12  9 59.9690000  0  7 28  1 21 31 17  9 23
  12564637.654   -40146777.444 6 -31007461.726 7
  11036699.544   -42545826.824 7 -32869743.932 9
  11462800.974   -54567414.618 7 -42260412.961 9
  13434309.318   -21488739.329 6 -16619325.247 6
  14229205.419   -47284203.416 5 -36620974.415 5
  14718070.505   -18039345.416 5 -13862265.235 5
  13186482.771   -55923609.278 6 -43439804.962 7
 95  2 19 12 10 29.9690000  0  7 28  1 21 31 17  9 23
  12561397.677   -40163783.700 6 -31020713.363 7
  11019844.458   -42634406.728 7 -32938767.228 9
  11449881.638   -54635304.162 7 -42313313.900 9
  13418969.614   -21569338.952 6 -16682130.154 6
  14233939.435   -47259326.397 5 -36601589.736 5
  14712445.552   -18068873.635 5 -13885274.234 5
  13183038.372   -55941724.303 6 -43453920.570 7
 95  2 19 12 10 59.9680000  0  8 28  1 21 31 17  9 25 23
  12558253.883   -40180317.707 6 -31033597.014 7
  11003089.742   -42722457.059 7 -33007377.870 9
  11436999.117   -54702995.006 7 -42366060.018 9
  13403737.750   -21649379.546 6 -16744499.452 6
  14238715.656   -47234232.200 5 -36582035.824 5
  14706923.266   -18097913.955 5 -13907903.053 5
  15465681.563          -0.77515
  13179606.141   -55959760.609 6 -43467974.839 7
 95  2 19 12 11 29.9680000  0  8 28  1 21 31 17  9 25 23
  12555196.922   -40196376.901 6 -31046110.681 7
  10986438.985   -42809957.094 7 -33075559.711 9
  11424155.586   -54770496.082 7 -42418658.262 9
  13388614.000   -21728870.613 6 -16806440.550 6
  14243531.860   -47208912.722 5 -36562306.386 5
  14701490.539   -18126454.683 5 -13930142.570 5
  15433795.531     -167552.277 5        -0.29611
  13176190.516   -55977705.050 6 -43481957.533 7
 95  2 19 12 11 59.9680000  0  8 28  1 21 31 17  9 25 23
  12552233.149   -40211965.856 6 -31058257.925 7
  10969890.649   -42896909.221 7 -33143314.611 9
  11411347.110   -54837816.097 7 -42471115.413 9
  13373589.344   -21807823.461 6 -16867962.262 6
  14248392.758   -47183371.635 5 -36542404.255 5
  14696154.821   -18154490.855 5 -13951988.932 5
  15401890.266     -335212.817 5   -130644.870 1
  13172794.617   -55995542.805 6 -43495857.092 7
 95  2 19 12 12 29.9680000  0  8 28  1 21 31 17  9 25 23
  12549355.672   -40227089.260 6 -31070042.403 7
  10953444.883   -42983333.919 7 -33210658.532 9
  11398569.727   -54904951.829 7 -42523428.976 9
  13358668.281   -21886231.349 6 -16929059.315 6
  14253292.367   -47157612.257 5 -36522332.022 5
  14690912.867   -18182026.607 5 -13973445.363 5
  15369963.719     -502974.348 4   -261368.140 1
  13169420.235   -56013278.189 6 -43509676.869 7
 95  2 19 12 12 59.9680000  0  8 28  1 21 31 17  9 25 23
  12546564.789   -40241747.146 6 -31081464.128 7
  10937096.696   -43069248.780 7 -33277605.165 9
  11385832.008   -54971903.629 7 -42575599.211 9
  13343847.414   -21964084.680 6 -16989724.267 6
  14258237.485   -47131632.764 5 -36502088.272 5
  14685770.117   -18209061.101 5 -13994511.201 5
  15338020.539     -670835.060 4   -392168.701 1
  13166063.969   -56030929.157 6 -43523430.882 7
 95  2 19 12 13 29.9680000  0  8 28  1 21 31 17  9 25 23
  12543865.000   -40255940.165 6 -31092523.624 7
  10920840.289   -43154669.672 7 -33344166.901 9
  11373124.141   -55038679.905 7 -42627632.671 9
  13329142.250   -22041386.483 6 -17049959.426 6
  14263223.594   -47105426.608 5 -36481667.901 5
  14680722.461   -18235587.340 5 -14015180.979 5
  15306066.961     -838786.143 4   -523039.719 1
  13162717.414   -56048501.649 6 -43537123.741 7
 95  2 19 12 13 59.9680000  0  8 28  1 21 31 17  9 25 23
  12541250.281   -40269666.648 6 -31103219.590 7
  10904677.836   -43239596.235 7 -33410343.433 9
  11360449.680   -55105276.651 7 -42679526.241 9
  13314543.274   -22118118.266 6 -17109750.430 6
  14268257.297   -47078986.068 5 -36461064.893 5
  14675772.485   -18261600.030 5 -14035450.607 5
  15274090.305    -1006812.173 3   -653969.060 1
  13159390.461   -56065991.490 6 -43550752.191 7
 95  2 19 12 14 29.9680000  0  8 28  1 21 31 17  9 25 23
  12538730.860   -40282931.321 6 -31113555.705 7
  10888614.742   -43324024.961 7 -33476132.049 9
  11347810.344   -55171694.122 7 -42731280.116 9
  13300043.797   -22194278.206 6 -17169095.857 6
  14273335.078   -47052307.187 5 -36440276.171 5
  14670920.102   -18287107.545 5 -14055326.578 5
  15242103.797    -1174913.309 3   -784956.954 1
  13156076.453   -56083404.815 6 -43564321.024 7
 95  2 19 12 14 59.9680000  0  8 28  1 21 31 17  9 25 23
  12536291.321   -40295736.586 6 -31123533.835 7
  10872640.508   -43407959.849 7 -33541535.849 9
  11335207.586   -55237934.663 7 -42782896.126 9
  13285662.578   -22269881.718 6 -17228007.686 6
  14278457.500   -47025387.698 5 -36419299.977 5
  14666159.735   -18312115.651 5 -14074813.419 5
  15210099.391    -1343087.975 3   -916002.138 2
  13152778.399   -56100732.857 6 -43577823.398 7
 95  2 19 12 15 29.9680000  0  8 28  1 21 31 17  9 25 23
  12533939.305   -40308087.903 6 -31133158.236 7
  10856767.110   -43491390.336 7 -33606546.614 9
  11322633.719   -55303989.851 7 -42834367.706 9
  13271380.531   -22344923.767 6 -17286482.024 6
  14283625.469   -46998233.693 5 -36398141.038 5
  14661495.930   -18336628.014 5 -14093913.970 5
  15178085.055    -1511328.412 5  -1047098.573 3
  13149498.524   -56117967.853 6 -43591253.276 7
 95  2 19 12 15 59.9680000  0  8 28  1 21 31 17  9 25 23
  12531674.641   -40319992.582 6 -31142434.612 7
  10840984.328   -43574330.183 7 -33671175.060 9
  11310102.196   -55369838.027 7 -42885677.977 9
  13257206.500   -22419403.587 6 -17344518.244 6
  14288832.586   -46970859.827 5 -36376810.753 5
  14656925.539   -18360652.521 5 -14112634.356 5
  15146056.727    -1679640.926 4  -1178251.167 2
  13146237.383   -56135108.497 6 -43604609.628 7
 95  2 19 12 16 29.9680000  0  8 28  1 21 31 17  9 25 23
  12529494.414   -40331447.782 6 -31151360.742 7
  10825293.156   -43656788.486 7 -33735428.282 9
  11297616.031   -55435462.994 7 -42936814.318 9
  13243137.750   -22493321.341 6 -17402116.507 6
  14294083.391   -46943263.633 5 -36355307.250 5
  14652445.141   -18384188.988 5 -14130974.454 5
  15114010.305    -1848031.305 4  -1309464.423 2
  13142992.672   -56152160.937 6 -43617897.240 7
 95  2 19 12 16 59.9680000  0  8 28  1 21 31 17  9 25 23
  12527399.305   -40342461.334 6 -31159942.732 7
  10809690.266   -43738767.107 7 -33799307.720 9
  11285170.672   -55500873.295 7 -42987783.385 9
  13229183.563   -22566669.614 6 -17459271.008 6
  14299374.500   -46915455.339 5 -36333638.458 5
  14648057.789   -18407234.072 5 -14148931.653 5
  15081949.852    -2016506.213 4  -1440743.548 2
  13139760.891   -56169139.293 6 -43631127.130 7
 95  2 19 12 17 29.9680000  0  8 28  1 21 31 17  9 25 23
  12525388.594   -40353038.772 6 -31168184.892 7
  10794183.938   -43820259.773 7 -33862808.500 9
  11272764.039   -55566073.638 7 -43038588.847 9
  13215330.297   -22639442.597 6 -17515977.233 6
  14304707.649   -46887437.176 5 -36311806.129 5
  14643766.539   -18429781.138 5 -14166500.794 5
  15049871.610    -2185065.873 4  -1572088.747 2
  13136544.563   -56186043.475 6 -43644299.223 7
 95  2 19 12 17 59.9680000  0  8 28  1 21 31 17  9 25 23
  12523458.203   -40363177.460 6 -31176085.183 7
  10778769.891   -43901261.052 7 -33925926.371 9
  11260392.188   -55631079.113 7 -43089242.469 9
  13201595.555   -22711644.238 6 -17572238.259 6
  14310081.617   -46859199.930 5 -36289803.087 5
  14639569.641   -18451832.834 5 -14183683.930 5
  15017783.024    -2353700.044 3  -1703491.999 4
  13133345.977   -56202859.463 6 -43657402.600 7
 95  2 19 12 18 29.9680000  0  8 28  1 21 31 17  9 25 23
  12521608.672   -40372877.867 6 -31183643.939 7
  10763454.063   -43981747.331 7 -33988642.944 9
  11248053.610   -55695915.001 7 -43139763.938 9
  13187965.149   -22783287.762 6 -17628064.382 6
  14315499.328   -46830739.967 5 -36267626.501 5
  14635469.508   -18473394.646 5 -14200485.350 5
  14985683.985    -2522399.463 4  -1834946.083 3
  13130162.664   -56219586.828 6 -43670436.917 7
 95  2 19 12 18 59.9680000  0  8 28  1 21 31 17  9 25 23
  12519848.641   -40382142.409 6 -31190863.060 7
  10748238.571   -44061706.214 7 -34050948.563 9
  11235746.453   -55760593.684 7 -43190162.915 9
  13174436.242   -22854381.655 6 -17683462.234 6
  14320952.531   -46802072.128 5 -36245287.938 5
  14631458.172   -18494467.655 5 -14216905.866 5
  14953570.438    -2691149.947 4  -1966439.942 3
  13126995.274   -56236221.602 6 -43683399.083 7
 95  2 19 12 19 29.9680000  0  8 28  1 21 31 17  9 25 23
  12518168.438   -40390975.057 6 -31197745.642 7
  10733119.641   -44141151.968 7 -34112854.335 9
  11223472.586   -55825110.576 7 -43240435.820 9
  13161005.086   -22924946.276 6 -17738447.653 6
  14326449.156   -46773194.288 5 -36222785.723 5
  14627543.094   -18515060.713 5 -14232952.404 5
  14921442.227    -2859958.173 4  -2097978.852 4
  13123846.813   -56252767.513 6 -43696292.006 7
 95  2 19 12 19 59.9680000  0  8 28  1 21 31 17  9 25 23
  12516568.281   -40399382.002 6 -31204296.521 7
  10718099.469   -44220096.899 7 -34174369.865 9
  11211222.406   -55889463.774 7 -43290581.168 9
  13147675.992   -22994990.568 6 -17793027.629 6
  14331980.531   -46744109.597 5 -36200122.338 5
  14623712.375   -18535174.494 5 -14248625.456 5
  14889314.313    -3028828.698 5  -2229566.281 3
  13120713.922   -56269237.704 6 -43709125.930 7
 95  2 19 12 20 29.9680000  0  8 28  1 21 31 17  9 25 23
  12515048.188   -40407365.232 6 -31210517.214 7
  10703167.586   -44298552.280 7 -34235503.927 9
  11199010.211   -55953637.113 7 -43340586.371 9
  13134452.852   -23064511.382 6 -17847199.696 6
  14337557.438   -46714828.764 5 -36177306.132 5
  14619973.438   -18554803.112 5 -14263920.470 5
  14857164.703    -3197768.546 5  -2361207.733 2
  13117591.531   -56285644.699 6 -43721910.603 7
 95  2 19 12 20 59.9680000  0  8 28  1 21 31 17  9 25 23
  12513610.727   -40414923.207 6 -31216406.541 7
  10688325.797   -44376535.961 7 -34296270.424 9
  11186839.031   -56017607.481 7 -43390433.412 9
  13121325.977   -23133486.639 6 -17900946.661 6
  14343164.344   -46685341.313 5 -36154328.888 5
  14616335.797   -18573937.896 5 -14278830.685 5
  14825004.024    -3366771.372 5  -2492898.259 2
  13114484.250   -56301980.006 6 -43734639.416 7
 95  2 19 12 21 29.9680000  0  8 28  1 21 31 17  9 25 23
  12512247.922   -40422062.798 6 -31221969.854 7
  10673572.383   -44454062.128 7 -34356680.422 9
  11174705.977   -56081370.676 7 -43440119.021 9
  13108305.805   -23201910.022 6 -17954263.589 6
  14348815.313   -46655643.712 5 -36131187.912 5
  14612789.899   -18592582.755 5 -14293359.152 5
  14792827.547    -3535838.270 4  -2624638.708 3
  13111388.766   -56318237.683 6 -43747307.748 7
 95  2 19 12 21 59.9680000  0  8 28  1 21 31 17  9 25 23
  12510971.235   -40428785.152 6 -31227208.047 7
  10658911.219   -44531123.384 7 -34416728.146 9
  11162607.031   -56144929.674 7 -43489645.513 9
  13095391.539   -23269768.981 6 -18007140.709 6
  14354505.633   -46625744.990 5 -36107890.222 4
  14609336.375   -18610742.656 5 -14307509.727 5
  14760655.297    -3704952.405 5  -2756415.946 3
  13108313.594   -56334401.382 6 -43759902.841 7
 95  2 19 12 22 29.9670000  0  8 28  1 21 31 17  9 25 23
  12509771.495   -40435090.776 6 -31232121.519 7
  10644334.925   -44607712.533 7 -34476408.001 9
  11150556.019   -56208290.962 7 -43539017.949 9
  13082586.878   -23337053.857 6 -18059570.490 6
  14360233.730   -46595653.751 5 -36084442.484 5
  14605964.277   -18628437.123 5 -14321297.613 5
  14728458.995    -3874099.940 4  -2888219.229 2
  13105256.503   -56350465.550 6 -43772420.377 7
 95  2 19 12 22 59.9670000  0  8 28  1 21 31 17  9 25 23
  12508650.433   -40440981.792 6 -31236711.919 7
  10629854.245   -44683827.125 7 -34535718.068 9
  11138528.761   -56271470.152 7 -43588248.485 9
  13069893.980   -23403766.863 6 -18111554.657 6
  14365997.706   -46565358.883 4 -36060836.122 4
  14602685.503   -18645679.376 5 -14334733.143 5
  14696270.347    -4043275.352 5  -3020044.233 2
  13102220.863   -56366422.031 6 -43784854.004 7
 95  2 19 12 23 29.9670000  0  8 28  1 21 31 17  9 25 23
  12507609.652   -40446462.182 6 -31240982.361 7
  10615462.347   -44759450.208 7 -34594645.143 9
  11126538.073   -56334478.419 7 -43637345.836 9
  13057302.730   -23469919.788 6 -18163102.392 6
  14371799.019   -46534871.361 4 -36037079.622 4
  14599487.370   -18662474.684 5 -14347820.392 5
  14664073.472    -4212478.210 5  -3151890.675 2
  13099203.198   -56382274.479 6 -43797206.556 7
 95  2 19 12 23 59.9670000  0  8 28  1 21 31 17  9 25 23
  12506640.566   -40451534.934 6 -31244935.159 7
  10601168.956   -44834565.916 7 -34653176.857 9
  11114579.097   -56397327.448 7 -43686319.107 9
  13044814.034   -23535516.462 6 -18214216.702 6
  14377641.441   -46504183.337 4 -36013166.888 4
  14596373.964   -18678835.247 5 -14360568.886 4
  14631869.159    -4381704.958 5  -3283755.687 4
  13096202.886   -56398038.959 6 -43809490.577 7
 95  2 19 12 24 29.9670000  0  8 28  1 21 31 17  9 25 23
  12505756.878   -40456202.529 6 -31248572.253 6
  10586974.347   -44909164.414 7 -34711305.557 9
  11102649.613   -56460006.706 7 -43735160.088 9
  13032437.816   -23600556.148 6 -18264896.982 6
  14383516.409   -46473285.978 3 -35989091.033 3
  14593343.761   -18694752.913 5
  14599665.628    -4550950.587 5  -3415635.405 3
  13093217.503   -56413735.700 6
 95  2 19 12 24 59.9670000  0  8 28  1 21 31 17  9 25 23
  12504944.394   -40460468.704 6 -31251896.544 7
  10572874.089   -44983239.573 7 -34769026.451 9
  11090764.917   -56522497.514 7 -43783854.228 9
  13020170.073   -23665044.249 6 -18315147.464 6
  14389441.284   -46442165.344 4 -35964841.199 3
  14590404.769   -18710210.619 5 -14385017.172 2
  14567454.323    -4720220.151 5  -3547533.755 3
  13090243.464   -56429365.732 6 -43833901.044 7
 95  2 19 12 25 29.9670000  0  8 28  1 21 31 17  9 25 23
  12504209.034   -40464329.885 6 -31254905.267 6
  10558883.269   -45056776.293 7 -34826327.788 9
  11078909.152   -56584778.323 7 -43832384.732 9
  13008005.917   -23728979.139 6 -18364966.862 6
  14395405.698   -46410817.796 4 -35940414.554 4
  14587554.050   -18725189.118 5 -14396688.745 4
  14535233.941    -4889517.228 4  -3679453.555 4
  13087279.698   -56444928.944 6 -43846028.233 6
 95  2 19 12 25 59.9670000  0  8 28  1 21 31 17  9 25 23
  12503553.097   -40467790.058 6 -31257601.503 6
  10544990.839   -45129781.523 7 -34883214.964 9
  11067098.464   -56646839.821 7 -43880744.340 9
  12995943.417   -23792356.120 6 -18414351.529 6
  14401413.128   -46379247.997 3 -35915814.710 2
  14584796.800   -18739686.424 5 -14407985.336 3
  14503013.261    -5058836.303 5  -3811390.492 5
  13084333.120   -56460411.659 6 -43858092.701 7
 95  2 19 12 26 29.9670000  0  8 28  1 21 31 17  9 25 23
  12502968.042   -40470852.347 6 -31259987.700 7
  10531196.183   -45202275.940 7 -34939704.122 9
  11055332.136   -56708674.324 7 -43928927.072 9
  12983986.706   -23855188.842 6 -18463312.097 6
  14407461.581   -46347476.050 4 -35891057.337 2
  14582131.956   -18753695.381 5 -14418901.402 4
  14470790.980    -5228187.177 5  -3943352.220 3
  13081406.480   -56475793.677 6 -43870078.694 7
 95  2 19 12 26 59.9670000  0  8 28  1 21 31 17  9 25 23
  12502461.003   -40473518.292 6 -31262065.057 7
  10517490.917   -45274278.920 7 -34995810.334 9
  11043608.519   -56770302.560 7 -43976949.072 9
  12972133.730   -23917479.834 6 -18511850.555 6
  14413542.980   -46315511.709 5 -35866150.067 2
  14579554.714   -18767221.103 5 -14429440.934 4
  14438556.144    -5397575.669 5  -4075343.237 3
  13078504.378   -56491047.283 6 -43881964.629 7
 95  2 19 12 27 29.9670000  0  8 28  1 21 31 17  9 25 23
  12502026.183   -40475794.710 6 -31263838.899 6
  10503881.894   -45345813.812 7 -35051551.802 9
  11031910.667   -56831748.840 7
  12960384.691   -23979230.889 6
  14419658.339   -46283380.073 5 -35841112.417 2
  14577068.769   -18780273.602 5 -14439611.696 2
  14406317.152    -5566989.517 5  -4207354.045 3
  13075627.683   -56506169.180 6 -43893747.934 7
